[[{"header":{"parameterUnit":"m.s-1","parameterCategory":1,"la1":30.6,"la2":29.2853,"lo1":-89.7004,"lo2":-87.6739,"dy":0.0162,"dx":0.0183,"nx":112,"ny":82,"refTime":"2024-06-25T18:00:00:Z","depth":0,"parameterNumber":2,"parameterNumberName":"U-component_of_WINDS"},"data":[0.0,0.0,0.0,0.0,0.0,0.0,0.0,0.0,0.0,0.0,0.0,0.0,0.0,0.0,0.0,0.0,0.0,0.0,0.0,0.0,0.0,0.0,0.0,0.0,0.0,0.0,0.0,0.0,0.0,0.0,0.0,0.0,0.0,0.0,0.0,0.0,0.0,0.0,0.0,0.0,0.0,0.0,0.0,0.0,0.0,0.0,0.0,0.0,0.0,0.0,0.0,0.0,0.0,0.0,0.0,0.0,0.0,0.0,0.0,0.0,0.0,0.0,0.0,0.0,0.0,0.0,0.0,0.0,0.0,0.0,0.0,0.0,0.0,0.0,0.0,0.0,0.0,0.0,0.0,0.0,0.0,0.0,0.0,0.0,0.0,0.0,0.0,0.0,0.0,0.0,-3.709,-3.8676,-3.9783,-4.0666,-4.1324,-3.9634,-3.8212,-3.7464,0.0,0.0,0.0,0.0,0.0,0.0,0.0,0.0,0.0,0.0,0.0,0.0,0.0,0.0,0.0,0.0,0.0,0.0,0.0,0.0,0.0,0.0,0.0,0.0,0.0,0.0,0.0,0.0,0.0,0.0,0.0,0.0,0.0,0.0,0.0,0.0,0.0,0.0,0.0,0.0,0.0,0.0,0.0,0.0,0.0,0.0,0.0,0.0,0.0,0.0,0.0,0.0,0.0,0.0,0.0,0.0,0.0,0.0,0.0,0.0,0.0,0.0,0.0,0.0,0.0,0.0,0.0,0.0,0.0,0.0,0.0,0.0,0.0,0.0,0.0,0.0,0.0,0.0,0.0,0.0,0.0,0.0,0.0,0.0,0.0,0.0,0.0,0.0,0.0,0.0,0.0,0.0,0.0,0.0,0.0,0.0,0.0,0.0,0.0,0.0,0.0,0.0,0.0,0.0,-3.7629,-4.0643,-4.0606,-4.0666,-4.1324,-4.0083,-3.8736,-3.7494,0.0,0.0,0.0,0.0,0.0,0.0,0.0,0.0,0.0,0.0,0.0,0.0,0.0,0.0,0.0,0.0,0.0,0.0,0.0,0.0,0.0,0.0,0.0,0.0,0.0,0.0,0.0,0.0,0.0,0.0,0.0,0.0,0.0,0.0,0.0,0.0,0.0,0.0,0.0,0.0,0.0,0.0,0.0,0.0,0.0,0.0,0.0,0.0,0.0,0.0,0.0,0.0,0.0,0.0,0.0,0.0,0.0,0.0,0.0,0.0,0.0,0.0,0.0,0.0,0.0,0.0,0.0,0.0,0.0,0.0,0.0,0.0,0.0,0.0,0.0,0.0,0.0,0.0,0.0,0.0,0.0,0.0,0.0,0.0,0.0,0.0,0.0,0.0,0.0,0.0,0.0,0.0,0.0,0.0,0.0,0.0,0.0,0.0,0.0,0.0,0.0,0.0,0.0,-3.706,-3.8931,-4.1145,-4.1115,-4.1055,-4.1354,-3.9828,-3.8452,-3.7464,-3.5451,0.0,0.0,0.0,0.0,0.0,0.0,0.0,0.0,0.0,0.0,0.0,0.0,0.0,0.0,0.0,0.0,0.0,0.0,0.0,0.0,0.0,0.0,0.0,0.0,0.0,0.0,0.0,0.0,0.0,0.0,0.0,0.0,0.0,0.0,0.0,0.0,0.0,0.0,0.0,0.0,0.0,0.0,0.0,0.0,0.0,0.0,0.0,0.0,0.0,0.0,0.0,0.0,0.0,0.0,0.0,0.0,0.0,0.0,0.0,0.0,0.0,0.0,0.0,0.0,0.0,0.0,0.0,0.0,0.0,0.0,0.0,0.0,0.0,0.0,0.0,0.0,0.0,0.0,0.0,0.0,0.0,0.0,0.0,0.0,0.0,0.0,0.0,0.0,0.0,0.0,0.0,0.0,0.0,0.0,0.0,0.0,0.0,0.0,0.0,0.0,0.0,0.0,-3.8437,-3.9679,-4.101,-4.1145,-4.1145,-4.1107,-3.9418,-3.8018,-3.7243,-3.5222,0.0,0.0,0.0,0.0,0.0,0.0,0.0,0.0,0.0,0.0,0.0,0.0,0.0,0.0,0.0,0.0,0.0,0.0,0.0,0.0,0.0,0.0,0.0,0.0,0.0,0.0,0.0,0.0,0.0,0.0,0.0,0.0,0.0,0.0,0.0,0.0,0.0,0.0,0.0,0.0,0.0,0.0,0.0,0.0,0.0,0.0,0.0,0.0,0.0,0.0,0.0,0.0,0.0,0.0,0.0,0.0,0.0,0.0,0.0,0.0,0.0,0.0,0.0,0.0,0.0,0.0,0.0,0.0,0.0,0.0,0.0,0.0,0.0,0.0,0.0,0.0,0.0,0.0,0.0,0.0,0.0,0.0,0.0,0.0,0.0,0.0,0.0,0.0,0.0,0.0,0.0,0.0,0.0,0.0,0.0,0.0,0.0,0.0,0.0,0.0,0.0,0.0,-3.8033,-3.8975,-4.0322,-4.0472,-4.0382,-4.0219,-3.8984,-3.7751,-3.6714,-3.4704,0.0,0.0,0.0,0.0,0.0,0.0,0.0,0.0,0.0,0.0,0.0,0.0,0.0,0.0,0.0,0.0,0.0,0.0,0.0,0.0,0.0,0.0,0.0,0.0,0.0,0.0,0.0,0.0,0.0,0.0,0.0,0.0,0.0,0.0,0.0,0.0,0.0,0.0,0.0,0.0,0.0,0.0,0.0,0.0,0.0,0.0,0.0,0.0,0.0,0.0,0.0,0.0,0.0,0.0,0.0,0.0,0.0,0.0,0.0,0.0,0.0,0.0,0.0,0.0,0.0,0.0,0.0,0.0,0.0,0.0,0.0,0.0,0.0,0.0,0.0,0.0,0.0,0.0,0.0,0.0,0.0,0.0,0.0,0.0,0.0,0.0,0.0,0.0,0.0,0.0,0.0,0.0,0.0,0.0,0.0,0.0,0.0,0.0,0.0,0.0,0.0,0.0,-3.8362,-3.9343,-4.0144,-4.0099,-3.995,-3.9732,-3.7952,-3.667,-3.6244,0.0,0.0,0.0,0.0,0.0,0.0,0.0,0.0,0.0,0.0,0.0,0.0,0.0,0.0,0.0,0.0,0.0,0.0,0.0,0.0,0.0,0.0,0.0,0.0,0.0,0.0,0.0,0.0,0.0,0.0,0.0,0.0,0.0,0.0,0.0,0.0,0.0,0.0,0.0,0.0,0.0,0.0,0.0,0.0,0.0,0.0,0.0,0.0,0.0,0.0,0.0,0.0,0.0,0.0,0.0,0.0,0.0,0.0,0.0,0.0,0.0,0.0,0.0,0.0,0.0,0.0,0.0,0.0,0.0,0.0,0.0,0.0,0.0,0.0,0.0,0.0,0.0,0.0,0.0,0.0,0.0,0.0,0.0,0.0,0.0,0.0,0.0,0.0,0.0,0.0,0.0,0.0,0.0,0.0,0.0,0.0,0.0,0.0,0.0,0.0,0.0,0.0,-3.7063,-3.818,-3.9009,-3.955,-3.9362,-3.9136,-3.8908,-3.6942,-3.5674,-3.5565,0.0,0.0,0.0,0.0,0.0,0.0,0.0,0.0,0.0,0.0,0.0,0.0,0.0,0.0,0.0,0.0,0.0,0.0,0.0,0.0,0.0,0.0,0.0,0.0,0.0,0.0,0.0,0.0,0.0,0.0,0.0,0.0,0.0,0.0,0.0,0.0,0.0,0.0,0.0,0.0,0.0,0.0,0.0,0.0,0.0,0.0,0.0,0.0,0.0,0.0,0.0,0.0,0.0,0.0,0.0,0.0,0.0,0.0,0.0,0.0,0.0,0.0,0.0,0.0,0.0,0.0,0.0,0.0,0.0,0.0,0.0,0.0,0.0,0.0,0.0,0.0,0.0,0.0,0.0,0.0,0.0,0.0,0.0,0.0,0.0,0.0,0.0,0.0,0.0,0.0,0.0,0.0,0.0,0.0,0.0,0.0,0.0,0.0,0.0,0.0,0.0,0.0,-3.6837,-3.7319,-3.7748,-3.8405,-3.8127,-3.781,-3.761,-3.6066,-3.4924,0.0,0.0,0.0,0.0,0.0,0.0,0.0,0.0,0.0,0.0,0.0,0.0,0.0,0.0,0.0,0.0,0.0,0.0,0.0,0.0,0.0,0.0,0.0,0.0,0.0,0.0,0.0,0.0,0.0,0.0,0.0,0.0,0.0,0.0,0.0,0.0,0.0,0.0,0.0,0.0,0.0,0.0,0.0,0.0,0.0,0.0,0.0,0.0,0.0,0.0,0.0,0.0,0.0,0.0,0.0,0.0,0.0,0.0,0.0,0.0,0.0,0.0,0.0,0.0,0.0,0.0,0.0,0.0,0.0,0.0,0.0,0.0,0.0,0.0,0.0,0.0,0.0,0.0,0.0,0.0,0.0,0.0,0.0,0.0,0.0,0.0,0.0,0.0,0.0,0.0,0.0,0.0,0.0,0.0,0.0,0.0,0.0,0.0,0.0,0.0,0.0,0.0,0.0,-3.6183,-3.7157,-3.776,-3.7658,-3.726,-3.6897,-3.6716,-3.5049,-3.402,-3.3919,0.0,0.0,0.0,0.0,0.0,0.0,0.0,0.0,0.0,0.0,0.0,0.0,0.0,0.0,0.0,0.0,0.0,0.0,0.0,0.0,0.0,0.0,0.0,0.0,0.0,0.0,0.0,0.0,0.0,0.0,0.0,0.0,0.0,0.0,0.0,0.0,0.0,0.0,0.0,0.0,0.0,0.0,0.0,0.0,0.0,0.0,0.0,0.0,0.0,0.0,0.0,0.0,0.0,0.0,0.0,0.0,0.0,0.0,0.0,0.0,0.0,0.0,0.0,0.0,0.0,0.0,0.0,0.0,0.0,0.0,0.0,0.0,0.0,0.0,0.0,0.0,0.0,0.0,0.0,0.0,0.0,0.0,0.0,0.0,0.0,0.0,0.0,0.0,0.0,0.0,0.0,0.0,0.0,0.0,0.0,0.0,0.0,0.0,0.0,0.0,0.0,0.0,-3.5503,-3.6608,-3.7144,-3.6822,-3.6375,-3.6084,-3.5964,-3.4591,-3.3632,-3.3392,0.0,0.0,0.0,0.0,0.0,0.0,0.0,0.0,0.0,0.0,0.0,0.0,0.0,0.0,0.0,0.0,0.0,0.0,0.0,0.0,0.0,0.0,0.0,0.0,0.0,0.0,0.0,0.0,0.0,0.0,0.0,0.0,0.0,0.0,0.0,0.0,0.0,0.0,0.0,0.0,0.0,0.0,0.0,0.0,0.0,0.0,0.0,0.0,0.0,0.0,0.0,0.0,0.0,0.0,0.0,0.0,0.0,0.0,0.0,0.0,0.0,0.0,0.0,0.0,0.0,0.0,0.0,0.0,0.0,0.0,0.0,0.0,0.0,0.0,0.0,0.0,0.0,0.0,0.0,0.0,0.0,0.0,0.0,0.0,0.0,0.0,0.0,0.0,0.0,0.0,0.0,0.0,0.0,0.0,0.0,0.0,0.0,0.0,0.0,0.0,0.0,0.0,-3.4831,-3.5717,-3.6163,-3.5951,-3.5562,-3.5358,-3.5358,-3.4431,-3.3594,-3.2988,0.0,0.0,0.0,0.0,0.0,0.0,0.0,0.0,0.0,0.0,0.0,0.0,0.0,0.0,0.0,0.0,0.0,0.0,0.0,0.0,0.0,0.0,0.0,0.0,0.0,0.0,0.0,0.0,0.0,0.0,0.0,0.0,0.0,0.0,0.0,0.0,0.0,0.0,0.0,0.0,0.0,0.0,0.0,0.0,0.0,0.0,0.0,0.0,0.0,0.0,0.0,0.0,0.0,0.0,0.0,0.0,0.0,0.0,0.0,0.0,-2.9908,-2.9491,0.0,0.0,0.0,0.0,0.0,0.0,0.0,0.0,0.0,0.0,0.0,0.0,0.0,0.0,0.0,0.0,0.0,0.0,0.0,0.0,0.0,0.0,0.0,0.0,0.0,0.0,0.0,0.0,0.0,0.0,0.0,0.0,0.0,0.0,0.0,0.0,0.0,0.0,0.0,0.0,-3.3821,-3.4898,-3.5507,-3.5318,-3.5086,-3.4921,-3.4921,-3.416,-3.342,-3.2804,-3.1534,0.0,0.0,0.0,0.0,0.0,0.0,0.0,0.0,0.0,0.0,0.0,0.0,0.0,0.0,0.0,0.0,0.0,0.0,0.0,0.0,0.0,0.0,0.0,0.0,0.0,0.0,0.0,0.0,0.0,0.0,0.0,0.0,0.0,0.0,0.0,0.0,0.0,0.0,0.0,0.0,0.0,0.0,0.0,0.0,0.0,0.0,0.0,0.0,0.0,0.0,0.0,0.0,0.0,0.0,0.0,0.0,0.0,0.0,0.0,-3.1742,-3.1097,0.0,0.0,0.0,0.0,0.0,0.0,0.0,0.0,0.0,0.0,0.0,0.0,0.0,0.0,0.0,0.0,0.0,0.0,0.0,0.0,0.0,0.0,0.0,0.0,0.0,0.0,0.0,0.0,0.0,0.0,0.0,0.0,0.0,0.0,0.0,0.0,0.0,0.0,0.0,0.0,-3.3246,-3.4353,-3.5031,-3.4784,-3.466,-3.4618,-3.4618,-3.4232,-3.3731,-3.3156,-3.2032,0.0,0.0,0.0,0.0,0.0,0.0,0.0,0.0,0.0,0.0,0.0,0.0,0.0,0.0,0.0,0.0,0.0,0.0,0.0,0.0,0.0,0.0,0.0,0.0,0.0,0.0,0.0,0.0,0.0,0.0,0.0,0.0,0.0,0.0,0.0,0.0,0.0,0.0,0.0,0.0,0.0,0.0,0.0,0.0,0.0,0.0,0.0,0.0,0.0,0.0,0.0,0.0,0.0,-3.4177,-3.4423,-3.4531,-3.4531,-3.4374,-3.4111,-3.3641,-3.2688,-3.1538,-3.1538,0.0,0.0,0.0,0.0,0.0,0.0,0.0,0.0,0.0,0.0,0.0,0.0,0.0,0.0,0.0,0.0,0.0,0.0,0.0,0.0,0.0,0.0,0.0,0.0,-3.341,-3.3195,-3.2162,0.0,0.0,0.0,0.0,0.0,0.0,0.0,0.0,0.0,0.0,0.0,-3.2883,-3.3976,-3.4673,-3.4439,-3.4397,-3.4397,-3.4397,-3.4356,-3.4121,-3.3573,-3.2553,-3.1642,0.0,0.0,0.0,0.0,0.0,0.0,0.0,0.0,0.0,0.0,0.0,0.0,0.0,0.0,0.0,0.0,0.0,0.0,0.0,0.0,0.0,0.0,0.0,0.0,0.0,0.0,0.0,0.0,0.0,0.0,0.0,0.0,-2.47,-2.6025,0.0,0.0,0.0,0.0,0.0,0.0,0.0,0.0,0.0,0.0,0.0,0.0,0.0,-3.4368,-3.445,-3.5072,-3.5628,-3.613,-3.6212,-3.6537,-3.7025,-3.7025,-3.6801,-3.6351,-3.6271,0.0,-3.2724,-3.2581,0.0,0.0,0.0,0.0,0.0,0.0,0.0,0.0,0.0,0.0,0.0,0.0,0.0,0.0,0.0,0.0,0.0,0.0,0.0,0.0,0.0,0.0,-3.3418,-3.3537,-3.3917,-3.4192,0.0,-3.2869,-3.1653,-3.1035,-3.0322,0.0,0.0,0.0,0.0,0.0,0.0,0.0,-3.266,-3.3732,-3.4439,-3.4397,-3.4397,-3.4397,-3.4397,-3.4243,-3.3884,-3.3273,-3.2941,-3.2036,-3.0471,-3.0227,0.0,0.0,0.0,0.0,0.0,0.0,0.0,0.0,0.0,0.0,0.0,0.0,0.0,0.0,0.0,0.0,0.0,0.0,0.0,0.0,0.0,0.0,0.0,0.0,0.0,0.0,0.0,0.0,0.0,-2.4975,-2.656,-2.7865,-2.8484,-2.8804,0.0,0.0,0.0,0.0,0.0,0.0,0.0,0.0,0.0,-3.4516,-3.5371,-3.5954,-3.6306,-3.6564,-3.6821,-3.7121,-3.7121,-3.7228,-3.7485,-3.7371,-3.7144,-3.6774,-3.6688,-3.5891,-3.4706,-3.4321,-3.3953,-3.3626,0.0,0.0,0.0,0.0,-3.2685,-3.2659,-3.2411,-3.2319,-3.228,-3.2019,0.0,0.0,0.0,0.0,0.0,0.0,0.0,0.0,0.0,0.0,-3.4554,-3.4554,-3.4959,-3.5365,-3.5365,-3.4805,-3.3998,0.0,-3.1757,-3.1053,-3.1053,-3.062,0.0,0.0,0.0,-3.2529,-3.3117,-3.3901,-3.4397,-3.4397,-3.4397,-3.4356,-3.4243,-3.416,-3.393,-3.3505,-3.3126,-3.2557,-3.1802,-3.1032,-3.0202,0.0,0.0,0.0,0.0,0.0,0.0,0.0,0.0,0.0,0.0,0.0,0.0,0.0,0.0,0.0,0.0,0.0,0.0,0.0,0.0,0.0,0.0,0.0,0.0,0.0,0.0,0.0,0.0,-2.6542,-2.8011,-2.9609,-3.0308,-3.0581,0.0,0.0,0.0,0.0,0.0,0.0,-3.3971,-3.4543,-3.5303,-3.6375,-3.7134,-3.7745,-3.8206,-3.8326,-3.8407,-3.8407,-3.8407,-3.8407,-3.8306,-3.8175,-3.7899,-3.7577,-3.7444,-3.7235,-3.692,-3.5913,-3.5247,-3.4789,-3.4397,-3.3966,-3.3561,-3.3561,-3.3561,-3.3561,-3.3561,-3.3561,-3.3561,-3.3561,-3.3182,-3.2659,-3.2502,0.0,0.0,0.0,0.0,-3.4241,-3.4241,-3.4868,-3.5495,-3.5495,-3.5926,-3.6332,-3.6332,-3.6332,-3.5913,0.0,-3.3417,-3.2646,-3.2489,-3.2019,0.0,-3.198,-3.2555,-3.3091,-3.3535,-3.4071,-3.4397,-3.4397,-3.4356,-3.4285,-3.4118,-3.3992,-3.3823,-3.3641,-3.3186,-3.2864,-3.2711,-3.1775,-3.0802,-2.9939,0.0,0.0,0.0,0.0,0.0,0.0,0.0,0.0,0.0,0.0,0.0,0.0,0.0,0.0,0.0,0.0,0.0,0.0,0.0,0.0,0.0,0.0,0.0,0.0,0.0,0.0,0.0,0.0,0.0,-3.1192,-3.1343,0.0,0.0,0.0,0.0,-3.3691,-3.4301,-3.5154,-3.6361,-3.697,-3.7594,-3.826,-3.94,-4.0024,-4.0051,-4.0648,-4.0933,-4.0933,-4.0933,-4.0781,-4.0535,-4.0535,-4.0241,-3.9757,-3.9757,-3.958,-3.9259,-3.6998,-3.6044,-3.6018,-3.5979,-3.5966,-3.5926,-3.5926,-3.5926,-3.5926,-3.5926,-3.5926,-3.5926,-3.5926,-3.5561,-3.5012,-3.4437,-3.4672,0.0,0.0,-3.5534,-3.5979,-3.5979,-3.6018,-3.6057,-3.6057,-3.6515,-3.6959,-3.6959,-3.6959,-3.6763,0.0,-3.5508,-3.4946,-3.4371,0.0,-3.3273,-3.2738,-3.3156,-3.3561,-3.3587,-3.4071,-3.4397,-3.4397,-3.4243,-3.4118,-3.4118,-3.3696,-3.3441,-3.3441,-3.3215,-3.2835,-3.2282,-3.2164,-3.1555,-3.0291,-2.9642,0.0,0.0,0.0,0.0,0.0,0.0,0.0,0.0,0.0,0.0,0.0,0.0,0.0,0.0,0.0,0.0,0.0,0.0,0.0,0.0,0.0,0.0,0.0,0.0,0.0,0.0,0.0,0.0,-3.2526,-3.2855,0.0,-3.4122,-3.4543,-3.5018,-3.5601,-3.6578,-3.7282,-3.7745,-3.8708,-3.9346,-3.9549,-4.035,-4.0784,-4.0784,-4.1001,-4.1017,-4.0863,-4.0863,-4.071,-4.0428,-4.0273,-4.0071,-3.9881,-3.9764,-3.9695,-3.9547,-3.871,-3.7926,-3.722,-3.6828,-3.6449,-3.6109,-3.6109,-3.6109,-3.6109,-3.6109,-3.6109,-3.6109,-3.6109,-3.5966,-3.577,-3.5561,-3.5639,-3.5809,-3.5809,-3.5953,-3.6109,-3.6109,-3.6397,-3.6684,-3.6684,-3.7142,-3.7586,-3.7586,-3.7586,-3.7521,-3.7299,-3.6488,-3.5744,-3.5534,-3.5051,-3.4737,-3.4868,-3.4637,-3.4604,-3.4981,-3.5016,-3.5045,-3.5045,-3.468,-3.4332,-3.419,-3.3687,-3.3356,-3.324,-3.3154,-3.298,-3.278,-3.2416,-3.1872,-3.1136,-2.9751,-2.846,0.0,0.0,0.0,0.0,0.0,0.0,0.0,0.0,0.0,0.0,0.0,0.0,0.0,0.0,0.0,0.0,0.0,0.0,0.0,0.0,0.0,0.0,0.0,0.0,0.0,0.0,-3.2104,-3.3714,-3.419,-3.475,-3.5629,-3.6062,-3.6659,-3.7446,-3.8347,-3.903,-3.9438,-4.0686,-4.1328,-4.1235,-4.193,-4.2269,-4.2173,-4.1889,-4.1624,-4.1467,-4.1252,-4.1015,-4.0789,-4.0584,-4.0474,-4.0342,-4.0223,-4.0187,-4.0174,-3.9965,-3.9429,-3.8697,-3.8109,-3.7639,-3.726,-3.705,-3.6985,-3.6959,-3.6776,-3.6711,-3.6711,-3.6711,-3.6711,-3.6711,-3.6711,-3.6711,-3.6711,-3.6711,-3.6711,-3.6711,-3.6711,-3.6998,-3.7312,-3.7312,-3.7612,-3.79,-3.79,-3.79,-3.79,-3.79,-3.726,-3.6645,-3.6449,-3.6109,-3.5926,-3.6083,-3.5578,-3.5326,-3.5771,-3.5589,-3.5398,-3.5398,-3.5021,-3.4627,-3.4248,-3.3806,-3.3429,-3.3136,-3.3124,-3.3124,-3.3124,-3.2704,-3.2217,-3.1589,-2.9634,-2.835,-2.7785,0.0,0.0,0.0,0.0,0.0,0.0,0.0,0.0,0.0,0.0,0.0,0.0,0.0,0.0,0.0,0.0,0.0,0.0,0.0,0.0,0.0,0.0,0.0,-3.0153,-3.0884,-3.2337,-3.4832,-3.5317,-3.6006,-3.7404,-3.7582,-3.807,-3.9237,-3.9625,-4.0306,-4.1526,-4.294,-4.3635,-4.3376,-4.4252,-4.4563,-4.4208,-4.3405,-4.3024,-4.3011,-4.2412,-4.1984,-4.1723,-4.1723,-4.1574,-4.1311,-4.1311,-4.1311,-4.1272,-4.0684,-4.0448,-4.0383,-3.9834,-3.9612,-3.9534,-3.8945,-3.8723,-3.8645,-3.8109,-3.7913,-3.79,-3.79,-3.79,-3.79,-3.79,-3.79,-3.79,-3.79,-3.79,-3.79,-3.79,-3.79,-3.79,-3.79,-3.79,-3.79,-3.79,-3.79,-3.79,-3.79,-3.79,-3.7717,-3.7129,-3.7037,-3.6828,-3.624,-3.5968,0.0,-3.583,-3.5583,-3.5449,-3.5449,-3.5226,-3.4895,-3.428,-3.4042,-3.3671,-3.3174,-3.3124,-3.3124,-3.3124,-3.3081,-3.2603,-3.1601,-2.9443,-2.8305,-2.8207,0.0,0.0,0.0,0.0,0.0,0.0,0.0,0.0,0.0,0.0,0.0,0.0,0.0,0.0,0.0,0.0,0.0,0.0,0.0,0.0,0.0,-3.0163,-3.0895,-3.1275,-3.2791,-3.431,-3.5578,-3.6308,-3.7169,-3.8312,-3.8819,-3.9467,-4.0368,-4.1505,-4.2532,-4.3351,-4.4149,-4.4678,-4.4891,-4.4788,-4.4563,-4.4208,-4.3806,-4.3457,-4.329,-4.3118,-4.2675,-4.2077,-4.2077,-4.1804,-4.1311,-4.1311,-4.1311,-4.1311,-4.1141,-4.1076,-4.0971,-3.9991,-3.9612,-3.9586,-3.9416,-3.9089,-3.8697,-3.854,-3.824,-3.79,-3.79,-3.79,-3.79,-3.79,-3.79,-3.79,-3.79,-3.79,-3.79,-3.79,-3.79,-3.79,-3.79,-3.79,-3.79,-3.79,-3.79,-3.79,-3.79,-3.79,-3.7848,-3.7691,-3.7652,-3.7599,-3.7429,-3.7026,0.0,-3.6752,-3.637,-3.6138,-3.6138,-3.5693,-3.5311,-3.5148,-3.4361,-3.3834,-3.3684,-3.3307,-3.3124,-3.3124,-3.2896,-3.2105,-3.0608,-2.932,-2.854,0.0,0.0,0.0,0.0,0.0,0.0,0.0,0.0,0.0,0.0,0.0,0.0,0.0,0.0,0.0,0.0,0.0,0.0,0.0,0.0,0.0,0.0,-3.1378,-3.228,-3.2789,-3.3906,-3.5059,-3.6231,-3.7072,-3.816,-3.9571,-4.0131,-4.0816,-4.1914,-4.2988,-4.3913,-4.4734,-4.5529,-4.597,-4.6023,-4.5733,-4.5346,-4.4791,-4.4135,-4.3742,-4.3625,-4.3336,-4.2995,-4.2526,-4.2526,-4.2343,-4.2017,-4.1768,-4.1677,-4.1651,-4.1415,-4.1311,0.0,0.0,0.0,0.0,0.0,-3.9586,-3.905,-3.8802,-3.8501,-3.8214,-3.7978,-3.79,-3.79,-3.79,-3.79,-3.79,-3.79,-3.79,-3.79,-3.79,-3.79,-3.79,-3.79,-3.79,-3.79,-3.79,-3.79,-3.79,-3.79,-3.79,0.0,-3.79,-3.79,-3.7854,-3.7749,-3.7366,-3.7062,-3.6956,-3.664,-3.6405,-3.6405,-3.6081,-3.5793,-3.552,-3.4919,0.0,0.0,0.0,-3.3727,-3.3627,-3.3185,0.0,0.0,0.0,0.0,0.0,0.0,0.0,0.0,-2.7847,-2.7976,0.0,0.0,0.0,0.0,0.0,0.0,0.0,0.0,0.0,0.0,0.0,0.0,0.0,0.0,0.0,0.0,-3.2581,-3.3809,-3.441,-3.4596,-3.521,-3.6817,-3.7732,-3.8966,-4.0869,-4.1332,-4.2102,-4.3539,-4.4191,-4.4972,-4.5954,0.0,0.0,0.0,0.0,-4.648,-4.5649,-4.4599,-4.4017,-4.3964,-4.3454,-4.318,-4.3114,-4.3114,-4.3075,-4.2984,-4.2409,-4.2211,-4.2172,-4.1546,-4.1311,-4.1311,-4.1311,-4.1311,-4.1259,-4.071,-4.0174,-3.9625,-3.9024,0.0,0.0,-3.8083,-3.79,-3.79,-3.79,-3.79,-3.79,-3.79,-3.79,-3.79,-3.79,-3.79,-3.79,-3.79,-3.79,-3.79,-3.79,-3.79,-3.79,-3.79,-3.79,-3.79,-3.7854,-3.7854,-3.7808,-3.7551,-3.7261,-3.7015,-3.6709,-3.6546,-3.6405,-3.6405,0.0,0.0,-3.5633,-3.5533,-3.5295,-3.4806,-3.4705,-3.4532,-3.4214,-3.3526,-3.2735,-3.1881,-3.0912,-3.0165,-2.9681,-2.9484,-2.9442,-2.9555,-2.8849,-2.8977,0.0,0.0,0.0,0.0,0.0,0.0,0.0,0.0,0.0,0.0,0.0,0.0,0.0,0.0,0.0,-3.2534,-3.3244,-3.3953,-3.4986,-3.568,-3.6435,-3.7443,-3.8455,-3.9724,-4.1413,-4.2388,-4.3381,-4.4556,-4.5896,-4.6949,-4.7704,-4.8188,-4.8441,-4.8496,-4.7629,-4.6807,-4.5914,-4.5275,-4.4794,-4.4565,0.0,0.0,-4.3716,-4.3716,-4.3454,-4.2984,-4.2409,-4.2211,-4.2172,-4.1546,-4.1311,-4.1311,-4.1311,-4.1311,-4.1298,-4.118,-4.0762,-4.0187,-3.9625,-3.9115,-3.8619,-3.8083,-3.79,-3.79,-3.79,-3.79,0.0,-3.79,-3.79,-3.79,-3.79,-3.79,-3.79,-3.79,-3.79,-3.79,-3.79,-3.79,-3.79,-3.79,-3.79,-3.7854,-3.7598,-3.7762,-3.7808,-3.7551,-3.7261,-3.7015,-3.6709,-3.6546,-3.6405,-3.6405,-3.6405,-3.6367,-3.6267,-3.5805,-3.5458,-3.5345,-3.4736,-3.4168,-3.3756,-3.2992,-3.2125,-3.1144,-3.0322,-2.9882,-2.9683,-2.9455,-2.9719,-3.0465,-3.0112,-3.0118,0.0,0.0,0.0,0.0,0.0,0.0,0.0,0.0,0.0,0.0,0.0,-2.8718,-2.8946,0.0,-3.2179,-3.3436,-3.4116,-3.4842,-3.5992,-3.6617,-3.7171,-3.7802,-3.9183,-4.0717,-4.2331,-4.3485,-4.4689,-4.6151,-4.708,-4.792,-4.8781,-4.9134,-4.9174,-4.893,-4.8078,-4.7091,-4.6007,-4.5448,-4.5018,-4.4668,-4.4668,-4.4578,-4.4304,-4.4304,-4.4147,-4.3846,-4.3271,-4.2853,-4.2526,-4.1677,-4.1311,-4.1311,-4.1311,-4.1311,-4.1311,-4.1311,-4.1128,-4.0749,-3.9899,-3.9416,-3.9024,-3.8174,-3.79,-3.79,-3.79,-3.79,-3.79,-3.79,-3.79,-3.79,-3.79,-3.79,-3.79,-3.79,-3.79,-3.79,-3.79,-3.79,-3.79,-3.79,-3.79,-3.7828,-3.7533,-3.759,-3.7562,-3.7168,-3.6968,-3.6815,-3.6581,-3.6452,-3.6405,-3.6405,-3.6405,-3.6405,-3.6405,-3.6107,-3.5884,-3.5787,-3.523,-3.4659,-3.4014,-3.3243,-3.2305,-3.1276,-3.06,-3.0164,-2.9848,-2.9927,-3.0214,-3.0725,-3.1042,-3.1202,0.0,0.0,0.0,0.0,0.0,0.0,0.0,0.0,-2.2702,-2.3598,-2.6903,-2.9704,-2.9794,-3.1481,-3.3157,-3.404,-3.4907,-3.5822,-3.6854,-3.7279,-3.7688,-3.831,-3.9939,-4.1635,-4.3225,-4.4428,-4.583,-4.7599,-4.803,-4.8609,-4.9565,-4.9897,-4.9783,-4.9128,-4.8503,-4.7541,-4.6284,-4.5662,-4.518,-4.4789,-4.4735,-4.4668,-4.4668,-4.4668,-4.4668,-4.4642,-4.4003,-4.3323,-4.2618,-4.169,-4.1311,-4.1311,-4.1311,-4.1311,-4.1311,-4.1311,-4.1311,-4.1154,-4.0004,-3.9612,-3.9416,-3.8279,-3.79,-3.79,-3.79,-3.79,-3.79,-3.79,-3.79,-3.79,-3.79,-3.79,-3.79,-3.79,-3.79,-3.79,-3.79,-3.79,-3.79,-3.79,-3.79,-3.7782,-3.7494,-3.7418,-3.7275,-3.6781,-3.6709,-3.6628,-3.6452,-3.6405,-3.6405,-3.6405,-3.6405,-3.6405,-3.6405,-3.6405,-3.6273,-3.5949,-3.5625,-3.5063,-3.4221,-3.3389,-3.2469,-3.1458,-3.0949,-3.0538,-3.016,-3.0498,-3.0797,-3.0962,-3.1678,-3.1988,-1.499,-1.6694,-1.8499,-1.9357,-2.0992,-2.2485,0.0,0.0,-2.5367,-2.5207,-2.8048,-3.0573,-3.0558,-3.2302,-3.3915,-3.4451,-3.5349,-3.624,-3.692,-3.7387,-3.8104,-3.9264,-4.0671,-4.2061,-4.343,-4.4979,-4.6544,-4.8089,-4.8776,-4.9418,-5.0105,-5.05,-5.0463,-4.999,-4.9192,-4.8294,-4.7198,-4.6337,-4.5649,-4.5126,-4.4843,-4.4668,-4.4668,-4.4668,-4.4668,-4.467,-4.3585,-4.25,-4.1494,-4.1363,-4.1311,-4.1311,-4.1311,-4.1311,-4.1311,-4.1311,-4.1311,-4.1154,-4.0004,-3.9612,-3.9416,-3.8279,-3.79,-3.79,-3.79,-3.79,-3.79,-3.79,-3.79,-3.79,-3.79,-3.79,-3.79,-3.79,-3.79,-3.79,-3.79,-3.79,-3.79,-3.79,-3.79,-3.7749,-3.7248,-3.7121,-3.7028,-3.6718,-3.6696,-3.6628,-3.6452,-3.6405,-3.6405,-3.6405,-3.6405,-3.6405,-3.6405,-3.6405,-3.6168,-3.5692,-3.5187,-3.4422,-3.3353,-3.2588,-3.1724,-3.092,-3.0596,-3.0517,-3.0622,-3.0684,-3.1086,-3.1853,-3.1936,-3.1988,-1.604,-1.7557,-1.9021,0.0,-2.1603,-2.3042,-2.3733,-2.4923,-2.6016,-2.642,-2.8887,-3.1197,-3.1904,-3.3177,-3.4393,0.0,-3.6033,-3.6841,-3.7442,-3.7915,-3.8564,-3.9489,-4.1371,-4.2953,-4.3906,-4.5224,-4.6809,-4.873,-4.9149,-4.9718,-5.0704,-5.0956,-5.0837,-5.0342,-4.9537,-4.8617,-4.7503,-4.6467,-4.5755,-4.518,-4.4843,-4.4668,-4.4668,-4.4382,-4.4055,-4.3689,-4.2879,-4.2252,-4.1794,-4.1442,-4.1311,-4.1311,-4.1311,-4.1311,-4.1311,-4.1311,-4.1311,-4.1193,-4.0357,-3.9873,-3.9468,-3.8645,-3.8161,-3.79,-3.79,-3.79,-3.79,-3.79,-3.79,-3.79,-3.79,-3.79,-3.79,-3.79,-3.79,-3.79,-3.79,-3.79,-3.79,-3.79,-3.79,-3.7782,-3.7381,-3.7201,-3.7007,-3.6718,-3.6602,-3.6499,-3.6405,-3.6405,-3.6405,-3.6405,-3.6405,-3.6405,-3.6405,-3.6231,-3.5957,-3.5391,-3.4722,-3.3846,-3.2785,-3.2101,-3.1376,-3.0578,-3.0474,-3.0485,-3.0696,-3.0965,-3.1399,-3.1988,-3.2256,-3.239,-1.6901,0.0,0.0,-2.0837,-2.2279,-2.3585,-2.4476,-2.5415,-2.6299,-2.7129,-2.9183,-3.1297,-3.2876,-3.3928,-3.4793,-3.5662,-3.6616,-3.7403,-3.7848,-3.8298,-3.8957,-3.9823,-4.1773,-4.343,-4.4527,-4.5676,-4.7106,-4.888,-4.9209,-4.9763,-5.0885,-5.1124,-5.1026,-5.0581,-4.9878,-4.8951,-4.7883,-4.678,-4.5914,-4.5287,-4.4897,-4.4643,-4.4474,-4.3899,-4.3323,-4.2762,-4.2343,-4.2133,-4.1899,-4.1481,-4.1311,-4.1311,-4.1311,-4.1311,-4.1311,-4.1311,-4.1311,-4.1219,-4.0618,-4.0056,-3.9507,-3.8906,-3.8344,-3.79,-3.79,-3.79,-3.79,-3.79,-3.79,-3.79,-3.79,-3.79,-3.79,-3.79,-3.79,-3.79,-3.79,-3.79,-3.79,-3.79,-3.79,-3.7782,-3.7461,-3.7248,-3.7007,-3.6649,-3.6487,-3.6405,-3.6405,-3.6405,-3.6405,-3.6405,-3.6405,-3.637,-3.6288,-3.6042,-3.561,-3.4896,-3.4103,-3.3209,-3.2104,-3.1538,-3.0975,-3.0287,-3.0402,-3.062,-3.0874,-3.134,-3.1785,-3.2184,-3.2514,-3.2669,0.0,0.0,-2.0236,-2.178,-2.3178,-2.4331,-2.5033,-2.5906,-2.6714,-2.7204,-2.8657,-3.0648,-3.3221,-3.4439,-3.5213,-3.5714,-3.6981,-3.7887,-3.79,-3.8298,-3.915,-4.0666,-4.1747,-4.3171,-4.5344,-4.6602,-4.7563,-4.8267,-4.8955,-4.9553,-5.0181,-5.0823,-5.1058,-5.0807,-5.0313,-4.9537,-4.8481,-4.7349,-4.6376,-4.5595,-4.5005,-4.4434,-4.3872,-4.331,-4.2735,-4.2238,-4.2224,-4.186,-4.135,-4.1324,-4.1311,-4.1311,-4.1311,-4.1311,-4.1311,-4.1311,-4.1311,-4.1219,-4.0618,-4.0056,-3.9507,-3.8906,-3.8344,-3.79,-3.79,-3.79,-3.79,-3.79,-3.79,-3.79,-3.79,-3.79,-3.79,-3.79,-3.79,-3.79,-3.79,-3.79,-3.79,-3.79,-3.79,-3.7749,-3.7201,-3.7121,-3.6922,-3.6499,-3.6405,-3.6405,-3.6405,-3.6405,-3.6405,-3.6405,-3.6405,-3.6288,-3.6005,-3.5755,-3.5151,-3.4089,-3.3285,-3.2381,-3.1292,-3.0713,-3.0297,-3.0005,-3.0439,-3.0949,-3.136,-3.1805,-3.2204,-3.2659,-3.2669,-3.2669,-1.795,0.0,-2.0984,-2.197,-2.3365,-2.4631,-2.5095,-2.5928,-2.6573,-2.6387,-2.8362,-3.0795,-3.3232,-3.4612,-3.5506,-3.5934,-3.7371,-3.8436,-3.8436,-3.9183,-4.0185,-4.1369,-4.2721,0.0,-4.5447,-4.6245,0.0,-4.8865,-4.9179,-4.9748,-5.0825,-5.1094,-5.1167,-5.1058,-5.0456,-4.9669,-4.8724,-4.7438,-4.6428,-4.5595,-4.4611,-4.3859,-4.3284,-4.2709,-4.2134,-4.1598,-4.1598,-4.1494,-4.1311,-4.1311,-4.1311,-4.1311,-4.1311,-4.1311,-4.1311,-4.1311,-4.1311,-4.1285,-4.1089,-4.0396,-3.9573,-3.9377,-3.8671,-3.79,-3.79,-3.79,-3.79,-3.79,-3.79,-3.79,-3.79,-3.79,-3.79,-3.79,-3.79,-3.79,-3.79,-3.79,-3.79,-3.79,-3.7762,-3.7564,-3.7413,-3.7062,-3.6722,-3.6452,-3.6405,-3.6405,-3.6405,-3.6405,-3.6405,-3.6405,-3.6253,-3.6053,-3.5755,-3.5175,-3.4649,-3.4283,-3.3322,-3.2542,-3.2135,-3.1635,-3.1218,-3.0915,-3.106,-3.136,-3.1816,-3.1915,-3.2225,-3.2669,-3.2669,-3.2669,-1.8682,-2.0226,-2.1796,-2.2694,-2.3937,-2.5094,-2.548,-2.6043,-2.6395,-2.6251,-2.8122,-3.0506,-3.2832,-3.4341,-3.5394,-3.5983,-3.7573,-3.871,-3.8838,-3.9773,-4.0917,-4.2141,-4.3704,-4.5136,0.0,0.0,0.0,-4.888,-4.9179,-4.9733,-5.081,-5.1094,-5.1214,-5.1214,-5.0471,-4.9654,-4.8795,-4.7475,-4.6215,-4.4957,-4.4058,-4.3271,-4.2696,-4.2121,-4.1664,-4.1311,-4.1311,-4.1311,-4.1311,-4.1311,-4.1311,-4.1311,-4.1311,-4.1311,-4.1311,-4.1311,-4.1311,-4.1311,-4.1311,-4.0697,-3.986,-3.9677,-3.8972,-3.8161,-3.7965,-3.79,-3.79,-3.79,-3.79,-3.79,-3.79,-3.79,-3.79,-3.79,-3.79,-3.79,-3.79,-3.7808,-3.7762,-3.7762,-3.7551,-3.7307,-3.7214,-3.6875,-3.6534,-3.6405,-3.6405,-3.6405,-3.6405,-3.6405,-3.6405,-3.6405,-3.6158,-3.5801,-3.5332,-3.4722,-3.419,-3.3817,-3.2963,-3.2467,-3.2297,-3.1895,-3.1589,-3.1381,-3.1536,-3.1754,-3.1988,-3.2153,-3.239,-3.2669,-3.2669,-3.2669,-1.9563,-2.1128,-2.2571,-2.3888,-2.4883,-2.5662,-2.6088,-2.6199,-2.6326,-2.6766,-2.7985,-2.9741,-3.2089,0.0,-3.4955,-3.5931,-3.7599,-3.8843,-3.911,-4.0121,-4.1428,0.0,0.0,0.0,0.0,0.0,0.0,-4.8431,0.0,-4.9598,-5.0211,-5.0823,-5.1167,-5.1167,-5.0471,-4.964,-4.8752,-4.7341,-4.5735,-4.382,-4.3258,-4.2696,-4.2198,-4.1585,-4.1311,-4.1311,-4.1311,-4.1311,-4.1311,-4.1311,-4.1311,-4.1311,-4.1311,-4.1311,-4.1311,-4.1311,-4.1261,-4.1261,-4.1261,-4.0869,-4.0331,-3.9782,-3.9207,-3.8606,-3.807,-3.79,-3.79,-3.79,-3.79,-3.79,-3.79,-3.79,-3.79,-3.79,-3.7854,-3.7854,-3.7854,-3.7657,-3.7459,-3.7459,-3.7261,-3.7015,-3.6722,-3.6534,-3.6405,-3.6405,-3.6405,-3.6405,-3.6405,-3.6405,-3.6405,-3.6405,-3.6146,-3.5681,-3.4859,-3.4449,-3.3839,-3.2823,-3.2426,-3.2101,-3.186,-3.1608,-3.1443,-3.1443,-3.1857,-3.2019,-3.2019,-3.2463,-3.2669,-3.2669,-3.2669,-3.2669,-2.0118,-2.1748,-2.3311,-2.42,-2.5192,-2.5974,-2.616,-2.6354,-2.6655,-2.7288,-2.8374,-2.9943,-3.2347,-3.3911,0.0,-3.5961,-3.8123,0.0,-3.9744,-4.1355,0.0,-4.4564,0.0,-4.7024,-4.8414,-4.9014,0.0,0.0,-4.9898,-5.0272,-5.0883,-5.1124,-5.112,-5.0917,-5.0361,-4.9402,-4.7935,-4.5696,-4.4145,-4.3232,-4.2657,-4.2304,-4.2198,-4.1585,-4.1311,-4.1311,-4.1311,-4.1311,-4.1311,-4.1311,-4.1311,-4.1311,-4.1311,-4.1311,-4.1311,-4.1311,-4.1147,-4.0997,-4.0997,-4.0757,-4.0331,-3.9782,-3.9207,-3.8606,-3.807,-3.79,-3.79,-3.79,-3.79,-3.79,-3.79,-3.79,-3.7854,-3.7657,-3.7598,-3.7551,-3.7353,-3.7261,-3.7201,-3.7201,-3.6968,-3.6722,-3.6499,-3.6452,-3.6405,-3.6405,-3.6405,-3.6405,-3.6405,-3.6405,-3.6405,-3.6405,-3.5991,-3.5526,-3.5055,-3.4194,-3.363,-3.3539,-3.2767,-3.2503,-3.2815,-3.2554,-3.2385,-3.2385,-3.2499,-3.2494,-3.2494,-3.2618,-3.2669,-3.2669,-3.2669,-3.2669,-2.1103,-2.2636,-2.4098,-2.4907,-2.5806,-2.6447,-2.6494,-2.6757,-2.7115,-2.7603,-2.8466,0.0,-3.2003,-3.3276,0.0,0.0,0.0,0.0,-4.0576,-4.2324,-4.4107,0.0,-4.6827,0.0,-4.9202,-4.982,-5.0272,0.0,-5.036,-5.048,-5.1184,-5.1214,-5.1026,-5.0695,-4.9794,-4.8313,-4.6162,-4.4509,-4.3306,-4.2644,-4.2317,-4.2081,-4.1781,-4.1455,-4.1311,-4.1311,0.0,-4.1311,-4.1311,-4.1311,-4.1211,-4.1097,-4.1097,-4.1047,-4.0959,-4.0959,-4.0858,-4.0744,-4.0744,-4.0588,-4.0324,-3.9508,-3.9016,-3.8575,-3.7787,-3.7533,-3.7551,-3.7551,-3.7551,-3.7551,-3.7551,-3.7551,-3.7505,-3.7353,-3.7307,-3.7261,-3.7108,-3.7015,-3.6922,-3.6828,-3.6675,-3.6534,-3.6405,-3.6405,-3.6405,-3.6405,-3.6405,-3.6405,-3.6405,-3.6405,-3.6405,-3.6405,-3.5895,-3.543,-3.4984,-3.4125,-3.3557,-3.342,-3.2836,-3.2684,-3.2955,-3.2794,-3.2669,-3.2669,-3.2669,-3.2669,-3.2669,-3.2669,-3.2669,-3.2669,-3.2669,-3.2669,-2.2289,-2.3631,-2.479,-2.5728,-2.6477,-2.6933,-2.6933,-2.7249,-2.7632,-2.7891,0.0,-2.9528,-3.1394,-3.2461,-3.376,-3.6032,0.0,-3.9732,-4.1329,-4.3004,-4.471,-4.6515,-4.7821,-4.896,-4.9978,-5.0745,-5.1214,-5.1214,-5.0644,-5.0569,-5.1184,-5.1167,-5.0855,-5.0176,-4.8712,-4.668,-4.4202,-4.3562,-4.2861,-4.2107,-4.2107,-4.1794,-4.1311,-4.1311,-4.1311,-4.1311,-4.1311,-4.1261,-4.1261,-4.1261,-4.1097,-4.0833,-4.0833,-4.0694,-4.0504,-4.0504,-4.0453,-4.0453,-4.0453,-4.0402,-4.021,-3.9158,-3.88,-3.8569,-3.7449,-3.7086,-3.7074,-3.7074,-3.7121,-3.7108,-3.7108,-3.7108,-3.7108,-3.7062,-3.7062,-3.7062,-3.7015,-3.6815,-3.6628,-3.6452,-3.6405,-3.6405,-3.6405,-3.6405,-3.6405,-3.6405,-3.6405,-3.6405,-3.6405,-3.6405,-3.6405,-3.6405,-3.5895,-3.5381,-3.4784,-3.4181,-3.359,-3.2991,-3.2864,-3.2727,-3.2669,-3.2669,-3.2669,-3.2669,-3.2669,-3.2669,-3.2669,-3.2669,-3.2669,-3.2669,-3.2669,-3.2669,-2.3335,-2.4421,-2.5234,-2.6177,-2.6771,-2.7138,-2.7156,-2.7493,0.0,0.0,-2.8969,-2.9702,-3.1267,-3.2671,-3.4052,-3.5521,0.0,0.0,0.0,0.0,-4.5257,0.0,0.0,0.0,0.0,0.0,0.0,0.0,-5.1109,-5.1094,-5.1214,-5.1011,-5.0143,-4.8494,-4.6369,-4.4704,-4.3583,-4.2552,-4.181,-4.1468,-4.1468,-4.1415,-4.1311,-4.1311,-4.1311,-4.1311,-4.1311,0.0,-4.0997,-4.0997,-4.0795,-4.0555,-4.0555,-4.0555,-4.0504,-4.0504,-4.0351,-4.0185,-4.0185,-4.0032,-3.9701,-3.9011,-3.8779,-3.8615,-3.7471,-3.7113,-3.7105,-3.7105,-3.7113,-3.7108,-3.7108,-3.7108,-3.7062,-3.6815,-3.6769,-3.6722,-3.6546,-3.6499,-3.6452,-3.6405,-3.6405,-3.6405,-3.6405,-3.6405,-3.6405,-3.6405,-3.6405,-3.6405,-3.6405,-3.6405,-3.6405,-3.6405,-3.5895,-3.543,-3.5085,-3.4492,-3.3899,-3.3255,-3.3145,-3.2965,-3.2727,-3.2669,-3.2669,-3.2669,-3.2669,-3.2669,-3.2669,-3.2669,-3.2669,-3.2669,-3.2669,-3.2669,-2.4269,-2.4997,-2.5537,-2.6725,-2.7186,-2.7371,-2.7534,0.0,0.0,0.0,-2.9499,-3.0254,-3.1435,0.0,0.0,0.0,0.0,0.0,0.0,0.0,0.0,0.0,0.0,0.0,0.0,0.0,-5.1214,-5.1214,-5.1058,-5.1011,-5.1011,-4.9927,-4.8423,-4.65,-4.4843,-4.3521,-4.2518,-4.1842,-4.1411,-4.1311,-4.1311,-4.1311,-4.1311,-4.1311,-4.1211,-4.1097,-4.1097,-4.0946,-4.0694,-4.0694,-4.0542,-4.0287,-4.0287,-4.0198,-4.0096,-4.0096,-3.9993,-3.989,-3.989,-3.9788,-3.961,-3.9019,-3.8651,-3.8197,-3.708,-3.6738,-3.6738,-3.6738,-3.676,-3.6734,-3.6734,-3.6734,-3.6687,-3.6581,-3.6534,-3.6546,-3.6405,-3.6405,-3.6405,-3.6405,-3.6405,-3.6405,-3.6405,-3.6405,-3.6405,-3.6405,-3.6405,-3.6405,-3.6405,-3.6405,-3.6405,-3.6405,-3.6038,-3.5672,-3.5334,-3.4546,-3.3926,-3.3715,-3.3114,-3.2818,-3.2955,-3.2784,-3.2669,-3.2669,-3.2669,-3.2669,-3.2669,-3.2669,-3.2669,-3.2669,-3.2669,-3.2669,-2.5072,-2.5568,-2.5965,-2.7261,-2.7574,-2.7655,-2.803,-2.8669,0.0,0.0,-3.005,-3.0712,-3.1523,0.0,-3.4149,0.0,0.0,0.0,0.0,0.0,0.0,0.0,0.0,0.0,0.0,0.0,0.0,-5.112,-5.0594,-5.0316,-5.0316,-4.8533,-4.6696,-4.4878,-4.3781,-4.2707,-4.1696,-4.1411,-4.1311,-4.1311,-4.1311,-4.1261,-4.1211,-4.1211,-4.1047,-4.0795,-4.0795,-4.0643,-4.0389,-4.0389,-4.0236,-4.0032,-4.0032,-3.989,-3.9697,-3.9697,-3.9697,-3.9697,-3.9697,-3.9697,-3.9609,-3.9081,-3.8479,-3.7826,-3.6835,-3.6505,-3.6405,-3.6405,-3.6405,-3.6405,-3.6405,-3.6405,-3.6405,-3.6405,-3.6405,-3.6405,-3.6405,-3.6405,-3.6405,-3.6405,-3.6405,-3.6405,-3.6405,-3.6405,-3.6405,-3.6405,-3.6405,-3.6405,-3.6405,-3.6405,-3.6405,-3.6405,-3.6146,-3.5828,-3.5487,-3.4609,-3.4045,-3.3883,-3.3049,-3.2748,-3.3025,-3.2789,-3.2669,-3.2669,-3.2669,-3.2669,-3.2669,-3.2669,-3.2669,-3.2669,-3.2669,-3.2669,-2.5635,-2.6182,-2.665,-2.7619,-2.7841,-2.8002,-2.8566,0.0,0.0,-3.0165,-3.047,-3.0748,-3.1264,-3.3062,-3.4708,-3.5427,0.0,0.0,0.0,0.0,0.0,0.0,0.0,0.0,0.0,0.0,0.0,-5.0855,-4.9453,-4.8606,-4.8606,-4.6914,-4.5408,-4.4309,-4.3155,-4.2306,-4.1696,-4.1411,-4.1311,-4.1311,-4.1311,-4.1161,-4.0933,-4.0933,-4.0795,-4.0555,-4.0555,-4.0389,0.0,-4.0134,-3.9981,-3.9736,-3.9736,-3.9749,-3.9697,-3.9697,-3.9697,-3.9697,-3.9697,-3.9697,-3.9595,-3.9088,-3.8466,-3.7889,-3.7287,-3.6807,-3.6405,-3.6405,-3.6405,-3.6405,-3.6405,-3.6405,-3.6405,-3.6405,-3.6405,-3.6405,-3.6405,-3.6405,-3.6405,-3.6405,-3.6405,-3.6405,-3.6405,-3.6405,-3.6405,-3.6405,-3.6405,-3.6405,-3.6405,-3.6405,-3.6405,-3.6405,-3.6146,-3.5789,-3.5284,-3.4871,-3.4208,-3.3231,-3.3236,-3.2978,-3.2476,-3.2612,-3.2669,-3.2669,-3.2669,-3.2669,-3.2669,-3.2669,-3.2669,-3.2669,-3.2669,-3.2669,-2.6089,-2.6605,-2.7163,-2.8412,-2.8509,-2.8515,-2.9457,0.0,-2.9985,-3.0495,-3.0723,-3.0973,-3.1283,-3.2836,-3.4451,-3.5742,-3.783,-3.9973,-4.1922,0.0,0.0,0.0,0.0,0.0,0.0,0.0,-4.9757,-4.9136,-4.7855,-4.6698,-4.5909,-4.5177,-4.4214,-4.2981,-4.236,-4.1858,-4.1461,-4.1361,-4.1311,-4.1311,-4.1147,-4.0997,-4.0883,-4.0744,-4.0491,-4.0236,-4.0236,-4.0083,0.0,-3.9839,-3.9788,-3.9697,-3.9697,-3.9697,-3.9697,-3.9697,-3.9697,-3.9697,-3.9697,-3.9697,-3.9672,-3.9442,-3.8993,-3.839,-3.7489,-3.705,-3.6784,-3.6505,-3.6405,-3.6405,-3.6405,-3.6405,-3.6405,-3.6405,-3.6405,-3.6405,-3.6405,-3.6405,-3.6405,-3.6405,-3.6405,-3.6405,-3.6405,-3.6405,-3.6405,-3.6405,-3.6405,-3.6405,-3.6405,-3.6405,-3.6405,-3.6405,-3.6323,-3.6038,-3.5464,-3.4747,-3.4101,-3.3663,-3.2742,-3.2371,-3.267,-3.2434,-3.239,-3.2669,-3.2669,-3.2669,-3.2669,-3.2669,-3.2669,-3.2669,-3.2669,-3.2669,-2.6502,-2.7097,-2.7798,-2.8871,-2.8975,-2.9032,0.0,-3.0238,-3.0381,-3.0736,-3.0911,-3.1086,-3.1394,-3.2556,-3.4061,0.0,-3.7965,-3.9993,-4.1668,-4.3862,0.0,0.0,0.0,-4.8596,0.0,-4.9132,-4.846,-4.7497,-4.6308,-4.5065,-4.3782,-4.3543,-4.3013,-4.1993,-4.1796,-4.1547,-4.1311,-4.1311,-4.1261,-4.1161,-4.0997,-4.0833,-4.0681,-4.0491,-4.0249,-3.9981,-3.9981,-3.989,0.0,-3.9697,-3.9697,-3.9697,-3.9697,-3.9697,-3.9697,-3.9697,-3.9697,-3.9697,-3.9697,-3.9697,-3.9697,-3.9697,-3.9321,-3.8718,-3.7703,-3.7338,-3.7073,-3.6568,-3.6405,-3.6405,-3.6405,-3.6405,-3.6405,-3.6405,-3.6405,-3.6405,-3.6405,-3.6405,-3.6405,-3.6405,-3.6405,-3.6405,-3.6405,-3.6405,-3.6405,-3.6405,-3.6405,-3.6405,-3.6405,-3.6405,-3.6405,-3.6405,-3.6263,-3.5991,-3.5524,-3.4556,-3.3872,-3.3549,-3.2315,-3.1859,-3.2367,-3.2111,-3.2132,-3.2463,-3.2607,-3.2669,-3.2669,-3.2669,-3.2669,-3.2669,-3.2669,-3.2669,-2.6887,-2.7681,-2.8538,-2.8764,-2.9106,-2.9509,0.0,-3.0394,-3.0736,-3.0949,-3.0986,-3.1099,-3.1522,-3.2369,-3.3629,-3.5494,-3.8095,-4.0246,-4.1279,-4.3643,0.0,0.0,0.0,-4.8193,-4.7956,-4.7622,-4.7011,-4.6105,-4.4883,0.0,-4.2655,-4.2063,-4.1696,-4.1696,-4.1696,-4.1547,-4.1311,-4.1311,-4.1161,-4.0883,-4.0883,-4.063,-4.0121,-4.0134,-3.9981,-3.9697,-3.9697,-3.9697,0.0,-3.9697,-3.9697,-3.9697,-3.9697,-3.9697,-3.9697,-3.9697,-3.9697,-3.9697,-3.9697,-3.9697,-3.9697,-3.9697,-3.932,-3.8806,-3.8178,-3.7613,-3.7073,-3.6568,-3.6405,-3.6405,-3.6405,-3.6405,-3.6405,-3.6405,-3.6405,-3.6405,-3.6405,-3.6405,-3.6405,-3.6405,-3.6405,-3.6405,-3.6405,-3.6405,-3.6405,-3.6405,-3.6405,-3.6405,-3.6405,-3.6405,-3.6405,-3.6405,-3.5943,-3.5524,-3.5223,-3.4482,-3.3534,-3.2471,-3.2088,-3.1688,-3.1158,-3.1667,-3.1988,-3.1988,-3.2442,-3.2669,-3.2669,-3.2669,-3.2669,-3.2669,-3.2669,-3.2669,-2.7717,-2.851,-2.9466,-3.01,-3.0082,-3.0087,-3.0868,-3.0868,-3.0773,-3.0949,-3.1099,-3.131,-3.168,-3.2767,-3.4329,-3.6563,-3.8567,0.0,0.0,0.0,0.0,0.0,0.0,-4.7312,0.0,0.0,-4.5671,-4.4588,-4.3787,-4.2948,-4.2037,-4.1789,-4.1597,-4.1411,-4.1411,-4.1311,-4.1047,-4.1047,-4.0702,-4.0077,-3.989,-3.9472,-3.8941,-3.8729,-3.863,-3.8542,-3.8542,-3.8542,-3.8542,-3.8542,-3.8542,-3.8542,-3.8542,-3.8542,-3.8542,-3.8542,-3.8542,-3.8542,-3.8542,-3.8542,-3.8542,-3.8542,-3.8417,-3.8178,-3.7613,-3.7324,-3.7073,-3.6568,-3.6405,-3.6405,-3.6405,-3.6405,-3.6405,-3.6405,-3.6405,-3.6405,-3.6405,-3.6405,-3.6405,-3.6405,-3.6405,-3.6405,-3.6405,-3.6405,-3.6405,-3.6405,-3.6405,-3.6405,-3.6405,-3.6405,-3.6405,-3.6405,-3.5752,-3.5223,-3.4932,-3.3869,-3.2862,-3.2167,-3.1359,-3.0916,-3.1073,-3.1119,-3.1402,-3.1977,-3.2132,-3.2359,-3.2669,-3.2669,-3.2669,-3.2669,-3.2669,-3.2669,0.0,-2.9277,-3.0075,-3.0571,-3.0535,-3.0484,-3.1074,-3.0995,-3.0849,-3.0986,-3.1345,-3.1766,-3.2125,-3.3168,-3.465,-3.6648,-3.8912,0.0,0.0,0.0,0.0,0.0,0.0,0.0,0.0,-4.5093,-4.43,-4.3539,-4.2898,-4.2242,-4.1574,-4.1547,-4.1461,-4.1161,-4.1147,-4.1047,-4.0883,-4.0576,-4.0155,-3.9521,-3.9155,-3.8714,-3.8261,-3.8064,-3.8002,-3.8002,-3.8002,-3.8002,0.0,-3.8002,-3.8002,-3.8002,-3.8002,-3.8002,-3.8015,-3.8003,-3.799,-3.7988,-3.7988,-3.7988,-3.8013,-3.7977,-3.7864,-3.76,-3.7048,-3.692,-3.6857,-3.6505,-3.6405,-3.6405,-3.6405,-3.6405,-3.6405,-3.6405,-3.6405,-3.6405,-3.6405,-3.6405,-3.6405,-3.6405,-3.6405,-3.6405,-3.6405,-3.6405,-3.6405,-3.6405,-3.6405,-3.6405,-3.6405,-3.6405,-3.6405,-3.6405,-3.5596,-3.4872,-3.4519,-3.3362,-3.237,-3.1721,-3.0909,-3.0475,-3.0663,-3.0691,-3.0957,-3.1516,-3.1812,-3.2122,-3.2421,-3.2587,-3.2669,-3.2669,-3.2669,-3.2669,0.0,-3.0073,-3.0509,-3.0509,-3.0662,-3.0839,-3.0813,-3.0901,0.0,-3.0999,-3.1647,-3.2323,-3.2726,-3.3661,-3.4799,-3.6085,-3.9261,0.0,0.0,0.0,0.0,0.0,-4.5293,0.0,-4.5302,-4.3967,-4.302,-4.291,-4.2166,-4.1547,-4.1311,-4.1261,-4.1134,-4.0869,-4.0831,-4.0781,-4.0781,-3.9976,-3.9445,-3.9157,-3.8575,-3.8185,-3.7889,-3.7889,-3.7889,0.0,-3.7889,-3.7889,-3.7889,-3.7889,-3.7889,-3.7889,-3.7889,-3.7889,-3.7865,-3.7879,-3.7915,-3.7906,-3.7906,-3.7906,-3.7895,-3.7888,-3.755,-3.7023,-3.6568,-3.6405,-3.6405,-3.6405,-3.6405,-3.6405,-3.6405,-3.6405,-3.6405,-3.6405,-3.6405,-3.6405,-3.6405,-3.6405,-3.6405,-3.6405,-3.6405,-3.6405,-3.6405,-3.6405,-3.6405,-3.6405,-3.6405,-3.6405,-3.6405,-3.6405,-3.6405,-3.6405,-3.5452,-3.4617,-3.4091,-3.3001,-3.2015,-3.123,-3.0661,-3.0245,-2.9994,-3.0408,-3.0657,-3.0688,-3.1578,-3.2008,-3.2039,-3.2463,-3.2669,-3.2669,-3.2669,-3.2669,-3.1044,0.0,-3.1486,-3.1486,-3.185,-3.2098,0.0,-3.1563,-3.1522,0.0,0.0,-3.2513,-3.2726,-3.4607,-3.6303,-3.6933,0.0,0.0,0.0,0.0,0.0,-4.5264,-4.4494,-4.3887,-4.376,-4.2725,-4.2047,-4.2021,-4.1653,-4.1361,-4.1311,-4.111,-4.0789,-4.0298,-3.9913,-3.9675,-3.9675,-3.9052,-3.8347,-3.7686,-3.7547,-3.7258,-3.6795,-3.6795,-3.6795,-3.6795,-3.6795,-3.6795,-3.6795,-3.6795,-3.6795,-3.6795,-3.6795,-3.6795,-3.6807,-3.6762,-3.6759,-3.6779,-3.6779,-3.6779,-3.6779,-3.6782,-3.6707,-3.6581,-3.6455,-3.6405,-3.6405,-3.6405,-3.6405,-3.6405,-3.6405,-3.6405,-3.6405,-3.6405,-3.6405,-3.6405,-3.6405,-3.6405,-3.6405,-3.6405,-3.6405,-3.6405,-3.6405,-3.6405,-3.6405,-3.6405,-3.6405,-3.6405,-3.6405,-3.6405,-3.6405,-3.6405,-3.5596,-3.4872,-3.4337,-3.2762,-3.1527,-3.0931,-3.0412,-3.0047,-2.9994,-3.0098,-3.0325,-3.0677,-3.1578,-3.2163,-3.2514,-3.2628,-3.2669,-3.2669,-3.2669,-3.2669,-3.1562,-3.1797,-3.1863,-3.2124,-3.2267,-3.2215,-3.1863,0.0,0.0,0.0,0.0,0.0,-3.3517,-3.5468,0.0,0.0,-3.958,0.0,0.0,0.0,0.0,-4.412,-4.3471,-4.2957,0.0,-4.2043,-4.1647,-4.156,-4.1361,-4.1274,-4.1123,-4.075,-4.0266,-3.977,-3.8925,-3.8637,-3.8891,-3.8222,-3.7633,-3.7186,-3.6923,-3.6694,-3.6405,-3.6405,-3.6405,-3.6405,-3.6405,-3.6405,-3.6405,-3.6405,-3.6405,-3.6405,-3.6405,-3.6452,-3.6534,-3.6452,-3.6452,-3.6546,-3.6452,-3.6405,-3.6405,-3.6405,-3.6405,-3.6405,-3.6405,-3.6405,-3.6405,-3.6405,-3.6405,-3.6405,-3.6405,-3.6405,-3.6405,-3.6405,-3.6405,-3.6405,-3.6405,-3.6405,-3.6405,-3.6405,-3.6405,-3.6405,-3.6405,-3.6405,-3.6405,-3.6405,-3.6405,-3.6405,-3.6405,-3.6405,-3.6405,-3.6405,-3.5692,-3.4969,-3.4434,-3.2901,-3.168,-3.1034,-3.0453,-3.0141,-2.9994,-2.9994,-3.0212,-3.0677,-3.1381,-3.1961,-3.2359,-3.2566,-3.2669,-3.2669,-3.2669,-3.2669,-3.1758,-3.1941,-3.2071,-3.2685,-3.2529,-3.2176,0.0,0.0,0.0,0.0,0.0,0.0,0.0,0.0,0.0,0.0,0.0,0.0,-4.2624,-4.3346,-4.3471,-4.2798,-4.2533,0.0,-4.1786,-4.166,-4.1448,-4.1211,-4.1161,-4.1034,-4.0705,-4.0266,-3.9669,-3.9043,-3.8056,-3.7739,-3.8106,-3.7396,-3.7061,-3.7048,-3.6631,-3.6405,-3.6405,-3.6405,-3.6405,-3.6405,0.0,0.0,-3.6452,-3.6452,-3.6499,-3.6559,-3.6584,-3.6666,-3.6841,-3.6687,-3.6709,-3.679,-3.6534,-3.6452,-3.6405,-3.6405,-3.6405,-3.6405,-3.6405,-3.6405,-3.6405,-3.6405,-3.6405,-3.6405,-3.6405,-3.6405,-3.6405,-3.6405,-3.6405,-3.6405,-3.6405,-3.6405,-3.6405,-3.6405,-3.6405,-3.6405,-3.6405,-3.6405,-3.6405,-3.6405,-3.6405,-3.6405,-3.6405,-3.6405,-3.6405,-3.6405,-3.5704,-3.5066,-3.4495,-3.3262,-3.2167,-3.1322,-3.0703,-3.0297,-2.9994,-2.9994,-3.0212,-3.0677,-3.1071,-3.1526,-3.1988,-3.238,-3.2607,-3.2669,-3.2669,-3.2669,-3.228,-3.2555,-3.2712,-3.33,-3.3731,-3.3888,0.0,0.0,0.0,0.0,0.0,0.0,0.0,0.0,0.0,0.0,0.0,-4.1888,0.0,0.0,-4.2462,-4.2226,0.0,-4.171,-4.1424,-4.1147,-4.0896,-4.0656,-4.0605,-4.04,-3.9925,-3.9588,-3.8918,-3.7889,-3.7484,-3.7063,-3.6716,-3.6581,-3.6531,-3.6531,-3.6455,-3.6405,-3.6405,-3.6405,-3.6405,-3.6405,0.0,-3.6499,-3.6675,-3.6675,-3.6922,-3.7333,-3.7334,-3.7454,-3.7635,-3.7585,-3.7494,-3.7304,-3.6824,-3.6534,-3.6405,-3.6405,-3.6405,-3.6405,-3.6405,-3.6405,-3.6405,-3.6405,-3.6405,-3.6405,-3.6405,-3.6405,-3.6405,-3.6405,-3.6405,-3.6405,-3.6405,-3.6405,-3.6405,-3.6405,-3.6405,-3.6405,-3.6405,-3.6405,-3.6405,-3.6405,-3.6405,-3.6405,-3.6405,-3.6405,-3.6405,-3.6405,-3.5895,-3.532,-3.4775,-3.3732,-3.2633,-3.1618,-3.0806,-3.0297,-2.9994,-2.9994,-3.0212,-3.0677,-3.076,-3.1205,-3.1988,-3.205,-3.2287,-3.2669,-3.2669,-3.2669,-3.2006,-3.245,-3.2829,-3.3443,-3.3783,-3.3901,0.0,0.0,0.0,0.0,0.0,0.0,0.0,0.0,-3.7905,-3.9321,0.0,-4.1241,-4.0992,-4.1235,-4.1385,0.0,0.0,-4.0997,-4.0858,-4.0757,-4.0618,-4.0504,-4.0248,-3.989,-3.9484,-3.8765,-3.8086,-3.7409,-3.6998,-3.6636,-3.6405,-3.6405,-3.6405,-3.6405,-3.6405,-3.6405,-3.6405,-3.6405,-3.6452,-3.6581,0.0,-3.6922,-3.7155,-3.742,-3.7664,-3.7907,-3.8005,-3.8201,-3.837,-3.8381,-3.8206,-3.7815,-3.7441,-3.7095,-3.6734,-3.6628,-3.6499,-3.6405,-3.6405,-3.6405,-3.6405,-3.6405,-3.6405,-3.6405,-3.6405,-3.6405,-3.6405,-3.6405,-3.6405,-3.6405,-3.6405,-3.6405,-3.6405,-3.6405,-3.6405,-3.6405,-3.6405,-3.6405,-3.6405,-3.6405,-3.6405,-3.6405,-3.6405,-3.6405,-3.6405,-3.6405,-3.5895,-3.5307,-3.4653,-3.3621,-3.2471,-3.123,-3.0557,-3.0141,-2.9994,-2.9994,-3.0098,-3.0315,-3.0563,-3.0895,-3.1309,-3.174,-3.2091,-3.2308,-3.2556,-3.2669,-3.1641,-3.2254,-3.2829,-3.3443,0.0,-3.3809,-3.3966,0.0,0.0,0.0,0.0,0.0,0.0,-3.7395,0.0,-3.9593,-4.0177,-4.0428,-4.0222,-4.0401,-4.0541,-4.044,-4.0453,-4.0453,-4.0402,-4.0287,-4.0185,-4.0122,-3.9612,-3.9167,-3.8854,-3.7994,-3.7356,-3.7003,-3.6634,-3.6405,-3.6405,-3.6405,-3.6405,-3.6405,-3.6405,-3.6405,-3.6405,-3.6452,-3.6581,-3.6815,-3.7142,-3.7433,-3.7782,-3.8245,-3.8517,-3.8652,-3.8836,-3.9091,-3.9299,-3.9206,-3.8908,-3.8472,-3.8096,-3.7651,-3.7235,-3.6956,-3.6687,-3.6452,-3.6452,-3.6405,-3.6323,-3.6358,-3.637,-3.6323,-3.6358,-3.6405,-3.6405,-3.6405,-3.6405,-3.6405,-3.6405,-3.6405,-3.6405,-3.6405,-3.6405,-3.6405,-3.6405,-3.6405,-3.6405,-3.6405,-3.6405,-3.6405,-3.6405,-3.6405,-3.6405,-3.6405,-3.5895,-3.5163,-3.4141,-3.3051,-3.1913,-3.0776,-3.0256,-2.9994,-2.9994,-2.9994,-2.9994,-2.9994,-3.0336,-3.0584,-3.0688,-3.1495,-3.1884,-3.1998,-3.2463,-3.2669,-3.1641,-3.2254,-3.2829,-3.3443,0.0,0.0,-3.5051,0.0,0.0,0.0,0.0,0.0,0.0,-3.8153,-3.9045,-3.892,-3.9635,-4.0211,-4.0109,0.0,-4.0198,-4.0134,-4.0338,-4.0389,-4.0121,-3.969,-3.9297,-3.9032,-3.8454,-3.7901,-3.7385,-3.7252,-3.6989,-3.6458,-3.643,-3.6405,-3.6405,-3.6405,-3.6405,-3.6405,-3.6405,-3.6405,-3.6405,-3.6581,-3.6815,-3.7108,-3.7546,-3.8063,-3.8544,-3.897,-3.9414,-3.9908,-4.0083,-4.0332,-4.0519,-4.0071,-3.9763,-3.9384,-3.8756,-3.82,-3.773,-3.7492,-3.7121,-3.6675,-3.6675,-3.6358,-3.6098,-3.6323,-3.6228,-3.6098,-3.6323,-3.6405,-3.6405,-3.6405,-3.6405,-3.6405,-3.6405,-3.6405,-3.6405,-3.6405,-3.6405,-3.6405,-3.6405,-3.6405,-3.6405,-3.6405,-3.6405,-3.6405,-3.6405,-3.6405,-3.6405,-3.6405,-3.5895,-3.486,-3.3051,-3.1913,-3.1064,-3.0443,-3.0141,-2.9994,-2.9994,-2.9994,-2.9994,-2.9994,-3.0025,-3.0253,-3.0688,-3.1184,-3.164,-3.1998,-3.2463,-3.2669,-3.1641,-3.2254,0.0,0.0,0.0,0.0,0.0,0.0,0.0,0.0,0.0,0.0,0.0,0.0,-3.8861,-3.8605,-3.931,-3.9903,-3.9839,-3.9839,-3.9903,-3.9839,-3.9942,-3.9803,-3.9411,-3.9196,-3.8831,-3.8366,-3.7814,-3.74,-3.7199,-3.6897,-3.6634,-3.6417,-3.6405,-3.6405,-3.6405,-3.6405,-3.6405,-3.6405,-3.6405,-3.6452,-3.6581,-3.6828,-3.7235,-3.7802,-3.8472,-3.9011,-3.9513,-4.0085,-4.0431,-4.0631,-4.0901,-4.1057,-4.1127,-4.0944,-4.0602,-4.0243,-3.9793,-3.9118,-3.8459,-3.8272,-3.7723,-3.7168,-3.7015,-3.664,-3.6228,-3.6193,-3.6098,-3.6051,-3.6323,-3.6405,-3.6405,-3.6405,-3.6405,-3.6405,-3.6405,-3.6405,-3.6405,-3.6405,-3.6405,-3.6405,-3.6405,-3.6405,-3.6405,-3.6405,-3.6405,-3.6405,-3.6405,-3.6405,-3.6405,-3.6405,-3.5331,-3.4054,-3.2661,-3.1567,-3.0724,-3.0203,-3.0047,-2.9994,-2.9994,-2.9994,-2.9994,-2.9994,-2.9994,-3.0087,-3.0263,-3.1008,-3.1464,-3.164,-3.2385,-3.2669,-3.1577,-3.228,-3.3074,0.0,0.0,0.0,0.0,0.0,0.0,0.0,0.0,0.0,0.0,0.0,0.0,0.0,-3.9183,-3.9697,-3.9697,-3.9697,-3.9634,-3.9459,-3.9433,-3.922,-3.8655,-3.8442,-3.8178,-3.7776,-3.7236,-3.6971,-3.6971,-3.6619,-3.6405,-3.6405,-3.6405,-3.6405,-3.6405,-3.6405,-3.6452,-3.6499,-3.6562,-3.6691,-3.6862,-3.7235,-3.7789,-3.8472,-3.9278,-3.9848,-4.0283,-4.0944,-4.1269,-4.1367,-4.1564,-4.1564,-4.1465,-4.1438,-4.1128,-4.0773,-4.0416,-3.9793,-3.9087,-3.8904,-3.8317,-3.7677,-3.7307,-3.6828,-3.631,-3.6051,-3.5872,-3.5812,-3.6181,-3.6323,-3.6405,-3.6405,-3.6405,-3.6405,-3.6405,-3.6405,-3.6405,-3.6405,-3.6405,-3.6405,-3.6405,-3.6405,-3.6405,-3.6405,-3.6405,-3.6405,-3.6405,-3.6405,-3.6323,-3.6181,-3.4933,-3.3697,-3.2611,-3.1516,-3.0724,-3.0141,-3.0047,-2.9994,-2.9994,-2.9994,-2.9994,-2.9994,-2.9994,-2.9994,-2.9994,-3.0926,-3.1381,-3.1402,-3.2302,-3.2669,-3.1397,-3.234,-3.3294,0.0,0.0,0.0,0.0,0.0,0.0,0.0,0.0,-3.8741,-3.847,0.0,0.0,-3.8919,-3.9333,-3.9697,-3.9697,-3.9685,-3.9484,-3.8931,-3.8906,-3.863,-3.8052,-3.75,-3.7186,-3.7174,-3.6719,-3.6405,-3.6405,-3.6405,-3.6405,-3.6405,-3.6405,-3.6405,-3.6405,-3.6405,-3.6487,-3.6709,-3.6972,-3.7113,-3.7121,-3.788,-3.8472,-3.8953,-3.9911,-4.0456,-4.0754,-4.1439,-4.1841,-4.2092,-4.2092,-4.1939,-4.166,-4.1465,-4.1241,-4.0916,-4.0544,-4.0053,-3.956,-3.938,-3.88,-3.8122,-3.7631,-3.6968,-3.6285,-3.6051,-3.562,-3.5332,-3.5872,-3.6193,-3.6405,-3.6405,-3.6405,-3.6405,-3.6405,-3.6405,-3.6405,-3.6405,-3.6405,-3.6405,-3.6405,-3.6405,-3.6405,-3.6405,-3.6405,-3.6405,-3.6405,-3.6405,-3.6181,-3.5668,-3.4896,-3.3993,-3.2901,-3.1823,-3.0961,-3.0443,-3.0141,-2.9994,-2.9994,-2.9994,-2.9994,-2.9994,-2.9994,-2.9994,-2.9994,-3.0926,-3.1381,-3.1402,-3.2302,-3.2669,-3.2431,-3.3096,0.0,0.0,0.0,0.0,0.0,0.0,0.0,0.0,0.0,-3.9175,-3.8534,-3.8828,0.0,-3.8919,-3.9333,-3.9697,-3.9697,-3.9358,-3.9108,-3.8944,-3.8517,-3.804,-3.7475,-3.7274,-3.7023,-3.6681,-3.6505,-3.6405,-3.6405,-3.6405,-3.6405,-3.6405,-3.5994,-3.5793,-3.5793,-3.5759,-3.5994,-3.6427,-3.7233,-3.7703,-3.7878,-3.8642,-3.9311,-3.9929,-4.0743,-4.1199,-4.1425,-4.1801,-4.1897,-4.1841,-4.1841,-4.1675,-4.1465,-4.1438,-4.1241,-4.0958,-4.0702,-4.03,-3.9865,-3.9628,-3.9172,-3.8594,-3.8122,-3.7466,-3.6722,-3.6168,-3.5752,-3.5464,-3.5416,-3.5764,-3.6193,-3.6358,-3.6405,-3.6405,-3.6405,-3.6405,-3.6405,-3.6405,-3.6405,-3.6405,-3.6405,-3.6405,-3.6405,-3.6405,-3.6405,-3.6405,-3.6405,-3.6405,-3.6275,-3.5908,-3.4993,-3.4042,-3.3151,-3.1924,-3.0961,-3.0443,-3.0141,-2.9994,-2.9994,-2.9994,-2.9994,-2.9994,-2.9994,-2.9994,-2.9994,-3.0926,-3.1381,-3.1402,-3.2302,-3.2669,-3.2908,-3.3594,0.0,0.0,0.0,-3.7746,0.0,0.0,0.0,0.0,0.0,-3.9663,-3.9294,-3.9511,0.0,-3.9386,-3.9676,-3.9763,-3.9447,-3.9082,-3.8756,-3.8253,-3.7889,-3.7462,-3.691,-3.6908,-3.6769,-3.643,-3.6405,-3.6405,-3.6405,-3.6405,-3.6304,-3.6044,-3.5671,-3.5395,-3.5169,-3.5311,-3.5587,-3.6135,-3.7004,-3.7814,-3.8575,-3.9346,-4.0002,-4.0608,-4.1256,-4.1662,-4.187,-4.1926,-4.1856,-4.1688,-4.1619,-4.1451,-4.1241,-4.1128,-4.0958,-4.073,-4.0516,-4.0184,-3.9848,-3.9744,-3.9407,-3.8966,-3.8381,-3.7743,-3.7095,-3.625,-3.574,-3.5416,-3.5223,-3.5524,-3.5908,-3.6193,-3.6323,-3.6405,-3.6405,-3.6405,-3.6405,-3.6405,-3.6405,-3.6405,-3.6405,-3.6405,-3.6405,-3.6405,-3.6405,-3.6405,-3.6405,-3.6405,-3.6323,-3.6015,-3.515,-3.425,-3.3449,-3.2117,-3.1127,-3.0609,-3.0203,-2.9994,-2.9994,-2.9994,-2.9994,-2.9994,-2.9994,-2.9994,-2.9994,-3.0926,-3.1381,-3.1402,-3.2302,-3.2669,-3.306,0.0,0.0,0.0,-3.7312,0.0,-3.9459,-3.9499,-3.9525,-4.0287,0.0,-4.0185,-4.0453,-4.0504,-4.0377,-4.0109,-4.0045,-3.9766,-3.8969,-3.8793,-3.8341,-3.7299,-3.7149,-3.6958,-3.6455,-3.6405,-3.6405,-3.6405,-3.6405,-3.6405,-3.6405,-3.6405,-3.6107,-3.552,-3.5445,-3.5157,-3.4605,-3.4888,-3.529,-3.5776,-3.649,-3.7614,-3.9119,-3.9931,-4.0601,-4.1127,-4.1549,-4.187,-4.2051,-4.1787,-4.1675,-4.1619,-4.1423,-4.117,-4.0916,-4.073,-4.0501,-4.0356,-4.0053,-3.9848,-3.97,-3.9656,-3.9496,-3.9172,-3.8427,-3.7926,-3.7315,-3.6345,-3.5644,-3.5223,-3.5175,-3.5368,-3.562,-3.592,-3.6193,-3.6405,-3.6405,-3.6405,-3.6405,-3.6405,-3.6405,-3.6405,-3.6405,-3.6405,-3.6405,-3.6405,-3.6405,-3.6405,-3.6405,-3.6405,-3.6323,-3.6051,-3.5271,-3.447,-3.3697,-3.2359,-3.1373,-3.0827,-3.0308,-2.9994,-2.9994,-2.9994,-2.9994,-2.9994,-2.9994,-2.9994,-2.9994,-3.0884,-3.134,-3.1391,-3.2261,-3.2638,0.0,-3.4603,0.0,0.0,0.0,-3.9396,-3.9634,-3.979,-3.9982,-4.016,-4.0134,-4.0185,-4.0453,-4.0504,-4.035,-3.9789,-3.9587,-3.9259,-3.8589,-3.7974,-3.745,-3.7211,-3.6857,-3.6543,-3.6417,-3.6405,-3.6405,-3.6405,-3.6405,-3.6405,-3.6405,-3.6405,-3.6107,-3.552,-3.5082,-3.4625,-3.4085,-3.4294,-3.4794,-3.5657,-3.6575,-3.7738,-3.9112,-3.981,-4.0766,-4.1856,-4.1953,-4.1953,-4.1785,-4.1702,-4.1479,-4.1128,-4.0944,-4.0702,-4.0501,-4.0227,-4.014,-4.0053,-3.9862,-3.9744,-3.9656,-3.9452,-3.9349,-3.9216,-3.8679,-3.8167,-3.7546,-3.6581,-3.5943,-3.5428,-3.4981,-3.5078,-3.5368,-3.562,-3.6038,-3.6405,-3.6405,-3.6405,-3.6405,-3.6405,-3.6405,-3.6405,-3.6405,-3.6405,-3.6405,-3.6405,-3.6405,-3.6405,-3.6405,-3.6405,-3.6358,-3.6323,-3.5404,-3.4568,-3.3944,-3.251,-3.1373,-3.0827,-3.0308,-2.9994,-2.9994,-2.9994,-2.9994,-2.9994,-2.9994,-2.9994,-2.9994,-3.0563,-3.1019,-3.1391,-3.194,-3.2328,0.0,0.0,0.0,0.0,0.0,0.0,-3.9697,-3.9929,-4.0134,-4.0287,-4.0377,-4.058,-4.0858,-4.0858,-4.0614,-3.9921,-3.9608,-3.9204,-3.8316,-3.7655,-3.7086,-3.687,-3.6581,-3.6405,-3.6405,-3.6405,-3.6405,-3.6405,-3.6405,-3.6405,-3.6405,-3.6119,-3.5717,-3.5119,-3.4613,-3.406,-3.3508,-3.383,-3.4362,-3.5165,-3.6027,-3.7222,-3.8745,-3.9998,-4.0914,-4.1476,-4.1794,-4.1585,-4.1119,-4.1322,-4.117,-4.0859,-4.0616,-4.0414,-4.0198,-3.9936,-3.9848,-3.9804,-3.9584,-3.9496,-3.9496,-3.9349,-3.9305,-3.9172,-3.8589,-3.8063,-3.7453,-3.6487,-3.5835,-3.532,-3.4932,-3.4981,-3.5271,-3.5524,-3.5908,-3.6228,-3.6358,-3.6405,-3.6405,-3.6405,-3.6405,-3.6405,-3.6405,-3.6405,-3.6405,-3.6405,-3.6405,-3.6405,-3.6405,-3.6405,-3.637,-3.6228,-3.5368,-3.4519,-3.3845,-3.246,-3.1373,-3.0827,-3.0308,-2.9994,-2.9994,-2.9994,-2.9994,-2.9994,-2.9994,-2.9994,-2.9994,-3.046,-3.0812,-3.106,-3.1733,-3.2112,0.0,0.0,0.0,0.0,0.0,0.0,0.0,-3.9929,-4.0185,-4.0453,-4.0694,-4.0997,-4.1261,-4.1311,-4.0989,-4.0065,-3.9702,-3.9146,-3.8012,-3.74,-3.692,-3.6468,-3.6405,-3.6405,-3.6405,-3.6405,-3.6405,-3.6405,-3.6405,-3.6405,-3.6405,-3.5843,-3.5245,-3.4738,-3.4186,-3.3633,-3.3124,-3.3513,-3.405,-3.4716,-3.5548,-3.6761,-3.8348,-3.9928,-4.0648,-4.0619,-4.1085,-4.0918,-4.0312,-4.0646,-4.0689,-4.0462,-4.0343,-4.0154,-3.9922,-3.973,-3.9642,-3.9598,-3.9394,-3.9305,-3.9305,-3.9305,-3.9247,-3.9114,-3.8395,-3.7835,-3.7222,-3.625,-3.5596,-3.5126,-3.4884,-3.4981,-3.5223,-3.5524,-3.5764,-3.6003,-3.6323,-3.6405,-3.6405,-3.6405,-3.6405,-3.6405,-3.6405,-3.6405,-3.6405,-3.6405,-3.6405,-3.6405,-3.6405,-3.6405,-3.6323,-3.6015,-3.5223,-3.4409,-3.3648,-3.2308,-3.1322,-3.0827,-3.0308,-2.9994,-2.9994,-2.9994,-2.9994,-2.9994,-2.9994,-2.9994,-2.9994,-3.0377,-3.0605,-3.0708,-3.1454,-3.1791,0.0,0.0,0.0,0.0,0.0,0.0,0.0,0.0,-4.0185,0.0,-4.0694,-4.0997,-4.1261,-4.1311,-4.0921,-3.9838,-3.9256,-3.8518,-3.7356,-3.6814,-3.6493,-3.6417,-3.6405,-3.6405,-3.6405,-3.6405,-3.6405,-3.6405,-3.6405,-3.6405,-3.6405,-3.5843,-3.5245,-3.4738,-3.4186,-3.3633,-3.3124,-3.3513,-3.405,-3.4716,-3.6137,-3.7316,-3.832,-3.8725,-3.9201,-3.9691,-3.9777,-3.9615,-3.9412,-3.9815,-3.9817,-3.9576,-3.9743,-3.9788,-3.9686,-3.9452,-3.9349,-3.9349,-3.9305,-3.9305,-3.9305,-3.9305,-3.9158,-3.8863,-3.8336,-3.7697,-3.7015,-3.6203,-3.5596,-3.5126,-3.4884,-3.4835,-3.4981,-3.5476,-3.562,-3.5812,-3.6275,-3.6405,-3.6405,-3.6405,-3.6405,-3.6405,-3.6405,-3.6405,-3.6405,-3.6405,-3.6405,-3.6405,-3.6405,-3.6405,-3.6323,-3.6015,-3.5042,-3.4239,-3.3648,-3.2167,-3.1127,-3.0838,-3.0308,-2.9994,-2.9994,-2.9994,-2.9994,-2.9994,-2.9994,-2.9994,-2.9994,-3.0056,-3.0294,-3.0688,-3.0812,-3.1081,0.0,0.0,0.0,0.0,0.0,0.0,0.0,0.0,-4.0121,-4.0236,-4.0593,-4.0997,-4.1261,-4.1311,-4.1036,-4.02,-3.9346,-3.8405,-3.715,-3.6647,-3.6405,-3.6405,-3.6405,-3.6405,-3.6405,-3.6405,-3.6405,-3.6405,-3.6405,-3.6405,-3.6405,-3.5542,-3.4919,-3.4726,-3.3884,-3.3319,-3.3124,-3.3513,-3.4217,-3.525,-3.6455,-3.7211,-3.7571,-3.7675,-3.8093,-3.8837,-3.9072,-3.8853,-3.8329,-3.8754,-3.8963,-3.9083,-3.9157,-3.9297,-3.9452,-3.9349,-3.9305,-3.9305,-3.9305,-3.9305,-3.9305,-3.9305,-3.9114,-3.8774,-3.8141,-3.7453,-3.6722,-3.5978,-3.5416,-3.4932,-3.4835,-3.4775,-3.4932,-3.5476,-3.562,-3.5764,-3.6263,-3.6405,-3.6405,-3.6405,-3.6405,-3.6405,-3.6405,-3.6405,-3.6405,-3.6405,-3.6405,-3.637,-3.6193,-3.6038,-3.5752,-3.5175,-3.4421,-3.361,-3.2762,-3.1772,-3.1023,-3.0609,-3.0203,-2.9994,-2.9994,-2.9994,-2.9994,-2.9994,-2.9994,-2.9994,-2.9994,-2.9994,-3.0098,-3.0305,-3.0563,-3.0791,0.0,0.0,0.0,0.0,0.0,0.0,0.0,0.0,-4.0032,0.0,-4.0427,-4.0795,-4.1161,-4.1261,-4.1115,-4.0514,-3.9618,-3.8638,-3.7523,-3.6928,-3.6619,-3.6619,-3.6493,-3.6405,-3.6405,-3.6405,-3.6405,-3.6405,-3.6405,-3.6342,-3.6157,-3.524,-3.4663,-3.4512,-3.3583,-3.3124,-3.3124,-3.3569,-3.4384,-3.5562,-3.631,-3.6719,-3.6836,-3.6836,-3.722,-3.7817,-3.812,-3.7889,-3.7323,-3.7703,-3.8061,-3.8317,-3.8603,-3.8855,-3.9102,-3.9237,-3.9305,-3.9305,-3.9305,-3.9305,-3.9305,-3.9305,-3.9024,-3.8594,-3.7991,-3.7209,-3.6392,-3.5752,-3.5223,-3.4775,-3.4775,-3.4775,-3.4932,-3.5476,-3.562,-3.5764,-3.6263,-3.6405,-3.6405,-3.6405,-3.6405,-3.6405,-3.6405,-3.6405,-3.6405,-3.6405,-3.6323,-3.6181,-3.5908,-3.562,-3.5126,-3.4384,-3.3683,-3.2935,-3.2066,-3.1373,-3.0806,-3.0443,-3.0141,-2.9994,-2.9994,-2.9994,-2.9994,-2.9994,-2.9994,-2.9994,-2.9994,-2.9994,-2.9994,-3.0005,-3.0346,-3.0512,0.0,0.0,0.0,0.0,0.0,0.0,0.0,0.0,0.0,-4.0032,-4.0121,-4.0275,-4.0833,-4.1161,-4.1115,-4.0514,-3.9967,-3.9415,-3.88,-3.7815,-3.7149,-3.7149,-3.6732,-3.6405,-3.6405,-3.6405,-3.6405,-3.6405,-3.6405,-3.6132,-3.5571,-3.4994,-3.4487,-3.396,-3.3382,-3.3124,-3.3124,-3.3738,-3.441,-3.5113,-3.5562,-3.6005,-3.6431,-3.6431,-3.6458,-3.6486,-3.6514,-3.6514,-3.6488,-3.6824,-3.6989,-3.7099,-3.8048,-3.8437,-3.8532,-3.9102,-3.9305,-3.9305,-3.9305,-3.9305,-3.9305,-3.9305,-3.88,-3.82,-3.79,-3.6977,-3.5966,-3.5656,-3.5223,-3.4775,-3.4775,-3.4775,-3.4932,-3.5476,-3.562,-3.5764,-3.6263,-3.6405,-3.6405,-3.6405,-3.6405,-3.6405,-3.6405,-3.6405,-3.6405,-3.6405,-3.6193,-3.5908,-3.5668,-3.5175,-3.4628,-3.4089,-3.3074,-3.2319,-3.2015,-3.1054,-3.0443,-3.0391,-3.0141,-2.9994,-2.9994,-2.9994,-2.9994,-2.9994,-2.9994,-2.9994,-2.9994,-2.9994,-2.9994,-2.9994,-3.0025,-3.0036,0.0,0.0,0.0,0.0,0.0,0.0,0.0,-3.8216,-3.8768,-3.9234,-3.9462,-3.9728,-4.0262,-4.0732,-4.0969,-4.0761,-4.0138,-3.9544,-3.9204,-3.8512,-3.7909,-3.7457,-3.723,-3.6905,-3.6443,-3.6405,-3.6405,-3.6405,-3.6405,-3.6119,-3.552,-3.4969,-3.4462,-3.3922,-3.337,-3.3154,-3.3283,-3.3823,-3.4452,-3.5086,-3.5521,-3.5938,-3.6405,-3.6286,-3.6206,-3.6206,-3.6018,-3.6058,-3.6206,-3.6156,-3.6375,-3.6729,-3.7122,-3.7731,-3.845,-3.8654,-3.8979,-3.9305,-3.9305,-3.9305,-3.9247,-3.91,-3.8652,-3.8109,-3.7513,-3.6722,-3.5918,-3.5464,-3.5078,-3.4775,-3.4775,-3.4775,-3.4932,-3.5476,-3.5847,-3.6181,-3.6358,-3.6405,-3.6405,-3.6405,-3.6405,-3.6405,-3.6405,-3.6405,-3.6405,-3.6405,-3.6193,-3.5764,-3.5175,-3.447,-3.3709,-3.2823,-3.2077,-3.1465,-3.1002,-3.0599,-3.0349,-3.0141,-3.0047,-2.9994,-2.9994,-2.9994,-2.9994,-2.9994,-2.9994,-2.9994,-2.9994,-2.9994,-2.9994,-2.9994,-2.9994,-2.9994,-3.057,0.0,0.0,0.0,0.0,0.0,0.0,0.0,-3.7839,-3.8228,-3.8604,-3.9006,-3.9449,-3.9814,-4.0193,-4.068,-4.0335,-3.9853,-3.9613,-3.9057,-3.8427,-3.776,-3.752,-3.7132,-3.6468,-3.6405,-3.6405,-3.6405,-3.6405,0.0,-3.5257,-3.4868,-3.4387,-3.3646,-3.3183,-3.3025,-3.3185,-3.3569,-3.4076,-3.466,-3.5141,-3.5602,-3.6058,-3.5992,-3.5992,-3.5952,-3.5764,-3.5804,-3.5938,-3.5764,-3.5954,-3.632,-3.6524,-3.7094,-3.7853,-3.826,-3.8667,-3.9034,-3.9237,-3.9247,-3.9114,-3.8877,-3.8381,-3.7697,-3.7155,-3.6392,-3.5644,-3.532,-3.503,-3.4775,-3.4775,-3.492,-3.5175,-3.562,-3.6086,-3.6405,-3.6405,-3.6405,-3.6405,-3.6405,-3.6405,-3.6405,-3.6405,-3.6405,-3.6405,-3.6405,-3.6038,-3.5464,-3.4763,-3.3808,-3.2862,-3.1964,-3.1322,-3.0817,-3.0443,-3.0339,-3.0193,-2.9994,-2.9994,-2.9994,-2.9994,-2.9994,-2.9994,-2.9994,-2.9994,-2.9994,-2.9994,-2.9994,-2.9994,-2.9994,-2.9994,-2.9994,0.0,0.0,0.0,0.0,0.0,0.0,-3.5182,0.0,-3.7111,-3.7136,-3.7575,-3.8014,-3.8285,-3.836,-3.8826,-4.0223,-4.0465,-4.0377,-4.0121,-3.9424,-3.873,-3.8115,-3.755,-3.6998,-3.648,-3.6417,-3.6405,-3.6405,-3.6405,-3.5881,-3.4776,-3.4688,-3.4186,-3.3106,-3.2853,-3.2711,-3.2667,-3.2939,-3.3313,-3.3713,-3.4384,-3.4922,-3.5399,-3.5602,-3.571,-3.571,-3.571,-3.571,-3.571,-3.571,-3.571,-3.5778,-3.6347,-3.6578,-3.6741,-3.7948,-3.8396,-3.8505,-3.9102,-3.9114,-3.8877,-3.8634,-3.7893,-3.7062,-3.6769,-3.5966,-3.5223,-3.5175,-3.4981,-3.4775,-3.4823,-3.5223,-3.5668,-3.592,-3.6193,-3.6405,-3.6405,-3.6405,-3.6405,-3.6405,-3.6405,-3.6405,-3.6405,-3.6405,-3.6405,-3.6405,-3.5704,-3.5017,-3.4434,-3.3201,-3.2167,-3.1618,-3.0847,-3.0391,-3.0391,-3.0141,-2.9994,-2.9994,-2.9994,-2.9994,-2.9994,-2.9994,-2.9994,-2.9994,-2.9994,-2.9994,-2.9994,-2.9994,-2.9994,-2.9994,-2.9994,-2.9994,-2.998,0.0,0.0,0.0,0.0,0.0,0.0,0.0,0.0,-3.5871,-3.6433,-3.6983,-3.7434,-3.7996,-3.8461,-3.8666,-3.9233,-3.9652,-3.9776,-3.961,-3.9423,-3.9272,-3.8377,-3.7637,-3.7243,-3.6716,-3.6405,0.0,-3.6405,-3.5881,-3.4776,-3.396,-3.3308,-3.281,-3.2766,-3.2636,-3.2475,-3.2896,-3.324,-3.3471,-3.4301,-3.4853,-3.5195,-3.5562,-3.571,-3.571,-3.571,-3.571,-3.571,-3.571,-3.571,-3.5737,-3.5886,-3.6225,-3.6687,-3.7445,-3.8014,-3.8505,-3.9102,-3.9038,-3.8634,-3.8154,-3.7453,-3.6675,-3.6073,-3.5548,-3.5175,-3.4981,-3.4884,-3.4823,-3.503,-3.532,-3.5668,-3.592,-3.6193,-3.6405,-3.6405,-3.6405,-3.6405,-3.6405,-3.6405,-3.6405,-3.6405,-3.6405,-3.6323,-3.6146,-3.5608,-3.4872,-3.3944,-3.2801,-3.1823,-3.1075,-3.0453,-3.0099,-3.0099,-3.0047,-2.9994,-2.9994,-2.9994,-2.9994,-2.9994,-2.9994,-2.9994,-2.9994,-2.9994,-2.9994,-2.9994,-2.9994,-2.9994,-2.9994,-2.9994,-2.9994,-3.0068,-3.0206,-3.0331,-3.0557,0.0,0.0,-3.2328,-3.3232,0.0,0.0,-3.5127,-3.578,-3.6094,-3.6515,-3.694,-3.7297,-3.7772,-3.8401,-3.9258,-3.9546,-3.9637,-3.9373,-3.8541,-3.7863,-3.7409,-3.6757,-3.6405,-3.6405,-3.6405,-3.5881,-3.4776,-3.3583,-3.2853,-3.2711,-3.2506,-3.2332,-3.2213,-3.2506,-3.281,-3.3099,-3.3924,-3.4509,-3.4936,-3.5399,-3.5642,-3.571,-3.571,-3.571,-3.571,-3.571,-3.571,-3.571,-3.571,-3.5927,-3.6334,-3.7174,-3.7702,-3.8122,-3.8799,-3.8769,-3.8304,-3.7592,-3.6943,-3.6298,-3.5656,-3.5223,-3.4981,-3.4823,-3.4775,-3.4872,-3.5271,-3.5476,-3.5716,-3.6098,-3.6275,-3.6405,-3.6405,-3.6405,-3.6405,-3.6405,-3.6405,-3.6405,-3.6405,-3.6405,-3.6323,-3.6063,-3.5356,-3.4507,-3.3549,-3.2409,-3.1424,-3.0713,-3.0256,-2.9994,-2.9994,-2.9994,-2.9994,-2.9994,-2.9994,-2.9994,-2.9994,-2.9994,-2.9994,-2.9994,-2.9994,-2.9994,-2.9994,-2.9994,-2.9994,-2.9994,-2.9994,-2.9994,-3.0507,-3.0256,-2.9993,-3.0419,-3.057,0.0,-3.1198,-3.2127,-3.2893,0.0,-3.3721,-3.4417,-3.4525,-3.4587,-3.4964,-3.6053,-3.6257,-3.6897,-3.8542,-3.9195,-3.932,-3.8881,-3.8266,-3.7713,-3.7236,-3.6732,-3.6405,-3.6405,-3.6355,-3.5818,-3.4743,-3.3457,-3.2742,-3.2636,-3.2201,-3.1994,-3.1994,-3.1994,-3.2201,-3.2624,-3.3343,-3.4008,-3.4592,-3.5141,-3.548,-3.5669,-3.5669,-3.571,-3.571,-3.571,-3.571,-3.571,-3.571,-3.571,-3.5859,-3.7038,-3.7485,-3.7576,-3.8336,-3.8362,-3.7926,-3.6956,-3.6345,-3.5823,-3.532,-3.4981,-3.4775,-3.4775,-3.4775,-3.4932,-3.5464,-3.562,-3.5764,-3.6263,-3.6405,-3.6405,-3.6405,-3.6405,-3.6405,-3.6405,-3.6405,-3.6405,-3.6405,-3.6405,-3.6323,-3.6003,-3.5042,-3.4091,-3.325,-3.2015,-3.0972,-3.0443,-3.0141,-2.9994,-2.9994,-2.9994,-2.9994,-2.9994,-2.9994,-2.9994,-2.9994,-2.9994,-2.9994,-2.9994,-2.9994,-2.9994,-2.9994,-2.9994,-2.9994,-2.9994,-2.9994,-2.9994,-3.0708,-3.0532,-3.0382,-3.0043,-3.0281,0.0,-3.0746,-3.126,-3.1712,0.0,-3.224,-3.2842,-3.3307,-3.3759,-3.4274,-3.4939,-3.537,-3.6235,-3.7939,-3.8266,-3.8291,-3.8191,-3.7676,-3.7299,-3.7199,-3.6732,-3.6405,-3.6405,-3.5956,-3.5324,-3.4504,-3.3742,-3.295,-3.2169,-3.2038,-3.1937,-3.1761,-3.1937,-3.2038,-3.2157,-3.3056,-3.3598,-3.3924,-3.4771,-3.5277,-3.548,-3.5642,-3.571,-3.571,-3.571,-3.571,-3.571,-3.571,-3.571,-3.5859,-3.7038,-3.7414,-3.7375,-3.8278,-3.8044,-3.7201,-3.6568,-3.5906,-3.532,-3.4969,-3.4823,-3.4775,-3.4775,-3.4775,-3.4932,-3.5464,-3.562,-3.5764,-3.6263,-3.6405,-3.6405,-3.6405,-3.6405,-3.6405,-3.6405,-3.6405,-3.6405,-3.6405,-3.6405,-3.6228,-3.5764,-3.4945,-3.4042,-3.3001,-3.1924,-3.0972,-3.0443,-3.0141,-2.9994,-2.9994,-2.9994,-2.9994,-2.9994,-2.9994,-2.9994,-2.9994,-2.9994,-2.9994,-2.9994,-2.9994,-2.9994,-2.9994,-2.9994,-2.9994,-2.9994,-2.9994,-2.9994,-3.1411,-3.121,-3.0934,-3.0658,-3.0595,0.0,0.0,-3.0821,-3.0997,-3.0997,-3.1436,-3.1888,-3.2177,-3.2466,-3.2918,-3.3771,-3.4135,-3.4801,-3.6169,-3.7073,-3.7701,-3.7977,-3.7525,-3.7186,-3.7186,-3.6732,-3.6267,-3.5974,-3.5311,-3.4616,-3.399,-3.3424,-3.2808,-3.2006,-3.1893,-3.1805,-3.1705,-3.1805,-3.1893,-3.1994,-3.2593,-3.3142,-3.3556,-3.4272,-3.4825,-3.5277,-3.548,-3.5602,-3.571,-3.571,-3.571,-3.571,-3.571,-3.571,-3.5818,-3.6954,-3.7187,-3.709,-3.7637,-3.7433,-3.6769,-3.6013,-3.55,-3.5126,-3.4884,-3.4775,-3.4775,-3.4775,-3.4884,-3.5078,-3.5524,-3.5716,-3.5908,-3.631,-3.6405,-3.6405,-3.6405,-3.6405,-3.6405,-3.6405,-3.6405,-3.6405,-3.6405,-3.6405,-3.6168,-3.5512,-3.4702,-3.3747,-3.2561,-3.1567,-3.0827,-3.0245,-3.0099,-2.9994,-2.9994,-2.9994,-2.9994,-2.9994,-2.9994,-2.9994,-2.9994,-2.9994,-2.9994,-2.9994,-2.9994,-2.9994,-2.9994,-2.9994,-2.9994,-2.9994,-2.9994,-2.9994,-3.2127,-3.1888,-3.1524,-3.1411,-3.0997,-3.062,0.0,0.0,0.0,-3.0457,-3.0783,0.0,0.0,0.0,0.0,0.0,0.0,0.0,0.0,-3.5378,0.0,-3.7287,-3.6985,-3.6709,-3.6709,-3.6307,-3.5864,-3.5324,-3.4686,-3.4024,-3.3422,-3.2995,-3.254,-3.1962,-3.1793,-3.1705,-3.1705,-3.1705,-3.1761,-3.195,-3.2213,-3.2636,-3.3227,-3.3738,-3.4285,-3.4867,-3.5154,-3.5345,-3.5507,-3.5588,-3.5642,-3.5602,-3.5669,-3.5669,-3.5737,-3.6744,-3.6917,-3.6643,-3.6941,-3.6769,-3.6345,-3.5452,-3.5175,-3.5078,-3.4884,-3.4775,-3.4823,-3.4872,-3.503,-3.5271,-3.5572,-3.5812,-3.6051,-3.6323,-3.6405,-3.6405,-3.6405,-3.6405,-3.6405,-3.6405,-3.6405,-3.6405,-3.6405,-3.6405,-3.6121,-3.532,-3.4507,-3.3499,-3.2167,-3.1281,-3.0568,-3.0047,-2.9994,-2.9994,-2.9994,-2.9994,-2.9994,-2.9994,-2.9994,-2.9994,-2.9994,-2.9994,-2.9994,-2.9994,-2.9994,-2.9994,-2.9994,-2.9994,-2.9994,-2.9994,-2.9994,-2.9994,-3.234,-3.2164,-3.2001,-3.1512,-3.0997,-3.062,-3.062,0.0,-2.988,-2.988,0.0,0.0,0.0,0.0,0.0,0.0,0.0,0.0,-3.2416,-3.2654,-3.3357,-3.4914,-3.5039,-3.5002,-3.5002,-3.4951,-3.4798,-3.4554,-3.4446,-3.3946,-3.2951,-3.2836,-3.2459,-3.1773,-3.1705,-3.1705,-3.1705,-3.1705,-3.1705,-3.1761,-3.1937,-3.2213,-3.2519,-3.3185,-3.3598,-3.3882,-3.4509,-3.4799,-3.484,-3.5263,-3.5318,-3.5195,-3.5562,-3.5602,-3.5534,-3.6518,-3.6428,-3.5926,-3.6514,-3.631,-3.5656,-3.532,-3.503,-3.4823,-3.4823,-3.4775,-3.4823,-3.5078,-3.5175,-3.532,-3.5812,-3.5968,-3.6051,-3.6323,-3.6405,-3.6405,-3.6405,-3.6405,-3.6405,-3.6405,-3.6405,-3.6405,-3.6405,-3.6405,-3.6121,-3.532,-3.4507,-3.3499,-3.2167,-3.1281,-3.0568,-3.0047,-2.9994,-2.9994,-2.9994,-2.9994,-2.9994,-2.9994,-2.9994,-2.9994,-2.9994,-2.9994,-2.9994,-2.9994,-2.9994,-2.9994,-2.9994,-2.9994,-2.9994,-2.9994,-2.9994,-2.9994,-3.278,-3.2717,-3.2654,-3.2428,-3.1712,-3.106,-3.106,-3.0407,-2.988,-3.0206,0.0,0.0,0.0,0.0,0.0,0.0,-3.0947,0.0,0.0,0.0,-3.2365,0.0,0.0,0.0,-3.4679,-3.4399,-3.4147,-3.3921,-3.3744,-3.3316,-3.2366,-3.2523,-3.2361,-3.1729,-3.1705,-3.1705,-3.1705,-3.1705,-3.1705,-3.1705,-3.1805,-3.1937,-3.2169,-3.2636,-3.297,-3.333,-3.3882,-3.423,-3.4356,-3.4688,-3.4771,-3.4688,-3.4729,-3.4853,-3.5068,-3.5748,-3.5683,-3.536,-3.5875,-3.5752,-3.532,-3.5078,-3.4872,-3.4775,-3.4775,-3.4932,-3.5078,-3.5175,-3.5416,-3.5716,-3.5968,-3.6098,-3.6275,-3.6358,-3.6405,-3.6405,-3.6405,-3.6405,-3.6405,-3.6405,-3.6405,-3.6405,-3.6405,-3.6275,-3.5895,-3.5078,-3.4262,-3.33,-3.1913,-3.1178,-3.0568,-3.0047,-2.9994,-2.9994,-2.9994,-2.9994,-2.9994,-2.9994,-2.9994,-2.9994,-2.9994,-2.9994,-2.9994,-2.9994,-2.9994,-2.9994,-2.9994,-2.9994,-2.9994,-2.9994,-2.9994,-2.9994,-3.3124,-3.3124,-3.3124,-3.3124,-3.2227,-3.1436,-3.1587,-3.0783,-3.0168,-3.0721,-3.0507,0.0,0.0,0.0,-3.0143,-3.0557,0.0,-3.052,0.0,-3.0947,0.0,0.0,0.0,0.0,0.0,-3.3463,-3.3158,-3.297,-3.2816,-3.2481,-3.195,-3.2147,-3.2082,-3.1717,-3.1705,-3.1705,-3.1705,-3.1705,-3.1705,-3.1705,-3.1705,-3.1761,-3.195,-3.2169,-3.2463,-3.2742,-3.3215,-3.3556,-3.3738,-3.4021,-3.4063,-3.4008,-3.3852,-3.3937,-3.4234,-3.4963,-3.4983,-3.476,-3.5334,-3.532,-3.5078,-3.4872,-3.4775,-3.4823,-3.4872,-3.503,-3.5223,-3.538,-3.5716,-3.6015,-3.6098,-3.6228,-3.6405,-3.6405,-3.6405,-3.6405,-3.6405,-3.6405,-3.6405,-3.6405,-3.6405,-3.6405,-3.6405,-3.6193,-3.5716,-3.4932,-3.4115,-3.3101,-3.1772,-3.1127,-3.0568,-3.0047,-2.9994,-2.9994,-2.9994,-2.9994,-2.9994,-2.9994,-2.9994,-2.9994,-2.9994,-2.9994,-2.9994,-2.9994,-2.9994,-2.9994,-2.9994,-2.9994,-2.9994,-2.9994,-2.9994,-2.9994,-3.3124,-3.3124,-3.3124,-3.3124,-3.2227,-3.1537,-3.2064,-3.1361,-3.0733,-3.126,-3.1348,-3.1348,-3.1361,-3.0947,-3.0595,-3.062,-3.0168,0.0,0.0,0.0,0.0,0.0,0.0,0.0,0.0,-3.1486,-3.1501,0.0,-3.1545,-3.1595,-3.1681,-3.1729,-3.1729,-3.1705,-3.1705,-3.1705,-3.1705,-3.1705,-3.1705,-3.1705,-3.1705,-3.1705,-3.1705,-3.1937,-3.2038,-3.2081,-3.255,-3.2766,-3.2797,-3.3227,-3.3258,-3.3031,-3.3043,-3.2914,-3.2934,-3.4222,-3.4396,-3.4075,-3.4942,-3.503,-3.4823,-3.4775,-3.4775,-3.4823,-3.5126,-3.5175,-3.532,-3.5824,-3.5968,-3.6051,-3.6323,-3.6405,-3.6405,-3.6405,-3.6405,-3.6405,-3.6405,-3.6405,-3.6405,-3.6405,-3.6405,-3.6405,-3.6405,-3.6193,-3.5716,-3.4932,-3.4115,-3.3101,-3.1772,-3.1127,-3.0568,-3.0047,-2.9994,-2.9994,-2.9994,-2.9994,-2.9994,-2.9994,-2.9994,-2.9994,-2.9994,-2.9994,-2.9994,-2.9994,-2.9994,-2.9994,-2.9994,-2.9994,-2.9994,-2.9994,-2.9994,-2.9994,0.0,0.0,-3.3124,-3.3124,-3.2503,-3.1989,-3.2177,-3.165,-3.1286,-3.1825,-3.165,-3.1499,-3.1863,-3.121,-3.062,-3.062,-3.0156,-2.9792,0.0,0.0,0.0,0.0,0.0,0.0,0.0,0.0,0.0,0.0,-3.1487,0.0,-3.1713,-3.1705,-3.1705,-3.1705,-3.1705,-3.1705,-3.1705,-3.1705,-3.1705,-3.1705,-3.1705,-3.1705,-3.1705,-3.1749,-3.1805,-3.1805,-3.2113,-3.2245,-3.2245,-3.2593,-3.268,-3.2593,-3.2407,-3.2288,-3.2379,-3.3547,-3.3848,-3.3823,-3.4655,-3.4884,-3.4775,-3.4775,-3.4932,-3.5078,-3.5175,-3.5464,-3.5764,-3.5968,-3.6146,-3.6275,-3.6358,-3.6405,-3.6405,-3.6405,-3.6405,-3.6405,-3.6405,-3.6405,-3.6405,-3.6405,-3.6405,-3.6323,-3.6193,-3.5764,-3.5271,-3.4653,-3.3549,-3.246,-3.1476,-3.0868,-3.0401,-3.0047,-2.9994,-2.9994,-2.9994,-2.9994,-2.9994,-2.9994,-2.9994,-2.9994,-2.9994,-2.9994,-2.9994,-2.9994,-2.9994,-2.9994,-2.9994,-2.9994,-2.9994,-2.9994,-2.9994,-2.9994,-3.3124,-3.3124,0.0,-3.3124,-3.2641,0.0,-3.2466,-3.2089,-3.1838,-3.2403,-3.224,-3.2102,-3.2453,-3.1625,-3.0884,-3.0884,-3.0269,-2.9792,0.0,-2.9792,0.0,0.0,0.0,0.0,0.0,0.0,-3.0987,-3.134,-3.1261,0.0,0.0,-3.1737,-3.1705,-3.1705,-3.1705,-3.1705,-3.1705,-3.1705,-3.1705,-3.1705,-3.1705,-3.1705,-3.1705,-3.1705,-3.1705,-3.1717,-3.1849,-3.1893,-3.1893,-3.2069,-3.2169,-3.2113,-3.1937,-3.1893,-3.2027,-3.3104,-3.3734,-3.4098,-3.4643,-3.4775,-3.4775,-3.4775,-3.4969,-3.5223,-3.532,-3.5668,-3.6015,-3.6098,-3.6275,-3.6405,-3.6405,-3.6405,-3.6405,-3.6405,-3.6405,-3.6405,-3.6405,-3.6405,-3.6405,-3.6405,-3.6405,-3.6323,-3.6063,-3.5416,-3.4763,-3.4311,-3.3212,-3.2117,-3.1322,-3.0703,-3.0297,-3.0047,-2.9994,-2.9994,-2.9994,-2.9994,-2.9994,-2.9994,-2.9994,-2.9994,-2.9994,-2.9994,-2.9994,-2.9994,-2.9994,-2.9994,-2.9994,-2.9994,-2.9994,-2.9994,-2.9994,-2.9994]},{"header":{"parameterUnit":"m.s-1","parameterCategory":1,"la1":30.6,"la2":29.2853,"lo1":-89.7004,"lo2":-87.6739,"dy":0.0162,"dx":0.0183,"nx":112,"ny":82,"refTime":"2024-06-25T18:00:00:Z","depth":0,"parameterNumber":3,"parameterNumberName":"V-component_of_WINDS"},"data":[0.0,0.0,0.0,0.0,0.0,0.0,0.0,0.0,0.0,0.0,0.0,0.0,0.0,0.0,0.0,0.0,0.0,0.0,0.0,0.0,0.0,0.0,0.0,0.0,0.0,0.0,0.0,0.0,0.0,0.0,0.0,0.0,0.0,0.0,0.0,0.0,0.0,0.0,0.0,0.0,0.0,0.0,0.0,0.0,0.0,0.0,0.0,0.0,0.0,0.0,0.0,0.0,0.0,0.0,0.0,0.0,0.0,0.0,0.0,0.0,0.0,0.0,0.0,0.0,0.0,0.0,0.0,0.0,0.0,0.0,0.0,0.0,0.0,0.0,0.0,0.0,0.0,0.0,0.0,0.0,0.0,0.0,0.0,0.0,0.0,0.0,0.0,0.0,0.0,0.0,-3.1122,-3.2453,-3.3382,-3.4123,-3.4675,-3.3257,-3.2064,-3.1436,0.0,0.0,0.0,0.0,0.0,0.0,0.0,0.0,0.0,0.0,0.0,0.0,0.0,0.0,0.0,0.0,0.0,0.0,0.0,0.0,0.0,0.0,0.0,0.0,0.0,0.0,0.0,0.0,0.0,0.0,0.0,0.0,0.0,0.0,0.0,0.0,0.0,0.0,0.0,0.0,0.0,0.0,0.0,0.0,0.0,0.0,0.0,0.0,0.0,0.0,0.0,0.0,0.0,0.0,0.0,0.0,0.0,0.0,0.0,0.0,0.0,0.0,0.0,0.0,0.0,0.0,0.0,0.0,0.0,0.0,0.0,0.0,0.0,0.0,0.0,0.0,0.0,0.0,0.0,0.0,0.0,0.0,0.0,0.0,0.0,0.0,0.0,0.0,0.0,0.0,0.0,0.0,0.0,0.0,0.0,0.0,0.0,0.0,0.0,0.0,0.0,0.0,0.0,0.0,-3.1574,-3.4028,-3.4073,-3.4123,-3.4675,-3.3633,-3.2503,-3.1461,0.0,0.0,0.0,0.0,0.0,0.0,0.0,0.0,0.0,0.0,0.0,0.0,0.0,0.0,0.0,0.0,0.0,0.0,0.0,0.0,0.0,0.0,0.0,0.0,0.0,0.0,0.0,0.0,0.0,0.0,0.0,0.0,0.0,0.0,0.0,0.0,0.0,0.0,0.0,0.0,0.0,0.0,0.0,0.0,0.0,0.0,0.0,0.0,0.0,0.0,0.0,0.0,0.0,0.0,0.0,0.0,0.0,0.0,0.0,0.0,0.0,0.0,0.0,0.0,0.0,0.0,0.0,0.0,0.0,0.0,0.0,0.0,0.0,0.0,0.0,0.0,0.0,0.0,0.0,0.0,0.0,0.0,0.0,0.0,0.0,0.0,0.0,0.0,0.0,0.0,0.0,0.0,0.0,0.0,0.0,0.0,0.0,0.0,0.0,0.0,0.0,0.0,0.0,-3.1097,-3.2667,-3.4525,-3.45,-3.4449,-3.47,-3.342,-3.2265,-3.1436,-2.9945,0.0,0.0,0.0,0.0,0.0,0.0,0.0,0.0,0.0,0.0,0.0,0.0,0.0,0.0,0.0,0.0,0.0,0.0,0.0,0.0,0.0,0.0,0.0,0.0,0.0,0.0,0.0,0.0,0.0,0.0,0.0,0.0,0.0,0.0,0.0,0.0,0.0,0.0,0.0,0.0,0.0,0.0,0.0,0.0,0.0,0.0,0.0,0.0,0.0,0.0,0.0,0.0,0.0,0.0,0.0,0.0,0.0,0.0,0.0,0.0,0.0,0.0,0.0,0.0,0.0,0.0,0.0,0.0,0.0,0.0,0.0,0.0,0.0,0.0,0.0,0.0,0.0,0.0,0.0,0.0,0.0,0.0,0.0,0.0,0.0,0.0,0.0,0.0,0.0,0.0,0.0,0.0,0.0,0.0,0.0,0.0,0.0,0.0,0.0,0.0,0.0,0.0,-3.2252,-3.3294,-3.4412,-3.4525,-3.4525,-3.457,-3.3149,-3.2113,-3.1668,-3.0215,0.0,0.0,0.0,0.0,0.0,0.0,0.0,0.0,0.0,0.0,0.0,0.0,0.0,0.0,0.0,0.0,0.0,0.0,0.0,0.0,0.0,0.0,0.0,0.0,0.0,0.0,0.0,0.0,0.0,0.0,0.0,0.0,0.0,0.0,0.0,0.0,0.0,0.0,0.0,0.0,0.0,0.0,0.0,0.0,0.0,0.0,0.0,0.0,0.0,0.0,0.0,0.0,0.0,0.0,0.0,0.0,0.0,0.0,0.0,0.0,0.0,0.0,0.0,0.0,0.0,0.0,0.0,0.0,0.0,0.0,0.0,0.0,0.0,0.0,0.0,0.0,0.0,0.0,0.0,0.0,0.0,0.0,0.0,0.0,0.0,0.0,0.0,0.0,0.0,0.0,0.0,0.0,0.0,0.0,0.0,0.0,0.0,0.0,0.0,0.0,0.0,0.0,-3.1913,-3.2704,-3.3834,-3.396,-3.4035,-3.4199,-3.3148,-3.2457,-3.2339,-3.0838,0.0,0.0,0.0,0.0,0.0,0.0,0.0,0.0,0.0,0.0,0.0,0.0,0.0,0.0,0.0,0.0,0.0,0.0,0.0,0.0,0.0,0.0,0.0,0.0,0.0,0.0,0.0,0.0,0.0,0.0,0.0,0.0,0.0,0.0,0.0,0.0,0.0,0.0,0.0,0.0,0.0,0.0,0.0,0.0,0.0,0.0,0.0,0.0,0.0,0.0,0.0,0.0,0.0,0.0,0.0,0.0,0.0,0.0,0.0,0.0,0.0,0.0,0.0,0.0,0.0,0.0,0.0,0.0,0.0,0.0,0.0,0.0,0.0,0.0,0.0,0.0,0.0,0.0,0.0,0.0,0.0,0.0,0.0,0.0,0.0,0.0,0.0,0.0,0.0,0.0,0.0,0.0,0.0,0.0,0.0,0.0,0.0,0.0,0.0,0.0,0.0,0.0,-3.219,-3.3086,-3.3985,-3.4248,-3.4423,-3.4615,-3.3504,-3.2801,-3.2778,0.0,0.0,0.0,0.0,0.0,0.0,0.0,0.0,0.0,0.0,0.0,0.0,0.0,0.0,0.0,0.0,0.0,0.0,0.0,0.0,0.0,0.0,0.0,0.0,0.0,0.0,0.0,0.0,0.0,0.0,0.0,0.0,0.0,0.0,0.0,0.0,0.0,0.0,0.0,0.0,0.0,0.0,0.0,0.0,0.0,0.0,0.0,0.0,0.0,0.0,0.0,0.0,0.0,0.0,0.0,0.0,0.0,0.0,0.0,0.0,0.0,0.0,0.0,0.0,0.0,0.0,0.0,0.0,0.0,0.0,0.0,0.0,0.0,0.0,0.0,0.0,0.0,0.0,0.0,0.0,0.0,0.0,0.0,0.0,0.0,0.0,0.0,0.0,0.0,0.0,0.0,0.0,0.0,0.0,0.0,0.0,0.0,0.0,0.0,0.0,0.0,0.0,-3.1307,-3.2465,-3.339,-3.4079,-3.4444,-3.4701,-3.4956,-3.3925,-3.334,-3.3456,0.0,0.0,0.0,0.0,0.0,0.0,0.0,0.0,0.0,0.0,0.0,0.0,0.0,0.0,0.0,0.0,0.0,0.0,0.0,0.0,0.0,0.0,0.0,0.0,0.0,0.0,0.0,0.0,0.0,0.0,0.0,0.0,0.0,0.0,0.0,0.0,0.0,0.0,0.0,0.0,0.0,0.0,0.0,0.0,0.0,0.0,0.0,0.0,0.0,0.0,0.0,0.0,0.0,0.0,0.0,0.0,0.0,0.0,0.0,0.0,0.0,0.0,0.0,0.0,0.0,0.0,0.0,0.0,0.0,0.0,0.0,0.0,0.0,0.0,0.0,0.0,0.0,0.0,0.0,0.0,0.0,0.0,0.0,0.0,0.0,0.0,0.0,0.0,0.0,0.0,0.0,0.0,0.0,0.0,0.0,0.0,0.0,0.0,0.0,0.0,0.0,0.0,-3.1601,-3.2656,-3.347,-3.4053,-3.4481,-3.4799,-3.5072,-3.4375,-3.4096,0.0,0.0,0.0,0.0,0.0,0.0,0.0,0.0,0.0,0.0,0.0,0.0,0.0,0.0,0.0,0.0,0.0,0.0,0.0,0.0,0.0,0.0,0.0,0.0,0.0,0.0,0.0,0.0,0.0,0.0,0.0,0.0,0.0,0.0,0.0,0.0,0.0,0.0,0.0,0.0,0.0,0.0,0.0,0.0,0.0,0.0,0.0,0.0,0.0,0.0,0.0,0.0,0.0,0.0,0.0,0.0,0.0,0.0,0.0,0.0,0.0,0.0,0.0,0.0,0.0,0.0,0.0,0.0,0.0,0.0,0.0,0.0,0.0,0.0,0.0,0.0,0.0,0.0,0.0,0.0,0.0,0.0,0.0,0.0,0.0,0.0,0.0,0.0,0.0,0.0,0.0,0.0,0.0,0.0,0.0,0.0,0.0,0.0,0.0,0.0,0.0,0.0,0.0,-3.2437,-3.3603,-3.4449,-3.4964,-3.5359,-3.5709,-3.5924,-3.5357,-3.4999,-3.5124,0.0,0.0,0.0,0.0,0.0,0.0,0.0,0.0,0.0,0.0,0.0,0.0,0.0,0.0,0.0,0.0,0.0,0.0,0.0,0.0,0.0,0.0,0.0,0.0,0.0,0.0,0.0,0.0,0.0,0.0,0.0,0.0,0.0,0.0,0.0,0.0,0.0,0.0,0.0,0.0,0.0,0.0,0.0,0.0,0.0,0.0,0.0,0.0,0.0,0.0,0.0,0.0,0.0,0.0,0.0,0.0,0.0,0.0,0.0,0.0,0.0,0.0,0.0,0.0,0.0,0.0,0.0,0.0,0.0,0.0,0.0,0.0,0.0,0.0,0.0,0.0,0.0,0.0,0.0,0.0,0.0,0.0,0.0,0.0,0.0,0.0,0.0,0.0,0.0,0.0,0.0,0.0,0.0,0.0,0.0,0.0,0.0,0.0,0.0,0.0,0.0,0.0,-3.318,-3.4513,-3.5481,-3.5871,-3.6296,-3.6559,-3.6677,-3.6292,-3.5909,-3.5652,0.0,0.0,0.0,0.0,0.0,0.0,0.0,0.0,0.0,0.0,0.0,0.0,0.0,0.0,0.0,0.0,0.0,0.0,0.0,0.0,0.0,0.0,0.0,0.0,0.0,0.0,0.0,0.0,0.0,0.0,0.0,0.0,0.0,0.0,0.0,0.0,0.0,0.0,0.0,0.0,0.0,0.0,0.0,0.0,0.0,0.0,0.0,0.0,0.0,0.0,0.0,0.0,0.0,0.0,0.0,0.0,0.0,0.0,0.0,0.0,0.0,0.0,0.0,0.0,0.0,0.0,0.0,0.0,0.0,0.0,0.0,0.0,0.0,0.0,0.0,0.0,0.0,0.0,0.0,0.0,0.0,0.0,0.0,0.0,0.0,0.0,0.0,0.0,0.0,0.0,0.0,0.0,0.0,0.0,0.0,0.0,0.0,0.0,0.0,0.0,0.0,0.0,-3.3857,-3.5407,-3.648,-3.6744,-3.7148,-3.7341,-3.7341,-3.7166,-3.6742,-3.6079,0.0,0.0,0.0,0.0,0.0,0.0,0.0,0.0,0.0,0.0,0.0,0.0,0.0,0.0,0.0,0.0,0.0,0.0,0.0,0.0,0.0,0.0,0.0,0.0,0.0,0.0,0.0,0.0,0.0,0.0,0.0,0.0,0.0,0.0,0.0,0.0,0.0,0.0,0.0,0.0,0.0,0.0,0.0,0.0,0.0,0.0,0.0,0.0,0.0,0.0,0.0,0.0,0.0,0.0,0.0,0.0,0.0,0.0,0.0,0.0,-3.1447,-3.1009,0.0,0.0,0.0,0.0,0.0,0.0,0.0,0.0,0.0,0.0,0.0,0.0,0.0,0.0,0.0,0.0,0.0,0.0,0.0,0.0,0.0,0.0,0.0,0.0,0.0,0.0,0.0,0.0,0.0,0.0,0.0,0.0,0.0,0.0,0.0,0.0,0.0,0.0,0.0,0.0,-3.4947,-3.6296,-3.7173,-3.738,-3.7625,-3.7777,-3.7777,-3.7442,-3.6954,-3.6273,-3.4946,0.0,0.0,0.0,0.0,0.0,0.0,0.0,0.0,0.0,0.0,0.0,0.0,0.0,0.0,0.0,0.0,0.0,0.0,0.0,0.0,0.0,0.0,0.0,0.0,0.0,0.0,0.0,0.0,0.0,0.0,0.0,0.0,0.0,0.0,0.0,0.0,0.0,0.0,0.0,0.0,0.0,0.0,0.0,0.0,0.0,0.0,0.0,0.0,0.0,0.0,0.0,0.0,0.0,0.0,0.0,0.0,0.0,0.0,0.0,-3.3449,-3.2985,0.0,0.0,0.0,0.0,0.0,0.0,0.0,0.0,0.0,0.0,0.0,0.0,0.0,0.0,0.0,0.0,0.0,0.0,0.0,0.0,0.0,0.0,0.0,0.0,0.0,0.0,0.0,0.0,0.0,0.0,0.0,0.0,0.0,0.0,0.0,0.0,0.0,0.0,0.0,0.0,-3.5574,-3.6839,-3.7649,-3.7877,-3.7991,-3.8028,-3.8028,-3.7852,-3.7462,-3.6823,-3.5575,0.0,0.0,0.0,0.0,0.0,0.0,0.0,0.0,0.0,0.0,0.0,0.0,0.0,0.0,0.0,0.0,0.0,0.0,0.0,0.0,0.0,0.0,0.0,0.0,0.0,0.0,0.0,0.0,0.0,0.0,0.0,0.0,0.0,0.0,0.0,0.0,0.0,0.0,0.0,0.0,0.0,0.0,0.0,0.0,0.0,0.0,0.0,0.0,0.0,0.0,0.0,0.0,0.0,-3.5391,-3.5723,-3.5836,-3.5836,-3.5986,-3.6182,-3.5605,-3.5053,-3.4493,-3.4493,0.0,0.0,0.0,0.0,0.0,0.0,0.0,0.0,0.0,0.0,0.0,0.0,0.0,0.0,0.0,0.0,0.0,0.0,0.0,0.0,0.0,0.0,0.0,0.0,-3.6142,-3.5675,-3.367,0.0,0.0,0.0,0.0,0.0,0.0,0.0,0.0,0.0,0.0,0.0,-3.5964,-3.716,-3.8005,-3.8165,-3.8202,-3.8202,-3.8202,-3.824,-3.7978,-3.7368,-3.6393,-3.5452,0.0,0.0,0.0,0.0,0.0,0.0,0.0,0.0,0.0,0.0,0.0,0.0,0.0,0.0,0.0,0.0,0.0,0.0,0.0,0.0,0.0,0.0,0.0,0.0,0.0,0.0,0.0,0.0,0.0,0.0,0.0,0.0,-2.6372,-2.7485,0.0,0.0,0.0,0.0,0.0,0.0,0.0,0.0,0.0,0.0,0.0,0.0,0.0,-3.5667,-3.5752,-3.6318,-3.6894,-3.7414,-3.7498,-3.7835,-3.8424,-3.8424,-3.8611,-3.8982,-3.8896,0.0,-3.5791,-3.5948,0.0,0.0,0.0,0.0,0.0,0.0,0.0,0.0,0.0,0.0,0.0,0.0,0.0,0.0,0.0,0.0,0.0,0.0,0.0,0.0,0.0,0.0,-3.7034,-3.7084,-3.7504,-3.7808,0.0,-3.5949,-3.4468,-3.3869,-3.3382,0.0,0.0,0.0,0.0,0.0,0.0,0.0,-3.6193,-3.7382,-3.8165,-3.8202,-3.8202,-3.8202,-3.8202,-3.8366,-3.8215,-3.7609,-3.7563,-3.6772,-3.4975,-3.4773,0.0,0.0,0.0,0.0,0.0,0.0,0.0,0.0,0.0,0.0,0.0,0.0,0.0,0.0,0.0,0.0,0.0,0.0,0.0,0.0,0.0,0.0,0.0,0.0,0.0,0.0,0.0,0.0,0.0,-2.7077,-2.8296,-2.9428,-2.9755,-2.9827,0.0,0.0,0.0,0.0,0.0,0.0,0.0,0.0,0.0,-3.5742,-3.6627,-3.7313,-3.7678,-3.7946,-3.8213,-3.844,-3.844,-3.8635,-3.8902,-3.9039,-3.9228,-3.9522,-3.9602,-3.9168,-3.8292,-3.8034,-3.7709,-3.7346,0.0,0.0,0.0,0.0,-3.6301,-3.6272,-3.5996,-3.5894,-3.5851,-3.5561,0.0,0.0,0.0,0.0,0.0,0.0,0.0,0.0,0.0,0.0,-3.8376,-3.8376,-3.8826,-3.9276,-3.9276,-3.8571,-3.7511,0.0,-3.5192,-3.4564,-3.4564,-3.4008,0.0,0.0,0.0,-3.6127,-3.678,-3.7651,-3.8202,-3.8202,-3.8202,-3.824,-3.8366,-3.8441,-3.8436,-3.8289,-3.8024,-3.7535,-3.6665,-3.6014,-3.5284,0.0,0.0,0.0,0.0,0.0,0.0,0.0,0.0,0.0,0.0,0.0,0.0,0.0,0.0,0.0,0.0,0.0,0.0,0.0,0.0,0.0,0.0,0.0,0.0,0.0,0.0,0.0,0.0,-2.8713,-2.9907,-3.1407,-3.166,-3.1668,0.0,0.0,0.0,0.0,0.0,0.0,-3.5101,-3.577,-3.6638,-3.7667,-3.8454,-3.9086,-3.9564,-3.9774,-3.9858,-3.9858,-3.9858,-3.9858,-3.9928,-4.0053,-4.0288,-4.0562,-4.0685,-4.0903,-4.1004,-3.9886,-3.9146,-3.8638,-3.8202,-3.7723,-3.7273,-3.7273,-3.7273,-3.7273,-3.7273,-3.7273,-3.7273,-3.7273,-3.6852,-3.6351,-3.6177,0.0,0.0,0.0,0.0,-3.8028,-3.8028,-3.8725,-3.9421,-3.9421,-3.99,-4.035,-4.035,-4.035,-3.9886,0.0,-3.7114,-3.6336,-3.6162,-3.5561,0.0,-3.5595,-3.6156,-3.6751,-3.7244,-3.7839,-3.8202,-3.8202,-3.824,-3.8329,-3.8478,-3.859,-3.8738,-3.887,-3.8514,-3.8225,-3.8047,-3.7203,-3.6466,-3.5839,0.0,0.0,0.0,0.0,0.0,0.0,0.0,0.0,0.0,0.0,0.0,0.0,0.0,0.0,0.0,0.0,0.0,0.0,0.0,0.0,0.0,0.0,0.0,0.0,0.0,0.0,0.0,0.0,0.0,-3.3377,-3.2885,0.0,0.0,0.0,0.0,-3.4964,-3.5597,-3.6483,-3.7653,-3.8368,-3.9015,-3.962,-4.08,-4.1446,-4.1474,-4.2093,-4.2388,-4.2388,-4.2388,-4.2507,-4.2715,-4.2715,-4.2965,-4.3387,-4.3387,-4.3574,-4.3602,-4.1091,-4.0031,-4.0002,-3.9958,-3.9944,-3.99,-3.99,-3.99,-3.99,-3.99,-3.99,-3.99,-3.99,-3.9494,-3.8884,-3.8246,-3.8507,0.0,0.0,-3.9465,-3.9958,-3.9958,-4.0002,-4.0046,-4.0046,-4.0554,-4.1047,-4.1047,-4.1047,-4.0829,0.0,-3.9436,-3.8812,-3.8173,0.0,-3.6954,-3.6359,-3.6823,-3.7273,-3.7302,-3.7839,-3.8202,-3.8202,-3.8366,-3.8478,-3.8478,-3.8848,-3.9068,-3.9068,-3.9235,-3.9044,-3.8387,-3.8332,-3.7773,-3.6664,-3.5959,0.0,0.0,0.0,0.0,0.0,0.0,0.0,0.0,0.0,0.0,0.0,0.0,0.0,0.0,0.0,0.0,0.0,0.0,0.0,0.0,0.0,0.0,0.0,0.0,0.0,0.0,0.0,0.0,-3.4804,-3.4547,0.0,-3.5335,-3.577,-3.6262,-3.6866,-3.7878,-3.8691,-3.9086,-4.0083,-4.0744,-4.0955,-4.1783,-4.2233,-4.2233,-4.2458,-4.266,-4.278,-4.278,-4.2899,-4.3165,-4.3282,-4.3443,-4.3618,-4.3777,-4.3892,-4.3921,-4.2992,-4.2121,-4.1337,-4.0902,-4.0481,-4.0104,-4.0104,-4.0104,-4.0104,-4.0104,-4.0104,-4.0104,-4.0104,-3.9944,-3.9726,-3.9494,-3.9581,-3.977,-3.977,-3.9929,-4.0104,-4.0104,-4.0423,-4.0742,-4.0742,-4.125,-4.1744,-4.1744,-4.1744,-4.1671,-4.1424,-4.0525,-3.9697,-3.9465,-3.8928,-3.858,-3.8725,-3.8722,-3.8856,-3.9279,-3.9665,-3.9874,-3.9874,-3.9545,-3.9408,-3.9505,-3.9269,-3.9141,-3.9265,-3.9337,-3.9305,-3.9065,-3.8631,-3.8322,-3.8194,-3.6576,-3.586,0.0,0.0,0.0,0.0,0.0,0.0,0.0,0.0,0.0,0.0,0.0,0.0,0.0,0.0,0.0,0.0,0.0,0.0,0.0,0.0,0.0,0.0,0.0,0.0,0.0,0.0,-3.4503,-3.6153,-3.6108,-3.6221,-3.6975,-3.7425,-3.7962,-3.8777,-3.9536,-4.0153,-4.0573,-4.1675,-4.2331,-4.2421,-4.3325,-4.3867,-4.3959,-4.3853,-4.3862,-4.3984,-4.3757,-4.3792,-4.4029,-4.4192,-4.4266,-4.4413,-4.4574,-4.4632,-4.4618,-4.4385,-4.379,-4.2977,-4.2324,-4.1802,-4.1381,-4.1149,-4.1076,-4.1047,-4.0844,-4.0771,-4.0771,-4.0771,-4.0771,-4.0771,-4.0771,-4.0771,-4.0771,-4.0771,-4.0771,-4.0771,-4.0771,-4.1091,-4.1439,-4.1439,-4.1773,-4.2092,-4.2092,-4.2092,-4.2092,-4.2092,-4.1381,-4.0699,-4.0481,-4.0104,-3.99,-4.0075,-3.995,-4.0017,-4.0432,-4.067,-4.0811,-4.0811,-4.0465,-4.0186,-4.0099,-3.9757,-3.9488,-3.9403,-3.9388,-3.9388,-3.9388,-3.8975,-3.8823,-3.9009,-3.7172,-3.6369,-3.6705,0.0,0.0,0.0,0.0,0.0,0.0,0.0,0.0,0.0,0.0,0.0,0.0,0.0,0.0,0.0,0.0,0.0,0.0,0.0,0.0,0.0,0.0,0.0,-3.3561,-3.3927,-3.5059,-3.7353,-3.7461,-3.7777,-3.8818,-3.8917,-3.9423,-4.0631,-4.0499,-4.0926,-4.2165,-4.3128,-4.3731,-4.4043,-4.5426,-4.6349,-4.6687,-4.6343,-4.6138,-4.6124,-4.5481,-4.5319,-4.5533,-4.5533,-4.5669,-4.588,-4.588,-4.588,-4.5837,-4.5184,-4.4922,-4.485,-4.424,-4.3993,-4.3906,-4.3253,-4.3007,-4.2919,-4.2324,-4.2107,-4.2092,-4.2092,-4.2092,-4.2092,-4.2092,-4.2092,-4.2092,-4.2092,-4.2092,-4.2092,-4.2092,-4.2092,-4.2092,-4.2092,-4.2092,-4.2092,-4.2092,-4.2092,-4.2092,-4.2092,-4.2092,-4.1889,-4.1236,-4.1134,-4.0902,-4.0249,-4.0387,0.0,-4.0588,-4.0753,-4.087,-4.087,-4.1062,-4.0857,-4.0226,-4.0301,-4.0127,-3.9448,-3.9388,-3.9388,-3.9388,-3.9424,-3.9288,-3.9024,-3.777,-3.6971,-3.6677,0.0,0.0,0.0,0.0,0.0,0.0,0.0,0.0,0.0,0.0,0.0,0.0,0.0,0.0,0.0,0.0,0.0,0.0,0.0,0.0,0.0,-3.3499,-3.4312,-3.4811,-3.6021,-3.7198,-3.8153,-3.8513,-3.8827,-3.9243,-3.9676,-4.0162,-4.081,-4.1414,-4.2071,-4.2881,-4.3575,-4.429,-4.4989,-4.5776,-4.6349,-4.6687,-4.6771,-4.6909,-4.7037,-4.685,-4.6674,-4.6425,-4.6425,-4.6225,-4.588,-4.588,-4.588,-4.588,-4.5692,-4.5619,-4.5503,-4.4414,-4.3993,-4.3964,-4.3776,-4.3413,-4.2977,-4.2803,-4.2469,-4.2092,-4.2092,-4.2092,-4.2092,-4.2092,-4.2092,-4.2092,-4.2092,-4.2092,-4.2092,-4.2092,-4.2092,-4.2092,-4.2092,-4.2092,-4.2092,-4.2092,-4.2092,-4.2092,-4.2092,-4.2092,-4.2034,-4.186,-4.1816,-4.1758,-4.157,-4.1851,0.0,-4.2092,-4.2396,-4.2594,-4.2594,-4.2255,-4.1989,-4.1795,-4.095,-4.0322,-4.0142,-3.9694,-3.9388,-3.9388,-3.9553,-3.9646,-3.9709,-3.9896,-4.029,0.0,0.0,0.0,0.0,0.0,0.0,0.0,0.0,0.0,0.0,0.0,0.0,0.0,0.0,0.0,0.0,0.0,0.0,0.0,0.0,0.0,0.0,-3.4849,-3.5851,-3.6496,-3.7409,-3.8261,-3.8853,-3.9323,-3.9689,-4.0005,-4.0219,-4.0639,-4.1279,-4.1604,-4.2221,-4.3199,-4.3584,-4.4393,-4.5623,-4.6437,-4.7059,-4.7614,-4.7745,-4.7841,-4.7922,-4.7709,-4.7438,-4.723,-4.723,-4.7027,-4.6664,-4.6388,-4.6287,-4.6258,-4.5996,-4.588,0.0,0.0,0.0,0.0,0.0,-4.3964,-4.3369,-4.3094,-4.276,-4.244,-4.2179,-4.2092,-4.2092,-4.2092,-4.2092,-4.2092,-4.2092,-4.2092,-4.2092,-4.2092,-4.2092,-4.2092,-4.2092,-4.2092,-4.2092,-4.2092,-4.2092,-4.2092,-4.2092,-4.2092,0.0,-4.2092,-4.2092,-4.2133,-4.2201,-4.2514,-4.2729,-4.2795,-4.309,-4.329,-4.329,-4.3,-4.2656,-4.2425,-4.1707,0.0,0.0,0.0,-4.0284,-4.0342,-4.0707,0.0,0.0,0.0,0.0,0.0,0.0,0.0,0.0,-4.4782,-4.4771,0.0,0.0,0.0,0.0,0.0,0.0,0.0,0.0,0.0,0.0,0.0,0.0,0.0,0.0,0.0,0.0,-3.6185,-3.7549,-3.8217,-3.8339,-3.8678,-3.9482,-3.9935,-4.035,-4.078,-4.0617,-4.0835,-4.168,-4.1389,-4.1754,-4.3135,0.0,0.0,0.0,0.0,-4.8027,-4.8845,-4.8778,-4.8779,-4.8827,-4.8261,-4.7956,-4.7883,-4.7883,-4.784,-4.7738,-4.71,-4.6778,-4.6734,-4.6142,-4.588,-4.588,-4.588,-4.588,-4.5822,-4.5213,-4.4618,-4.4008,-4.334,0.0,0.0,-4.2295,-4.2092,-4.2092,-4.2092,-4.2092,-4.2092,-4.2092,-4.2092,-4.2092,-4.2092,-4.2092,-4.2092,-4.2092,-4.2092,-4.2092,-4.2092,-4.2092,-4.2092,-4.2092,-4.2092,-4.2092,-4.2133,-4.2133,-4.2175,-4.2351,-4.2581,-4.2769,-4.2981,-4.317,-4.329,-4.329,0.0,0.0,-4.256,-4.244,-4.2156,-4.1572,-4.1452,-4.152,-4.1783,-4.2337,-4.2088,-4.0897,-4.1586,-4.2682,-4.4107,-4.673,-4.8044,-4.8112,-4.6505,-4.6149,0.0,0.0,0.0,0.0,0.0,0.0,0.0,0.0,0.0,0.0,0.0,0.0,0.0,0.0,0.0,-3.6854,-3.7165,-3.7709,-3.8855,-3.9281,-3.9675,-4.0153,-4.0434,-4.0512,-4.0255,-4.0312,-4.0454,-4.0649,-4.1235,-4.1904,-4.2671,-4.3389,-4.4388,-4.5621,-4.6805,-4.7736,-4.8595,-4.8979,-4.9314,-4.9494,0.0,0.0,-4.8551,-4.8551,-4.8261,-4.7738,-4.71,-4.6778,-4.6734,-4.6142,-4.588,-4.588,-4.588,-4.588,-4.5866,-4.5735,-4.5271,-4.4632,-4.4008,-4.3442,-4.289,-4.2295,-4.2092,-4.2092,-4.2092,-4.2092,0.0,-4.2092,-4.2092,-4.2092,-4.2092,-4.2092,-4.2092,-4.2092,-4.2092,-4.2092,-4.2092,-4.2092,-4.2092,-4.2092,-4.2092,-4.2133,-4.231,-4.2216,-4.2175,-4.2351,-4.2581,-4.2769,-4.2981,-4.317,-4.329,-4.329,-4.329,-4.3245,-4.3125,-4.2671,-4.2351,-4.2216,-4.1859,-4.182,-4.2154,-4.2705,-4.302,-4.3063,-4.3811,-4.5147,-4.7158,-4.7715,-4.8378,-4.9111,-4.8779,-4.8199,0.0,0.0,0.0,0.0,0.0,0.0,0.0,0.0,0.0,0.0,0.0,-3.6104,-3.6147,0.0,-3.7345,-3.796,-3.814,-3.8696,-3.9973,-4.0224,-4.0299,-4.0272,-4.0575,-4.0628,-4.0258,-4.0285,-4.0503,-4.0831,-4.1106,-4.1748,-4.278,-4.3089,-4.3986,-4.5529,-4.6428,-4.7401,-4.8481,-4.9058,-4.9453,-4.9717,-4.9717,-4.9509,-4.9204,-4.9204,-4.903,-4.8696,-4.8058,-4.7593,-4.723,-4.6287,-4.588,-4.588,-4.588,-4.588,-4.588,-4.588,-4.5677,-4.5256,-4.4313,-4.3776,-4.334,-4.2397,-4.2092,-4.2092,-4.2092,-4.2092,-4.2092,-4.2092,-4.2092,-4.2092,-4.2092,-4.2092,-4.2092,-4.2092,-4.2092,-4.2092,-4.2092,-4.2092,-4.2092,-4.2092,-4.2092,-4.2104,-4.2237,-4.2395,-4.255,-4.2662,-4.2809,-4.2915,-4.3115,-4.325,-4.329,-4.329,-4.329,-4.329,-4.329,-4.303,-4.286,-4.2839,-4.2642,-4.2705,-4.3146,-4.3816,-4.4464,-4.498,-4.5796,-4.6783,-4.8,-4.8479,-4.8945,-4.941,-5.0041,-5.0056,0.0,0.0,0.0,0.0,0.0,0.0,0.0,0.0,-3.521,-3.6165,-3.7114,-3.7764,-3.7793,-3.8189,-3.8565,-3.873,-3.911,-3.9784,-4.0931,-4.0862,-4.0592,-4.0195,-4.0465,-4.0559,-4.022,-4.0179,-4.0458,-4.1104,-4.1022,-4.1516,-4.2802,-4.2805,-4.3563,-4.5315,-4.5927,-4.6922,-4.8243,-4.8859,-4.9305,-4.9634,-4.9683,-4.9717,-4.9717,-4.9717,-4.9717,-4.9688,-4.887,-4.8116,-4.7332,-4.6301,-4.588,-4.588,-4.588,-4.588,-4.588,-4.588,-4.588,-4.5706,-4.4429,-4.3993,-4.3776,-4.2513,-4.2092,-4.2092,-4.2092,-4.2092,-4.2092,-4.2092,-4.2092,-4.2092,-4.2092,-4.2092,-4.2092,-4.2092,-4.2092,-4.2092,-4.2092,-4.2092,-4.2092,-4.2092,-4.2092,-4.2146,-4.2193,-4.2573,-4.288,-4.297,-4.2981,-4.3076,-4.325,-4.329,-4.329,-4.329,-4.329,-4.329,-4.329,-4.329,-4.3324,-4.3416,-4.3506,-4.3785,-4.4297,-4.5123,-4.5837,-4.6419,-4.7204,-4.7819,-4.8266,-4.9045,-4.9526,-4.9791,-5.0818,-5.1315,-2.7753,-2.9062,-3.0262,-3.0093,-3.1942,-3.3811,0.0,0.0,-3.7876,-3.7725,-3.8962,-3.9933,-3.9378,-3.9713,-3.9973,-3.9719,-3.9867,-4.0249,-4.1004,-4.0711,-4.0417,-4.0306,-4.023,-4.0089,-3.9883,-3.9532,-3.9664,-4.053,-4.1018,-4.1559,-4.2229,-4.2941,-4.3674,-4.4422,-4.5274,-4.6231,-4.7405,-4.8193,-4.8845,-4.9355,-4.9585,-4.9717,-4.9717,-4.9717,-4.9717,-4.9611,-4.8406,-4.7201,-4.6084,-4.5938,-4.588,-4.588,-4.588,-4.588,-4.588,-4.588,-4.588,-4.5706,-4.4429,-4.3993,-4.3776,-4.2513,-4.2092,-4.2092,-4.2092,-4.2092,-4.2092,-4.2092,-4.2092,-4.2092,-4.2092,-4.2092,-4.2092,-4.2092,-4.2092,-4.2092,-4.2092,-4.2092,-4.2092,-4.2092,-4.2092,-4.2201,-4.2566,-4.2703,-4.2784,-4.2896,-4.2966,-4.3076,-4.325,-4.329,-4.329,-4.329,-4.329,-4.329,-4.329,-4.329,-4.3488,-4.3879,-4.4236,-4.4759,-4.5488,-4.6111,-4.6592,-4.6826,-4.734,-4.8133,-4.9244,-4.9343,-4.999,-5.11,-5.1232,-5.1315,-2.9161,-3.0029,-3.0813,0.0,-3.2872,-3.4403,-3.5185,-3.695,-3.857,-3.9169,-3.985,-4.0291,-4.0109,-4.0158,-4.0181,0.0,-4.046,-4.0916,-4.1584,-4.1286,-4.0816,-4.036,-4.0214,-3.9967,-3.9446,-3.9312,-3.9714,-4.089,-4.115,-4.1718,-4.264,-4.2947,-4.3419,-4.4052,-4.4897,-4.5834,-4.6988,-4.8013,-4.8745,-4.9305,-4.9585,-4.9717,-4.9717,-4.9291,-4.8928,-4.8522,-4.7622,-4.6925,-4.6417,-4.6026,-4.588,-4.588,-4.588,-4.588,-4.588,-4.588,-4.588,-4.575,-4.4821,-4.4284,-4.3834,-4.2919,-4.2382,-4.2092,-4.2092,-4.2092,-4.2092,-4.2092,-4.2092,-4.2092,-4.2092,-4.2092,-4.2092,-4.2092,-4.2092,-4.2092,-4.2092,-4.2092,-4.2092,-4.2092,-4.2092,-4.2146,-4.2345,-4.2607,-4.2854,-4.2896,-4.3046,-4.321,-4.329,-4.329,-4.329,-4.329,-4.329,-4.329,-4.329,-4.3563,-4.3814,-4.4097,-4.5046,-4.595,-4.6713,-4.6926,-4.718,-4.7538,-4.7605,-4.82,-4.9243,-4.9674,-5.037,-5.1315,-5.1746,-5.1962,-3.0179,0.0,0.0,-3.2786,-3.3901,-3.5049,-3.6287,-3.7679,-3.8991,-3.9938,-4.0166,-4.0238,-4.0328,-4.0345,-4.0379,-4.0398,-4.0935,-4.1541,-4.2034,-4.1704,-4.1142,-4.0524,-4.0164,-3.9796,-3.9307,-3.9357,-3.9878,-4.1015,-4.12,-4.1756,-4.2698,-4.2898,-4.3197,-4.3776,-4.4518,-4.5449,-4.6544,-4.7708,-4.8595,-4.9207,-4.9537,-4.9582,-4.9393,-4.8754,-4.8116,-4.7491,-4.7027,-4.6691,-4.6534,-4.6069,-4.588,-4.588,-4.588,-4.588,-4.588,-4.588,-4.588,-4.5779,-4.5111,-4.4487,-4.3877,-4.321,-4.2586,-4.2092,-4.2092,-4.2092,-4.2092,-4.2092,-4.2092,-4.2092,-4.2092,-4.2092,-4.2092,-4.2092,-4.2092,-4.2092,-4.2092,-4.2092,-4.2092,-4.2092,-4.2092,-4.2146,-4.2249,-4.2566,-4.2854,-4.3006,-4.3195,-4.329,-4.329,-4.329,-4.329,-4.329,-4.329,-4.3344,-4.3438,-4.382,-4.4172,-4.4465,-4.5565,-4.6557,-4.7373,-4.7424,-4.7584,-4.8002,-4.8068,-4.853,-4.9409,-5.0154,-5.0866,-5.163,-5.2161,-5.2409,0.0,0.0,-3.3184,-3.427,-3.5437,-3.6501,-3.7112,-3.8408,-3.9512,-3.9675,-3.9991,-4.0122,-3.9944,-4.0501,-4.0867,-4.0456,-4.1342,-4.2078,-4.2092,-4.1704,-4.1256,-4.0844,-3.9965,-3.9472,-3.9591,-3.9626,-3.991,-4.0501,-4.0987,-4.158,-4.22,-4.274,-4.3129,-4.3394,-4.4026,-4.4897,-4.6007,-4.7143,-4.8128,-4.8895,-4.9438,-4.9349,-4.8725,-4.8101,-4.7462,-4.6807,-4.6792,-4.649,-4.5924,-4.5895,-4.588,-4.588,-4.588,-4.588,-4.588,-4.588,-4.588,-4.5779,-4.5111,-4.4487,-4.3877,-4.321,-4.2586,-4.2092,-4.2092,-4.2092,-4.2092,-4.2092,-4.2092,-4.2092,-4.2092,-4.2092,-4.2092,-4.2092,-4.2092,-4.2092,-4.2092,-4.2092,-4.2092,-4.2092,-4.2092,-4.2201,-4.2607,-4.2703,-4.285,-4.321,-4.329,-4.329,-4.329,-4.329,-4.329,-4.329,-4.329,-4.3438,-4.3775,-4.4055,-4.4488,-4.5136,-4.5708,-4.6353,-4.7165,-4.7521,-4.7787,-4.8017,-4.8713,-4.9408,-5.0187,-5.0899,-5.1663,-5.2393,-5.2409,-5.2409,-3.1808,0.0,-3.3663,-3.4403,-3.5384,-3.6346,-3.7117,-3.844,-3.9395,-3.912,-3.9579,-3.9861,-3.9169,-3.9993,-4.0665,-4.0261,-4.1596,-4.2687,-4.2687,-4.2667,-4.2346,-4.155,-4.0896,0.0,-3.9681,-3.9323,0.0,-4.0912,-4.1175,-4.1743,-4.2647,-4.2873,-4.303,-4.3129,-4.3861,-4.4722,-4.5635,-4.7026,-4.8078,-4.8895,-4.9005,-4.8711,-4.8072,-4.7433,-4.6795,-4.62,-4.62,-4.6084,-4.588,-4.588,-4.588,-4.588,-4.588,-4.588,-4.588,-4.588,-4.588,-4.5851,-4.5634,-4.4864,-4.395,-4.3732,-4.2948,-4.2092,-4.2092,-4.2092,-4.2092,-4.2092,-4.2092,-4.2092,-4.2092,-4.2092,-4.2092,-4.2092,-4.2092,-4.2092,-4.2092,-4.2092,-4.2092,-4.2092,-4.2216,-4.2366,-4.2474,-4.2729,-4.2996,-4.325,-4.329,-4.329,-4.329,-4.329,-4.329,-4.329,-4.3493,-4.3735,-4.4055,-4.4419,-4.5053,-4.6016,-4.6716,-4.7571,-4.8551,-4.8948,-4.9238,-4.9475,-4.9707,-5.0187,-5.0916,-5.1199,-5.1696,-5.2409,-5.2409,-5.2409,-3.2853,-3.3578,-3.4213,-3.5029,-3.5825,-3.6598,-3.7422,-3.8339,-3.8949,-3.8646,-3.8885,-3.9046,-3.8612,-3.9504,-4.027,-4.0139,-4.1729,-4.2992,-4.2851,-4.3027,-4.2836,-4.2049,-4.1564,-4.0999,0.0,0.0,0.0,-4.0924,-4.1175,-4.1731,-4.2635,-4.2873,-4.2974,-4.2974,-4.3874,-4.4709,-4.5502,-4.696,-4.8066,-4.8847,-4.8504,-4.8058,-4.7419,-4.678,-4.6272,-4.588,-4.588,-4.588,-4.588,-4.588,-4.588,-4.588,-4.588,-4.588,-4.588,-4.588,-4.588,-4.588,-4.588,-4.5198,-4.4269,-4.4066,-4.3282,-4.2382,-4.2165,-4.2092,-4.2092,-4.2092,-4.2092,-4.2092,-4.2092,-4.2092,-4.2092,-4.2092,-4.2092,-4.2092,-4.2092,-4.2175,-4.2216,-4.2216,-4.2351,-4.2541,-4.2622,-4.289,-4.3155,-4.329,-4.329,-4.329,-4.329,-4.329,-4.329,-4.329,-4.3572,-4.3916,-4.4319,-4.5046,-4.589,-4.6866,-4.785,-4.8706,-4.9496,-4.9826,-5.0066,-5.022,-5.0469,-5.0817,-5.1315,-5.158,-5.1962,-5.2409,-5.2409,-5.2409,-3.3969,-3.4562,-3.4923,-3.6092,-3.6718,-3.7251,-3.8048,-3.8209,-3.8216,-3.8315,-3.7993,-3.781,-3.8242,0.0,-3.9771,-4.008,-4.1758,-4.2951,-4.2681,-4.2837,-4.2806,0.0,0.0,0.0,0.0,0.0,0.0,-4.0639,0.0,-4.1618,-4.2225,-4.274,-4.303,-4.303,-4.3874,-4.4696,-4.5462,-4.693,-4.7985,-4.8667,-4.8043,-4.7419,-4.6763,-4.6185,-4.588,-4.588,-4.588,-4.588,-4.588,-4.588,-4.588,-4.588,-4.588,-4.588,-4.588,-4.588,-4.5925,-4.5925,-4.5925,-4.549,-4.4792,-4.4182,-4.3544,-4.2876,-4.2281,-4.2092,-4.2092,-4.2092,-4.2092,-4.2092,-4.2092,-4.2092,-4.2092,-4.2092,-4.2133,-4.2133,-4.2133,-4.2284,-4.2433,-4.2433,-4.2581,-4.2769,-4.2996,-4.3155,-4.329,-4.329,-4.329,-4.329,-4.329,-4.329,-4.329,-4.329,-4.3557,-4.3964,-4.4618,-4.5819,-4.6898,-4.7757,-4.8991,-4.9787,-5.001,-5.0216,-5.032,-5.032,-5.0982,-5.1365,-5.1365,-5.2078,-5.2409,-5.2409,-5.2409,-5.2409,-3.3984,-3.4636,-3.5303,-3.6048,-3.6483,-3.7009,-3.7975,-3.8078,-3.7892,-3.7559,-3.7483,-3.7475,-3.7458,-3.8583,0.0,-4.0027,-4.197,0.0,-4.3373,-4.3579,0.0,-4.3318,0.0,-4.1878,-4.1624,-4.1402,0.0,0.0,-4.1869,-4.2183,-4.2791,-4.2898,-4.3085,-4.3295,-4.3971,-4.458,-4.5191,-4.65,-4.7443,-4.8014,-4.7375,-4.6983,-4.6763,-4.6185,-4.588,-4.588,-4.588,-4.588,-4.588,-4.588,-4.588,-4.588,-4.588,-4.588,-4.588,-4.588,-4.6001,-4.6135,-4.6135,-4.5564,-4.4792,-4.4182,-4.3544,-4.2876,-4.2281,-4.2092,-4.2092,-4.2092,-4.2092,-4.2092,-4.2092,-4.2092,-4.2133,-4.2284,-4.231,-4.2351,-4.25,-4.2581,-4.2607,-4.2607,-4.2809,-4.2996,-4.321,-4.325,-4.329,-4.329,-4.329,-4.329,-4.329,-4.329,-4.329,-4.329,-4.366,-4.4364,-4.5479,-4.6422,-4.7695,-4.9374,-5.0216,-5.0897,-5.1509,-5.1721,-5.1827,-5.1827,-5.2009,-5.2127,-5.2127,-5.2326,-5.2409,-5.2409,-5.2409,-5.2409,-3.4691,-3.5276,-3.5811,-3.6324,-3.677,-3.7249,-3.7838,-3.7772,-3.7492,-3.7134,-3.6847,0.0,-3.7059,-3.7944,0.0,0.0,0.0,0.0,-4.2945,-4.3352,-4.3533,0.0,-4.2535,0.0,-4.2116,-4.2082,-4.2183,0.0,-4.2351,-4.2451,-4.2949,-4.2974,-4.3197,-4.3585,-4.4054,-4.4758,-4.5761,-4.6698,-4.7261,-4.7361,-4.6998,-4.6633,-4.6403,-4.604,-4.588,-4.588,0.0,-4.588,-4.588,-4.588,-4.597,-4.6046,-4.6046,-4.609,-4.6194,-4.6194,-4.6284,-4.6358,-4.6358,-4.6079,-4.5478,-4.4558,-4.4002,-4.3506,-4.2429,-4.2237,-4.2351,-4.2351,-4.2351,-4.2351,-4.2351,-4.2351,-4.2392,-4.25,-4.2541,-4.2581,-4.2688,-4.2769,-4.285,-4.293,-4.3036,-4.3155,-4.329,-4.329,-4.329,-4.329,-4.329,-4.329,-4.329,-4.329,-4.329,-4.329,-4.3738,-4.4541,-4.5903,-4.7077,-4.8485,-5.0253,-5.1172,-5.1801,-5.223,-5.2354,-5.2409,-5.2409,-5.2409,-5.2409,-5.2409,-5.2409,-5.2409,-5.2409,-5.2409,-5.2409,-3.5497,-3.5957,-3.6238,-3.6658,-3.7205,-3.7671,-3.7671,-3.7419,-3.7088,-3.6845,0.0,-3.5901,-3.6758,-3.7178,-3.7908,-3.9409,0.0,-4.2237,-4.2057,-4.2538,-4.2801,-4.253,-4.2216,-4.2187,-4.2591,-4.2864,-4.2974,-4.2974,-4.259,-4.2527,-4.2949,-4.303,-4.3338,-4.4004,-4.415,-4.498,-4.6478,-4.6919,-4.698,-4.6662,-4.6662,-4.6417,-4.588,-4.588,-4.588,-4.588,-4.588,-4.5925,-4.5925,-4.5925,-4.6046,-4.6254,-4.6254,-4.6403,-4.6594,-4.6594,-4.6639,-4.6639,-4.6639,-4.6683,-4.6461,-4.5047,-4.4634,-4.4369,-4.2702,-4.2475,-4.2743,-4.2743,-4.2703,-4.2688,-4.2688,-4.2688,-4.2688,-4.2729,-4.2729,-4.2729,-4.2769,-4.2915,-4.3076,-4.325,-4.329,-4.329,-4.329,-4.329,-4.329,-4.329,-4.329,-4.329,-4.329,-4.329,-4.329,-4.329,-4.3738,-4.458,-4.6055,-4.759,-4.9102,-5.0559,-5.171,-5.2373,-5.2409,-5.2409,-5.2409,-5.2409,-5.2409,-5.2409,-5.2409,-5.2409,-5.2409,-5.2409,-5.2409,-5.2409,-3.4841,-3.5449,-3.5954,-3.6362,-3.7017,-3.7524,-3.7462,-3.724,0.0,0.0,-3.5853,-3.5554,-3.581,-3.6524,-3.7488,-3.8765,0.0,0.0,0.0,0.0,-4.1561,0.0,0.0,0.0,0.0,0.0,0.0,0.0,-4.2886,-4.2873,-4.2974,-4.3184,-4.3685,-4.4534,-4.4486,-4.4899,-4.5827,-4.5831,-4.5929,-4.6055,-4.6055,-4.5996,-4.588,-4.588,-4.588,-4.588,-4.588,0.0,-4.6135,-4.6135,-4.6314,-4.655,-4.655,-4.655,-4.6594,-4.6594,-4.6727,-4.6844,-4.6844,-4.6975,-4.6897,-4.5175,-4.4807,-4.4716,-4.3201,-4.2788,-4.2872,-4.2872,-4.2788,-4.2688,-4.2688,-4.2688,-4.2729,-4.2915,-4.2955,-4.2996,-4.317,-4.321,-4.325,-4.329,-4.329,-4.329,-4.329,-4.329,-4.329,-4.329,-4.329,-4.329,-4.329,-4.329,-4.329,-4.329,-4.3738,-4.4541,-4.5826,-4.7366,-4.8865,-5.0363,-5.153,-5.2247,-5.2373,-5.2409,-5.2409,-5.2409,-5.2409,-5.2409,-5.2409,-5.2409,-5.2409,-5.2409,-5.2409,-5.2409,-3.4984,-3.5452,-3.5884,-3.6616,-3.7077,-3.7329,-3.721,0.0,0.0,0.0,-3.5469,-3.5111,-3.5453,0.0,0.0,0.0,0.0,0.0,0.0,0.0,0.0,0.0,0.0,0.0,0.0,0.0,-4.2974,-4.2974,-4.3129,-4.3184,-4.3184,-4.3785,-4.4177,-4.432,-4.4843,-4.5264,-4.5595,-4.5662,-4.579,-4.588,-4.588,-4.588,-4.588,-4.588,-4.597,-4.6046,-4.6046,-4.618,-4.6403,-4.6403,-4.6535,-4.6756,-4.6756,-4.6858,-4.6946,-4.6946,-4.7033,-4.7121,-4.7121,-4.7207,-4.7101,-4.5888,-4.5355,-4.4921,-4.3511,-4.311,-4.311,-4.311,-4.304,-4.301,-4.301,-4.301,-4.305,-4.3115,-4.3155,-4.317,-4.329,-4.329,-4.329,-4.329,-4.329,-4.329,-4.329,-4.329,-4.329,-4.329,-4.329,-4.329,-4.329,-4.329,-4.329,-4.329,-4.3621,-4.4347,-4.5634,-4.6793,-4.8227,-4.9985,-5.0992,-5.1762,-5.223,-5.2338,-5.2409,-5.2409,-5.2409,-5.2409,-5.2409,-5.2409,-5.2409,-5.2409,-5.2409,-5.2409,-3.5231,-3.5598,-3.5985,-3.6925,-3.718,-3.7119,-3.6862,-3.6367,0.0,0.0,-3.5106,-3.479,-3.5087,0.0,-3.5985,0.0,0.0,0.0,0.0,0.0,0.0,0.0,0.0,0.0,0.0,0.0,0.0,-4.3085,-4.3403,-4.3546,-4.3546,-4.4085,-4.4313,-4.4198,-4.504,-4.5499,-4.5504,-4.579,-4.588,-4.588,-4.588,-4.5925,-4.597,-4.597,-4.609,-4.6314,-4.6314,-4.6447,-4.6668,-4.6668,-4.68,-4.6975,-4.6975,-4.7121,-4.7309,-4.7309,-4.7309,-4.7309,-4.7309,-4.7309,-4.7204,-4.6678,-4.596,-4.508,-4.3898,-4.3409,-4.329,-4.329,-4.329,-4.329,-4.329,-4.329,-4.329,-4.329,-4.329,-4.329,-4.329,-4.329,-4.329,-4.329,-4.329,-4.329,-4.329,-4.329,-4.329,-4.329,-4.329,-4.329,-4.329,-4.329,-4.329,-4.329,-4.3557,-4.4146,-4.5218,-4.6137,-4.74,-4.9185,-5.0288,-5.1158,-5.1839,-5.2219,-5.2409,-5.2409,-5.2409,-5.2409,-5.2409,-5.2409,-5.2409,-5.2409,-5.2409,-5.2409,-3.5042,-3.5707,-3.6429,-3.6903,-3.703,-3.6908,-3.6399,0.0,0.0,-3.5085,-3.482,-3.4601,-3.4268,-3.4916,-3.5474,-3.5504,0.0,0.0,0.0,0.0,0.0,0.0,0.0,0.0,0.0,0.0,0.0,-4.3338,-4.3849,-4.415,-4.415,-4.3653,-4.385,-4.4795,-4.4884,-4.5071,-4.5504,-4.579,-4.588,-4.588,-4.588,-4.6015,-4.6165,-4.6165,-4.6314,-4.655,-4.655,-4.6668,0.0,-4.6887,-4.7019,-4.7251,-4.7251,-4.7266,-4.7309,-4.7309,-4.7309,-4.7309,-4.7309,-4.7309,-4.7292,-4.7207,-4.6353,-4.5155,-4.4436,-4.3768,-4.329,-4.329,-4.329,-4.329,-4.329,-4.329,-4.329,-4.329,-4.329,-4.329,-4.329,-4.329,-4.329,-4.329,-4.329,-4.329,-4.329,-4.329,-4.329,-4.329,-4.329,-4.329,-4.329,-4.329,-4.329,-4.329,-4.3557,-4.3901,-4.4358,-4.5547,-4.6654,-4.7569,-4.939,-5.0661,-5.11,-5.1938,-5.2409,-5.2409,-5.2409,-5.2409,-5.2409,-5.2409,-5.2409,-5.2409,-5.2409,-5.2409,-3.4779,-3.5466,-3.6293,-3.7111,-3.6987,-3.6662,-3.6539,0.0,-3.5264,-3.485,-3.465,-3.4399,-3.4065,-3.4376,-3.4602,-3.429,-3.5123,-3.5992,-3.6442,0.0,0.0,0.0,0.0,0.0,0.0,0.0,-4.3444,-4.4146,-4.4333,-4.4509,-4.4625,-4.4395,-4.4505,-4.4997,-4.5128,-4.5381,-4.5745,-4.5835,-4.588,-4.588,-4.6001,-4.6135,-4.621,-4.6358,-4.658,-4.68,-4.68,-4.6931,0.0,-4.7164,-4.7207,-4.7309,-4.7309,-4.7309,-4.7309,-4.7309,-4.7309,-4.7309,-4.7309,-4.7309,-4.7279,-4.7319,-4.6574,-4.555,-4.4777,-4.4252,-4.3838,-4.3409,-4.329,-4.329,-4.329,-4.329,-4.329,-4.329,-4.329,-4.329,-4.329,-4.329,-4.329,-4.329,-4.329,-4.329,-4.329,-4.329,-4.329,-4.329,-4.329,-4.329,-4.329,-4.329,-4.329,-4.329,-4.3384,-4.3621,-4.4089,-4.4977,-4.598,-4.6977,-4.8427,-4.9728,-5.0791,-5.1404,-5.1962,-5.2409,-5.2409,-5.2409,-5.2409,-5.2409,-5.2409,-5.2409,-5.2409,-5.2409,-3.4539,-3.5313,-3.6228,-3.6953,-3.6673,-3.6254,0.0,-3.5639,-3.4949,-3.4664,-3.4481,-3.4298,-3.3962,-3.4158,-3.4136,0.0,-3.4485,-3.5383,-3.5509,-3.6968,0.0,0.0,0.0,-4.0867,0.0,-4.2616,-4.3729,-4.5171,-4.4915,-4.4869,-4.5338,-4.5189,-4.5129,-4.523,-4.5413,-4.564,-4.588,-4.588,-4.5925,-4.6015,-4.6135,-4.6254,-4.6388,-4.658,-4.6815,-4.7019,-4.7019,-4.7121,0.0,-4.7309,-4.7309,-4.7309,-4.7309,-4.7309,-4.7309,-4.7309,-4.7309,-4.7309,-4.7309,-4.7309,-4.7309,-4.7309,-4.6758,-4.5938,-4.5132,-4.4597,-4.4182,-4.3484,-4.329,-4.329,-4.329,-4.329,-4.329,-4.329,-4.329,-4.329,-4.329,-4.329,-4.329,-4.329,-4.329,-4.329,-4.329,-4.329,-4.329,-4.329,-4.329,-4.329,-4.329,-4.329,-4.329,-4.329,-4.3409,-4.366,-4.4065,-4.473,-4.5567,-4.6602,-4.7796,-4.8942,-5.008,-5.0892,-5.1547,-5.2078,-5.231,-5.2409,-5.2409,-5.2409,-5.2409,-5.2409,-5.2409,-5.2409,-3.4414,-3.543,-3.6445,-3.6242,-3.5943,-3.5638,0.0,-3.4964,-3.4664,-3.4448,-3.4414,-3.4312,-3.3951,-3.4335,-3.4371,-3.3389,-3.4603,-3.545,-3.4791,-3.6621,0.0,0.0,0.0,-4.0618,-4.0868,-4.2411,-4.432,-4.6509,-4.5574,0.0,-4.6347,-4.5803,-4.5504,-4.5504,-4.5504,-4.564,-4.588,-4.588,-4.6015,-4.621,-4.621,-4.6432,-4.6873,-4.6887,-4.7019,-4.7309,-4.7309,-4.7309,0.0,-4.7309,-4.7309,-4.7309,-4.7309,-4.7309,-4.7309,-4.7309,-4.7309,-4.7309,-4.7309,-4.7309,-4.7309,-4.7309,-4.686,-4.6145,-4.5499,-4.4825,-4.4182,-4.3484,-4.329,-4.329,-4.329,-4.329,-4.329,-4.329,-4.329,-4.329,-4.329,-4.329,-4.329,-4.329,-4.329,-4.329,-4.329,-4.329,-4.329,-4.329,-4.329,-4.329,-4.329,-4.329,-4.329,-4.329,-4.3699,-4.4065,-4.4281,-4.4836,-4.5526,-4.6266,-4.7572,-4.8448,-4.879,-5.0433,-5.1315,-5.1315,-5.2045,-5.2409,-5.2409,-5.2409,-5.2409,-5.2409,-5.2409,-5.2409,-3.3774,-3.474,-3.5825,-3.6112,-3.5771,-3.5383,-3.551,-3.5121,-3.4631,-3.4448,-3.4312,-3.4094,-3.375,-3.371,-3.3588,-3.3066,-3.4047,0.0,0.0,0.0,0.0,0.0,0.0,-4.1583,0.0,0.0,-4.4979,-4.5671,-4.574,-4.5755,-4.5775,-4.5605,-4.5595,-4.579,-4.579,-4.588,-4.609,-4.609,-4.6005,-4.58,-4.5989,-4.5911,-4.5595,-4.5749,-4.5834,-4.5933,-4.5933,-4.5933,-4.5933,-4.5933,-4.5933,-4.5933,-4.5933,-4.5933,-4.5933,-4.5933,-4.5933,-4.5933,-4.5933,-4.5933,-4.5933,-4.5933,-4.5783,-4.5499,-4.4825,-4.4481,-4.4182,-4.3484,-4.329,-4.329,-4.329,-4.329,-4.329,-4.329,-4.329,-4.329,-4.329,-4.329,-4.329,-4.329,-4.329,-4.329,-4.329,-4.329,-4.329,-4.329,-4.329,-4.329,-4.329,-4.329,-4.329,-4.329,-4.3856,-4.4281,-4.4511,-4.5253,-4.5965,-4.6477,-4.7378,-4.818,-4.8775,-4.944,-5.0253,-5.1299,-5.1547,-5.1912,-5.2409,-5.2409,-5.2409,-5.2409,-5.2409,-5.2409,0.0,-3.4431,-3.5291,-3.5637,-3.5359,-3.5067,-3.5277,-3.4956,-3.4563,-3.4414,-3.4432,-3.4364,-3.4001,-3.3974,-3.3902,-3.3582,-3.4276,0.0,0.0,0.0,0.0,0.0,0.0,0.0,0.0,-4.4313,-4.508,-4.568,-4.5802,-4.5798,-4.5669,-4.564,-4.5745,-4.6015,-4.6001,-4.609,-4.621,-4.6064,-4.5888,-4.5766,-4.5643,-4.5429,-4.5096,-4.5263,-4.5289,-4.5289,-4.5289,-4.5289,0.0,-4.5289,-4.5289,-4.5289,-4.5289,-4.5289,-4.5304,-4.5492,-4.5376,-4.5072,-4.5072,-4.5072,-4.5102,-4.5259,-4.5125,-4.4811,-4.4152,-4.3902,-4.3828,-4.3409,-4.329,-4.329,-4.329,-4.329,-4.329,-4.329,-4.329,-4.329,-4.329,-4.329,-4.329,-4.329,-4.329,-4.329,-4.329,-4.329,-4.329,-4.329,-4.329,-4.329,-4.329,-4.329,-4.329,-4.329,-4.3957,-4.4534,-4.4783,-4.5604,-4.6337,-4.6807,-4.737,-4.7952,-4.848,-4.8878,-4.9541,-5.0436,-5.1033,-5.1531,-5.2011,-5.2277,-5.2409,-5.2409,-5.2409,-5.2409,0.0,-3.4519,-3.4942,-3.4942,-3.4886,-3.4781,-3.4752,-3.4622,0.0,-3.4428,-3.4764,-3.4966,-3.4562,-3.4857,-3.5027,-3.4695,-3.5119,0.0,0.0,0.0,0.0,0.0,-4.1868,0.0,-4.4324,-4.4255,-4.4744,-4.6217,-4.5815,-4.564,-4.588,-4.5925,-4.5986,-4.6092,-4.6151,-4.6196,-4.6196,-4.5785,-4.5677,-4.5847,-4.5265,-4.5007,-4.5155,-4.5155,-4.5155,0.0,-4.5155,-4.5155,-4.5155,-4.5155,-4.5155,-4.5155,-4.5155,-4.5155,-4.5226,-4.5646,-4.5286,-4.4578,-4.4578,-4.4578,-4.4664,-4.5053,-4.4751,-4.4122,-4.3484,-4.329,-4.329,-4.329,-4.329,-4.329,-4.329,-4.329,-4.329,-4.329,-4.329,-4.329,-4.329,-4.329,-4.329,-4.329,-4.329,-4.329,-4.329,-4.329,-4.329,-4.329,-4.329,-4.329,-4.329,-4.329,-4.329,-4.329,-4.4073,-4.4708,-4.5036,-4.5841,-4.6582,-4.7183,-4.7554,-4.782,-4.8001,-4.8663,-4.9061,-4.911,-5.0535,-5.1348,-5.1398,-5.2078,-5.2409,-5.2409,-5.2409,-5.2409,-3.4782,0.0,-3.5277,-3.5277,-3.5607,-3.5805,0.0,-3.5209,-3.5009,0.0,0.0,-3.4789,-3.4562,-3.5217,-3.5675,-3.5278,0.0,0.0,0.0,0.0,0.0,-4.1842,-4.2687,-4.3506,-4.4047,-4.4729,-4.5287,-4.5657,-4.5755,-4.5835,-4.588,-4.606,-4.5902,-4.5449,-4.5814,-4.6046,-4.6046,-4.5422,-4.4998,-4.4713,-4.4549,-4.4206,-4.3753,-4.3753,-4.3753,-4.3753,-4.3753,-4.3753,-4.3753,-4.3753,-4.3753,-4.3753,-4.3753,-4.3753,-4.3768,-4.3908,-4.3808,-4.3638,-4.3638,-4.3638,-4.3638,-4.3738,-4.3648,-4.3499,-4.3349,-4.329,-4.329,-4.329,-4.329,-4.329,-4.329,-4.329,-4.329,-4.329,-4.329,-4.329,-4.329,-4.329,-4.329,-4.329,-4.329,-4.329,-4.329,-4.329,-4.329,-4.329,-4.329,-4.329,-4.329,-4.329,-4.329,-4.329,-4.3957,-4.4534,-4.4849,-4.6036,-4.6961,-4.7403,-4.7737,-4.7968,-4.8001,-4.8166,-4.8531,-4.9094,-5.0535,-5.1597,-5.2161,-5.2343,-5.2409,-5.2409,-5.2409,-5.2409,-3.5131,-3.5392,-3.5465,-3.5755,-3.5836,-3.5778,-3.5465,0.0,0.0,0.0,0.0,0.0,-3.5319,-3.6014,0.0,0.0,-3.7397,0.0,0.0,0.0,0.0,-4.3074,-4.3757,-4.4289,0.0,-4.5184,-4.5549,-4.5654,-4.5835,-4.594,-4.6075,-4.5858,-4.5713,-4.555,-4.5274,-4.5238,-4.5535,-4.495,-4.4553,-4.4317,-4.4003,-4.3633,-4.329,-4.329,-4.329,-4.329,-4.329,-4.329,-4.329,-4.329,-4.329,-4.329,-4.329,-4.325,-4.3155,-4.325,-4.325,-4.317,-4.325,-4.329,-4.329,-4.329,-4.329,-4.329,-4.329,-4.329,-4.329,-4.329,-4.329,-4.329,-4.329,-4.329,-4.329,-4.329,-4.329,-4.329,-4.329,-4.329,-4.329,-4.329,-4.329,-4.329,-4.329,-4.329,-4.329,-4.329,-4.329,-4.329,-4.329,-4.329,-4.329,-4.329,-4.3879,-4.4458,-4.4774,-4.5913,-4.6858,-4.7335,-4.7688,-4.7886,-4.8001,-4.8001,-4.8349,-4.9094,-5.022,-5.1148,-5.1912,-5.2243,-5.2409,-5.2409,-5.2409,-5.2409,-3.5348,-3.5552,-3.5697,-3.6301,-3.6127,-3.5813,0.0,0.0,0.0,0.0,0.0,0.0,0.0,0.0,0.0,0.0,0.0,0.0,-4.1978,-4.297,-4.3757,-4.4415,-4.4723,0.0,-4.5501,-4.5564,-4.573,-4.597,-4.6015,-4.6076,-4.6211,-4.5713,-4.5534,-4.5713,-4.4656,-4.4284,-4.4715,-4.437,-4.4167,-4.4152,-4.3559,-4.329,-4.329,-4.329,-4.329,-4.329,0.0,0.0,-4.325,-4.325,-4.321,-4.3185,-4.3215,-4.312,-4.2945,-4.305,-4.2981,-4.2886,-4.3155,-4.325,-4.329,-4.329,-4.329,-4.329,-4.329,-4.329,-4.329,-4.329,-4.329,-4.329,-4.329,-4.329,-4.329,-4.329,-4.329,-4.329,-4.329,-4.329,-4.329,-4.329,-4.329,-4.329,-4.329,-4.329,-4.329,-4.329,-4.329,-4.329,-4.329,-4.329,-4.329,-4.329,-4.3895,-4.4381,-4.4752,-4.5676,-4.6477,-4.7098,-4.7504,-4.7787,-4.8001,-4.8001,-4.8349,-4.9094,-4.9723,-5.0452,-5.1315,-5.1945,-5.231,-5.2409,-5.2409,-5.2409,-3.5851,-3.6156,-3.633,-3.6983,-3.7462,-3.7636,0.0,0.0,0.0,0.0,0.0,0.0,0.0,0.0,0.0,0.0,0.0,-4.3094,0.0,0.0,-4.4844,-4.4986,0.0,-4.5518,-4.5805,-4.6001,-4.6225,-4.6462,-4.6506,-4.627,-4.5726,-4.6249,-4.5871,-4.4362,-4.4474,-4.4267,-4.3563,-4.3499,-4.3439,-4.3439,-4.3349,-4.329,-4.329,-4.329,-4.329,-4.329,0.0,-4.321,-4.3036,-4.3036,-4.285,-4.257,-4.2854,-4.2802,-4.2538,-4.2295,-4.2193,-4.2257,-4.2831,-4.3155,-4.329,-4.329,-4.329,-4.329,-4.329,-4.329,-4.329,-4.329,-4.329,-4.329,-4.329,-4.329,-4.329,-4.329,-4.329,-4.329,-4.329,-4.329,-4.329,-4.329,-4.329,-4.329,-4.329,-4.329,-4.329,-4.329,-4.329,-4.329,-4.329,-4.329,-4.329,-4.329,-4.3738,-4.4205,-4.461,-4.5379,-4.6175,-4.6876,-4.7437,-4.7787,-4.8001,-4.8001,-4.8349,-4.9094,-4.9226,-4.9939,-5.1315,-5.1415,-5.1796,-5.2409,-5.2409,-5.2409,-3.5546,-3.604,-3.646,-3.7143,-3.752,-3.7651,0.0,0.0,0.0,0.0,0.0,0.0,0.0,0.0,-4.047,-4.2167,0.0,-4.4516,-4.4931,-4.5396,-4.5761,0.0,0.0,-4.6135,-4.6284,-4.6373,-4.6521,-4.6698,-4.63,-4.5989,-4.5824,-4.5488,-4.4989,-4.4385,-4.4092,-4.3758,-4.329,-4.329,-4.329,-4.329,-4.329,-4.329,-4.329,-4.329,-4.325,-4.3115,0.0,-4.285,-4.2648,-4.2389,-4.2199,-4.2007,-4.2024,-4.1872,-4.1691,-4.1521,-4.1603,-4.1906,-4.2319,-4.2673,-4.301,-4.3076,-4.321,-4.329,-4.329,-4.329,-4.329,-4.329,-4.329,-4.329,-4.329,-4.329,-4.329,-4.329,-4.329,-4.329,-4.329,-4.329,-4.329,-4.329,-4.329,-4.329,-4.329,-4.329,-4.329,-4.329,-4.329,-4.329,-4.329,-4.329,-4.329,-4.329,-4.3738,-4.4189,-4.4655,-4.5437,-4.6266,-4.7183,-4.7621,-4.7886,-4.8001,-4.8001,-4.8166,-4.8514,-4.8912,-4.9442,-5.0104,-5.0917,-5.1481,-5.1829,-5.2227,-5.2409,-3.5218,-3.5822,-3.646,-3.7143,0.0,-3.7549,-3.7723,0.0,0.0,0.0,0.0,0.0,0.0,-4.0809,0.0,-4.3589,-4.472,-4.5595,-4.627,-4.6373,-4.6432,-4.6624,-4.6639,-4.6639,-4.6683,-4.655,-4.6534,-4.6666,-4.5972,-4.5556,-4.5592,-4.4682,-4.4225,-4.4393,-4.3658,-4.329,-4.329,-4.329,-4.329,-4.329,-4.329,-4.329,-4.329,-4.325,-4.3115,-4.2915,-4.2633,-4.2404,-4.2146,-4.1646,-4.1395,-4.1269,-4.1015,-4.0745,-4.0518,-4.0688,-4.1001,-4.1437,-4.1757,-4.2184,-4.2552,-4.2795,-4.305,-4.325,-4.325,-4.329,-4.3384,-4.3329,-4.3344,-4.3384,-4.3329,-4.329,-4.329,-4.329,-4.329,-4.329,-4.329,-4.329,-4.329,-4.329,-4.329,-4.329,-4.329,-4.329,-4.329,-4.329,-4.329,-4.329,-4.329,-4.329,-4.329,-4.329,-4.3738,-4.4305,-4.4999,-4.5805,-4.6652,-4.7504,-4.7836,-4.8001,-4.8001,-4.8001,-4.8001,-4.8001,-4.8547,-4.8945,-4.911,-5.0402,-5.1149,-5.1332,-5.2078,-5.2409,-3.5218,-3.5822,-3.646,-3.7143,0.0,0.0,-3.8928,0.0,0.0,0.0,0.0,0.0,0.0,-4.2653,-4.4133,-4.4477,-4.5797,-4.677,-4.6858,0.0,-4.6858,-4.6887,-4.6712,-4.6668,-4.6873,-4.6368,-4.6113,-4.6311,-4.5726,-4.5068,-4.4456,-4.4593,-4.4278,-4.3449,-4.3319,-4.329,-4.329,-4.329,-4.329,-4.329,-4.329,-4.329,-4.329,-4.3115,-4.2915,-4.2688,-4.2252,-4.1813,-4.1423,-4.0887,-4.046,-4.0083,-3.9908,-3.9461,-3.9044,-3.9809,-4.0199,-4.0517,-4.1198,-4.1688,-4.2087,-4.2377,-4.2703,-4.3036,-4.3036,-4.3329,-4.3596,-4.3384,-4.3463,-4.3596,-4.3384,-4.329,-4.329,-4.329,-4.329,-4.329,-4.329,-4.329,-4.329,-4.329,-4.329,-4.329,-4.329,-4.329,-4.329,-4.329,-4.329,-4.329,-4.329,-4.329,-4.329,-4.329,-4.3738,-4.4518,-4.5805,-4.6652,-4.7268,-4.7671,-4.7886,-4.8001,-4.8001,-4.8001,-4.8001,-4.8001,-4.805,-4.8415,-4.911,-4.9906,-5.0634,-5.1332,-5.2078,-5.2409,-3.5218,-3.5822,0.0,0.0,0.0,0.0,0.0,0.0,0.0,0.0,0.0,0.0,0.0,0.0,-4.4606,-4.4803,-4.6128,-4.7135,-4.7164,-4.7164,-4.7135,-4.7164,-4.7077,-4.6913,-4.6554,-4.6301,-4.6072,-4.5723,-4.5065,-4.4571,-4.4332,-4.3973,-4.3658,-4.3305,-4.329,-4.329,-4.329,-4.329,-4.329,-4.329,-4.329,-4.325,-4.3115,-4.293,-4.2552,-4.2075,-4.1437,-4.093,-4.0473,-3.9823,-3.9472,-3.9322,-3.9069,-3.8877,-3.8689,-3.9024,-3.938,-3.9719,-4.0142,-4.0774,-4.1423,-4.1675,-4.2172,-4.2662,-4.2769,-4.309,-4.3463,-4.3518,-4.3596,-4.3636,-4.3384,-4.329,-4.329,-4.329,-4.329,-4.329,-4.329,-4.329,-4.329,-4.329,-4.329,-4.329,-4.329,-4.329,-4.329,-4.329,-4.329,-4.329,-4.329,-4.329,-4.329,-4.329,-4.412,-4.5089,-4.6108,-4.6911,-4.7537,-4.7869,-4.7968,-4.8001,-4.8001,-4.8001,-4.8001,-4.8001,-4.8001,-4.815,-4.8431,-4.9624,-5.0353,-5.0634,-5.1827,-5.2409,-3.5301,-3.6087,-3.6975,0.0,0.0,0.0,0.0,0.0,0.0,0.0,0.0,0.0,0.0,0.0,0.0,0.0,-4.6491,-4.7309,-4.7309,-4.7309,-4.7234,-4.7025,-4.6995,-4.6741,-4.6067,-4.5813,-4.5499,-4.502,-4.4377,-4.3962,-4.3962,-4.3544,-4.329,-4.329,-4.329,-4.329,-4.329,-4.329,-4.325,-4.321,-4.3285,-4.315,-4.2875,-4.2552,-4.2061,-4.1437,-4.0674,-4.0198,-3.9846,-3.9024,-3.8652,-3.8575,-3.8421,-3.8421,-3.8498,-3.8557,-3.8859,-3.9203,-3.9543,-4.0142,-4.083,-4.1086,-4.1633,-4.2213,-4.2541,-4.293,-4.3369,-4.3636,-4.3808,-4.3832,-4.3503,-4.3384,-4.329,-4.329,-4.329,-4.329,-4.329,-4.329,-4.329,-4.329,-4.329,-4.329,-4.329,-4.329,-4.329,-4.329,-4.329,-4.329,-4.329,-4.329,-4.3384,-4.3503,-4.4412,-4.5332,-4.6143,-4.6945,-4.7537,-4.7886,-4.7968,-4.8001,-4.8001,-4.8001,-4.8001,-4.8001,-4.8001,-4.8001,-4.8001,-4.9491,-5.022,-5.0253,-5.1694,-5.2409,-3.5488,-3.6635,-3.7798,0.0,0.0,0.0,0.0,0.0,0.0,0.0,0.0,-4.4763,-4.4944,0.0,0.0,-4.6279,-4.6875,-4.7309,-4.7309,-4.7294,-4.7055,-4.6396,-4.6264,-4.6037,-4.5349,-4.4691,-4.4317,-4.4302,-4.3663,-4.329,-4.329,-4.329,-4.329,-4.329,-4.329,-4.329,-4.329,-4.329,-4.3195,-4.2981,-4.3193,-4.3072,-4.2703,-4.1978,-4.1437,-4.0958,-3.9998,-3.9669,-3.97,-3.8642,-3.8089,-3.79,-3.79,-3.8011,-3.8258,-3.8498,-3.8711,-3.8997,-3.9496,-3.9966,-4.0345,-4.0602,-4.1156,-4.1785,-4.2254,-4.2809,-4.3339,-4.3636,-4.3988,-4.422,-4.3808,-4.3518,-4.329,-4.329,-4.329,-4.329,-4.329,-4.329,-4.329,-4.329,-4.329,-4.329,-4.329,-4.329,-4.329,-4.329,-4.329,-4.329,-4.329,-4.329,-4.3503,-4.3949,-4.4465,-4.511,-4.5913,-4.6738,-4.7336,-4.7671,-4.7886,-4.8001,-4.8001,-4.8001,-4.8001,-4.8001,-4.8001,-4.8001,-4.8001,-4.9491,-5.022,-5.0253,-5.1694,-5.2409,-3.6737,-3.7739,0.0,0.0,0.0,0.0,0.0,0.0,0.0,0.0,0.0,-4.5265,-4.5018,-4.5563,0.0,-4.6279,-4.6875,-4.7309,-4.7309,-4.6905,-4.6503,-4.6309,-4.5903,-4.5334,-4.4661,-4.4421,-4.4122,-4.3618,-4.3409,-4.329,-4.329,-4.329,-4.329,-4.329,-4.2895,-4.2656,-4.2656,-4.3091,-4.2895,-4.209,-4.2085,-4.2242,-4.2532,-4.1439,-4.0886,-4.0721,-3.9431,-3.8841,-3.8714,-3.822,-3.8057,-3.8089,-3.8089,-3.8272,-3.8498,-3.8557,-3.8711,-3.8953,-3.9305,-3.9689,-4.0126,-4.0414,-4.083,-4.1296,-4.1785,-4.2348,-4.2996,-4.3488,-4.3856,-4.4089,-4.4127,-4.3871,-4.3518,-4.3329,-4.329,-4.329,-4.329,-4.329,-4.329,-4.329,-4.329,-4.329,-4.329,-4.329,-4.329,-4.329,-4.329,-4.329,-4.329,-4.329,-4.3423,-4.3754,-4.4389,-4.5073,-4.5733,-4.6668,-4.7336,-4.7671,-4.7886,-4.8001,-4.8001,-4.8001,-4.8001,-4.8001,-4.8001,-4.8001,-4.8001,-4.9491,-5.022,-5.0253,-5.1694,-5.2409,-3.7773,-3.873,0.0,0.0,0.0,-4.4098,0.0,0.0,0.0,0.0,0.0,-4.6031,-4.5704,-4.5956,0.0,-4.6524,-4.6867,-4.7075,-4.6907,-4.6576,-4.6085,-4.5589,-4.5155,-4.4646,-4.3988,-4.3888,-4.3723,-4.3319,-4.329,-4.329,-4.329,-4.329,-4.317,-4.2955,-4.2605,-4.2276,-4.2006,-4.2269,-4.2037,-4.1204,-4.1007,-4.1087,-4.1367,-4.0744,-4.0265,-3.9905,-3.8894,-3.8344,-3.8116,-3.8083,-3.8103,-3.82,-3.8304,-3.8485,-3.8711,-3.8859,-3.9038,-3.9247,-3.9469,-3.9834,-4.0198,-4.0356,-4.063,-4.0972,-4.1521,-4.2102,-4.2673,-4.3394,-4.384,-4.4127,-4.4281,-4.4065,-4.3754,-4.3518,-4.3384,-4.329,-4.329,-4.329,-4.329,-4.329,-4.329,-4.329,-4.329,-4.329,-4.329,-4.329,-4.329,-4.329,-4.329,-4.329,-4.3384,-4.369,-4.4289,-4.494,-4.5515,-4.6512,-4.7251,-4.7588,-4.7869,-4.8001,-4.8001,-4.8001,-4.8001,-4.8001,-4.8001,-4.8001,-4.8001,-4.9491,-5.022,-5.0253,-5.1694,-5.2409,-3.8623,0.0,0.0,0.0,-4.4466,0.0,-4.7025,-4.6658,-4.6175,-4.655,0.0,-4.6844,-4.6639,-4.6594,-4.6653,-4.6755,-4.6784,-4.6663,-4.6237,-4.613,-4.5693,-4.4451,-4.4272,-4.3947,-4.3349,-4.329,-4.329,-4.329,-4.329,-4.329,-4.329,-4.329,-4.303,-4.2425,-4.2336,-4.1991,-4.1332,-4.112,-4.0775,-4.0349,-3.9996,-3.9724,-3.9462,-3.9757,-3.9465,-3.8689,-3.8408,-3.8116,-3.7946,-3.8207,-3.8272,-3.8304,-3.8544,-3.8814,-3.8997,-3.9247,-3.954,-3.9744,-3.9966,-4.0198,-4.0399,-4.0442,-4.0544,-4.083,-4.1479,-4.1937,-4.2456,-4.3314,-4.3918,-4.4281,-4.432,-4.4166,-4.3988,-4.3769,-4.3518,-4.329,-4.329,-4.329,-4.329,-4.329,-4.329,-4.329,-4.329,-4.329,-4.329,-4.329,-4.329,-4.329,-4.329,-4.329,-4.3384,-4.3636,-4.4243,-4.4821,-4.5332,-4.6321,-4.7064,-4.747,-4.7803,-4.8001,-4.8001,-4.8001,-4.8001,-4.8001,-4.8001,-4.8001,-4.8001,-4.9425,-5.0154,-5.0237,-5.1628,-5.2359,0.0,-4.0875,0.0,0.0,0.0,-4.695,-4.7234,-4.7001,-4.6709,-4.6814,-4.6887,-4.6844,-4.6639,-4.6594,-4.6417,-4.5974,-4.6044,-4.5966,-4.5382,-4.4956,-4.4631,-4.4347,-4.3828,-4.3454,-4.3305,-4.329,-4.329,-4.329,-4.329,-4.329,-4.329,-4.329,-4.303,-4.2425,-4.1901,-4.1265,-4.0621,-4.042,-3.9938,-3.9169,-3.9307,-3.8739,-3.7605,-3.7779,-3.7932,-3.8103,-3.8024,-3.8024,-3.8122,-3.8213,-3.8427,-3.8774,-3.9024,-3.9305,-3.954,-3.9791,-3.9878,-3.9966,-4.0211,-4.0356,-4.0442,-4.0587,-4.0659,-4.0787,-4.1297,-4.1744,-4.2252,-4.3115,-4.3699,-4.4143,-4.4473,-4.4396,-4.4166,-4.3988,-4.3621,-4.329,-4.329,-4.329,-4.329,-4.329,-4.329,-4.329,-4.329,-4.329,-4.329,-4.329,-4.329,-4.329,-4.329,-4.329,-4.3329,-4.3384,-4.4112,-4.4746,-4.5147,-4.6214,-4.7064,-4.747,-4.7803,-4.8001,-4.8001,-4.8001,-4.8001,-4.8001,-4.8001,-4.8001,-4.8001,-4.8912,-4.9641,-5.0237,-5.1115,-5.1862,0.0,0.0,0.0,0.0,0.0,0.0,-4.7309,-4.7062,-4.6887,-4.6756,-4.6653,-4.6476,-4.6284,-4.6284,-4.6108,-4.5521,-4.5665,-4.5498,-4.4665,-4.4381,-4.4197,-4.3843,-4.3499,-4.329,-4.329,-4.329,-4.329,-4.329,-4.329,-4.329,-4.329,-4.3045,-4.2566,-4.1946,-4.125,-4.0591,-3.9933,-3.9609,-3.9096,-3.8376,-3.8214,-3.763,-3.6688,-3.6893,-3.7164,-3.7591,-3.788,-3.8022,-3.801,-3.8366,-3.8729,-3.9114,-3.9394,-3.9628,-3.9848,-4.011,-4.0198,-4.0241,-4.0457,-4.0544,-4.0544,-4.0659,-4.0702,-4.083,-4.1381,-4.1813,-4.2333,-4.3195,-4.3762,-4.4205,-4.4511,-4.4473,-4.4243,-4.4065,-4.3754,-4.3463,-4.3329,-4.329,-4.329,-4.329,-4.329,-4.329,-4.329,-4.329,-4.329,-4.329,-4.329,-4.329,-4.329,-4.329,-4.3344,-4.3463,-4.4166,-4.4783,-4.5221,-4.625,-4.7064,-4.747,-4.7803,-4.8001,-4.8001,-4.8001,-4.8001,-4.8001,-4.8001,-4.8001,-4.8001,-4.8746,-4.9309,-4.9707,-5.0783,-5.1514,0.0,0.0,0.0,0.0,0.0,0.0,0.0,-4.7062,-4.6844,-4.6639,-4.6403,-4.6135,-4.5925,-4.588,-4.5723,-4.5186,-4.5272,-4.5032,-4.3921,-4.3983,-4.3902,-4.3364,-4.329,-4.329,-4.329,-4.329,-4.329,-4.329,-4.329,-4.329,-4.329,-4.2716,-4.2096,-4.1399,-4.0741,-4.0083,-3.9388,-3.898,-3.8486,-3.7886,-3.7134,-3.6601,-3.6312,-3.6507,-3.676,-3.7139,-3.773,-3.7824,-3.7674,-3.8487,-3.8952,-3.9244,-3.9645,-3.9892,-4.0097,-4.0342,-4.0428,-4.0471,-4.0616,-4.0702,-4.0702,-4.0702,-4.073,-4.0859,-4.1535,-4.202,-4.2537,-4.3394,-4.3957,-4.4358,-4.4549,-4.4473,-4.4281,-4.4065,-4.3871,-4.3675,-4.3384,-4.329,-4.329,-4.329,-4.329,-4.329,-4.329,-4.329,-4.329,-4.329,-4.329,-4.329,-4.329,-4.329,-4.3384,-4.369,-4.4281,-4.4843,-4.5369,-4.6356,-4.7098,-4.747,-4.7803,-4.8001,-4.8001,-4.8001,-4.8001,-4.8001,-4.8001,-4.8001,-4.8001,-4.8614,-4.8978,-4.9144,-5.0336,-5.1,0.0,0.0,0.0,0.0,0.0,0.0,0.0,0.0,-4.6844,0.0,-4.6403,-4.6135,-4.5925,-4.588,-4.5548,-4.4342,-4.4468,-4.431,-4.3068,-4.3199,-4.3394,-4.3305,-4.329,-4.329,-4.329,-4.329,-4.329,-4.329,-4.329,-4.329,-4.329,-4.2716,-4.2096,-4.1399,-4.0741,-4.0083,-3.9388,-3.898,-3.8486,-3.7886,-3.6533,-3.6035,-3.6285,-3.6111,-3.6316,-3.6851,-3.693,-3.7103,-3.7319,-3.8114,-3.8619,-3.8976,-3.9917,-4.0312,-4.0385,-4.0587,-4.0659,-4.0659,-4.0702,-4.0702,-4.0702,-4.0702,-4.0816,-4.1043,-4.1563,-4.2143,-4.2769,-4.3433,-4.3957,-4.4358,-4.4549,-4.4587,-4.4473,-4.4104,-4.3988,-4.3832,-4.3423,-4.329,-4.329,-4.329,-4.329,-4.329,-4.329,-4.329,-4.329,-4.329,-4.329,-4.329,-4.329,-4.329,-4.3384,-4.369,-4.4351,-4.4924,-4.5369,-4.6477,-4.7251,-4.7486,-4.7803,-4.8001,-4.8001,-4.8001,-4.8001,-4.8001,-4.8001,-4.8001,-4.8001,-4.81,-4.8481,-4.911,-4.9309,-4.974,0.0,0.0,0.0,0.0,0.0,0.0,0.0,0.0,-4.6873,-4.68,-4.6491,-4.6135,-4.5925,-4.588,-4.5576,-4.4647,-4.4571,-4.4278,-4.3401,-4.3289,-4.329,-4.329,-4.329,-4.329,-4.329,-4.329,-4.329,-4.329,-4.329,-4.329,-4.329,-4.2357,-4.1707,-4.1384,-4.0382,-3.9709,-3.9388,-3.898,-3.8337,-3.739,-3.6217,-3.5778,-3.5967,-3.583,-3.607,-3.6534,-3.6997,-3.7113,-3.7095,-3.7918,-3.8624,-3.9168,-3.9673,-4.0164,-4.0587,-4.0659,-4.0702,-4.0702,-4.0702,-4.0702,-4.0702,-4.0702,-4.0859,-4.1128,-4.1715,-4.2333,-4.2996,-4.3645,-4.4127,-4.4511,-4.4587,-4.461,-4.4511,-4.4104,-4.3988,-4.3871,-4.3409,-4.329,-4.329,-4.329,-4.329,-4.329,-4.329,-4.329,-4.329,-4.329,-4.329,-4.3344,-4.3518,-4.3621,-4.3856,-4.432,-4.4858,-4.5421,-4.6036,-4.6772,-4.7319,-4.7588,-4.7869,-4.8001,-4.8001,-4.8001,-4.8001,-4.8001,-4.8001,-4.8001,-4.8001,-4.8001,-4.8166,-4.8498,-4.8912,-4.9276,0.0,0.0,0.0,0.0,0.0,0.0,0.0,0.0,-4.6975,0.0,-4.6609,-4.6314,-4.6015,-4.5925,-4.5663,-4.4995,-4.4878,-4.4645,-4.4032,-4.3717,-4.3544,-4.3544,-4.3394,-4.329,-4.329,-4.329,-4.329,-4.329,-4.329,-4.3215,-4.309,-4.1998,-4.1309,-4.113,-4.0023,-3.9388,-3.9388,-3.8958,-3.8188,-3.7148,-3.6389,-3.6005,-3.5884,-3.5884,-3.6022,-3.636,-3.6973,-3.7071,-3.6838,-3.7703,-3.8394,-3.8992,-3.9368,-3.9886,-4.0491,-4.0631,-4.0702,-4.0702,-4.0702,-4.0702,-4.0702,-4.0702,-4.0944,-4.1296,-4.1825,-4.2522,-4.3275,-4.3856,-4.4281,-4.461,-4.461,-4.461,-4.4511,-4.4104,-4.3988,-4.3871,-4.3409,-4.329,-4.329,-4.329,-4.329,-4.329,-4.329,-4.329,-4.329,-4.329,-4.3384,-4.3503,-4.3754,-4.3988,-4.4358,-4.4911,-4.5416,-4.5961,-4.6547,-4.7064,-4.7437,-4.7671,-4.7886,-4.8001,-4.8001,-4.8001,-4.8001,-4.8001,-4.8001,-4.8001,-4.8001,-4.8001,-4.8001,-4.8017,-4.8564,-4.8829,0.0,0.0,0.0,0.0,0.0,0.0,0.0,0.0,0.0,-4.6975,-4.6873,-4.6741,-4.6254,-4.6015,-4.5663,-4.4995,-4.5273,-4.5341,-4.4634,-4.4373,-4.4272,-4.4272,-4.3678,-4.329,-4.329,-4.329,-4.329,-4.329,-4.329,-4.306,-4.2485,-4.1796,-4.11,-4.0472,-3.9783,-3.9388,-3.9388,-3.8811,-3.8217,-3.7572,-3.7148,-3.6719,-3.6351,-3.6351,-3.6379,-3.6407,-3.6434,-3.6434,-3.6488,-3.731,-3.7641,-3.7834,-3.9228,-3.9802,-3.9901,-4.0491,-4.0702,-4.0702,-4.0702,-4.0702,-4.0702,-4.0702,-4.1156,-4.1688,-4.1908,-4.2725,-4.363,-4.3934,-4.4281,-4.461,-4.461,-4.461,-4.4511,-4.4104,-4.3988,-4.3871,-4.3409,-4.329,-4.329,-4.329,-4.329,-4.329,-4.329,-4.329,-4.329,-4.329,-4.3518,-4.3754,-4.3949,-4.432,-4.4723,-4.5136,-4.5837,-4.6372,-4.6582,-4.7252,-4.7671,-4.7704,-4.7886,-4.8001,-4.8001,-4.8001,-4.8001,-4.8001,-4.8001,-4.8001,-4.8001,-4.8001,-4.8001,-4.8001,-4.805,-4.8067,0.0,0.0,0.0,0.0,0.0,0.0,0.0,-4.5544,-4.61,-4.6448,-4.6408,-4.6413,-4.6623,-4.6343,-4.6003,-4.577,-4.5669,-4.5591,-4.5498,-4.5191,-4.478,-4.4344,-4.4075,-4.3787,-4.3334,-4.329,-4.329,-4.329,-4.329,-4.3045,-4.2425,-4.1767,-4.107,-4.0427,-3.9768,-3.9337,-3.9228,-3.8738,-3.8179,-3.7625,-3.7187,-3.6811,-3.6405,-3.6524,-3.6603,-3.6603,-3.6733,-3.6693,-3.6603,-3.7035,-3.7422,-3.7868,-3.8357,-3.9072,-3.9816,-4.0027,-4.0364,-4.0702,-4.0702,-4.0702,-4.073,-4.0845,-4.1269,-4.1771,-4.2307,-4.2996,-4.3669,-4.4089,-4.4396,-4.461,-4.461,-4.461,-4.4511,-4.4104,-4.3778,-4.3503,-4.3329,-4.329,-4.329,-4.329,-4.329,-4.329,-4.329,-4.329,-4.329,-4.329,-4.3518,-4.3871,-4.432,-4.4821,-4.5348,-4.6017,-4.6563,-4.6979,-4.7286,-4.7571,-4.7754,-4.7886,-4.7968,-4.8001,-4.8001,-4.8001,-4.8001,-4.8001,-4.8001,-4.8001,-4.8001,-4.8001,-4.8001,-4.8001,-4.8001,-4.8001,-3.6432,0.0,0.0,0.0,0.0,0.0,0.0,0.0,-4.5095,-4.5559,-4.5702,-4.5873,-4.6189,-4.6003,-4.5932,-4.6285,-4.6094,-4.6048,-4.6279,-4.5932,-4.5391,-4.4702,-4.4419,-4.4056,-4.3364,-4.329,-4.329,-4.329,-4.329,0.0,-4.2111,-4.1647,-4.098,-4.0098,-3.9721,-3.9445,-3.9286,-3.8958,-3.8516,-3.7991,-3.7519,-3.7109,-3.6693,-3.6786,-3.6786,-3.6825,-3.6954,-3.6915,-3.6811,-3.6954,-3.7231,-3.7611,-3.7821,-3.8412,-3.9198,-3.962,-4.0041,-4.0421,-4.0631,-4.073,-4.0859,-4.1057,-4.1521,-4.2143,-4.2648,-4.3275,-4.3918,-4.4205,-4.4435,-4.461,-4.461,-4.4496,-4.432,-4.3988,-4.3581,-4.329,-4.329,-4.329,-4.329,-4.329,-4.329,-4.329,-4.329,-4.329,-4.329,-4.329,-4.3621,-4.4089,-4.4594,-4.5274,-4.5965,-4.6617,-4.7098,-4.7454,-4.7671,-4.7737,-4.7853,-4.8001,-4.8001,-4.8001,-4.8001,-4.8001,-4.8001,-4.8001,-4.8001,-4.8001,-4.8001,-4.8001,-4.8001,-4.8001,-4.8001,-4.8001,0.0,0.0,0.0,0.0,0.0,0.0,-4.2021,0.0,-4.4227,-4.4257,-4.4781,-4.5203,-4.5025,-4.5013,-4.5359,-4.6373,-4.655,-4.6653,-4.6873,-4.6569,-4.6055,-4.5424,-4.4751,-4.4092,-4.3379,-4.3305,-4.329,-4.329,-4.329,-4.2761,-4.1444,-4.1339,-4.0741,-3.9454,-3.9589,-3.9681,-3.9717,-3.9517,-3.9177,-3.8782,-3.8188,-3.7696,-3.7303,-3.7109,-3.6978,-3.6978,-3.6978,-3.6978,-3.6978,-3.6978,-3.6978,-3.7049,-3.7639,-3.7878,-3.8046,-3.9297,-3.976,-3.9873,-4.0491,-4.0859,-4.1057,-4.1339,-4.1993,-4.2729,-4.2955,-4.363,-4.4281,-4.432,-4.4473,-4.461,-4.4572,-4.4281,-4.3949,-4.3769,-4.3518,-4.329,-4.329,-4.329,-4.329,-4.329,-4.329,-4.329,-4.329,-4.329,-4.329,-4.329,-4.3895,-4.4419,-4.4774,-4.5697,-4.6477,-4.6876,-4.7387,-4.7704,-4.7704,-4.7886,-4.8001,-4.8001,-4.8001,-4.8001,-4.8001,-4.8001,-4.8001,-4.8001,-4.8001,-4.8001,-4.8001,-4.8001,-4.8001,-4.8001,-4.8001,-4.8001,-3.5729,0.0,0.0,0.0,0.0,0.0,0.0,0.0,0.0,-4.2845,-4.3419,-4.3977,-4.4415,-4.4783,-4.5132,-4.5573,-4.5936,-4.6426,-4.7089,-4.7101,-4.6774,-4.6083,-4.5433,-4.4755,-4.409,-4.3563,-4.329,0.0,-4.329,-4.2761,-4.1444,-4.0472,-3.9871,-3.9625,-3.9661,-3.9768,-3.9925,-3.9553,-3.9265,-3.9017,-3.8263,-3.7787,-3.7495,-3.7148,-3.6978,-3.6978,-3.6978,-3.6978,-3.6978,-3.6978,-3.6978,-3.7007,-3.7161,-3.7512,-3.799,-3.886,-3.9451,-3.9873,-4.0491,-4.0958,-4.1339,-4.1729,-4.2333,-4.3036,-4.3566,-4.3996,-4.432,-4.4473,-4.4549,-4.4572,-4.4435,-4.4205,-4.3949,-4.3769,-4.3518,-4.329,-4.329,-4.329,-4.329,-4.329,-4.329,-4.329,-4.329,-4.329,-4.3384,-4.3557,-4.3972,-4.4534,-4.5147,-4.5985,-4.6738,-4.7285,-4.7688,-4.7935,-4.7935,-4.7968,-4.8001,-4.8001,-4.8001,-4.8001,-4.8001,-4.8001,-4.8001,-4.8001,-4.8001,-4.8001,-4.8001,-4.8001,-4.8001,-4.8001,-4.8001,-4.8001,-3.5833,-3.5998,-3.6148,-3.6417,0.0,0.0,-3.8527,-3.9604,0.0,0.0,-4.1863,-4.2641,-4.3015,-4.3325,-4.3732,-4.4351,-4.4717,-4.5362,-4.6683,-4.713,-4.7028,-4.6407,-4.5729,-4.5024,-4.4385,-4.3708,-4.329,-4.329,-4.329,-4.2761,-4.1444,-4.0201,-3.9589,-3.9681,-3.9874,-4.0016,-4.0137,-3.9874,-3.9625,-3.9358,-3.8598,-3.8075,-3.7711,-3.7303,-3.707,-3.6978,-3.6978,-3.6978,-3.6978,-3.6978,-3.6978,-3.6978,-3.6978,-3.7203,-3.7625,-3.8579,-3.9127,-3.9563,-4.0619,-4.1213,-4.1619,-4.2211,-4.278,-4.3354,-4.3934,-4.4281,-4.4473,-4.4572,-4.461,-4.4534,-4.4243,-4.4104,-4.391,-4.3596,-4.3423,-4.329,-4.329,-4.329,-4.329,-4.329,-4.329,-4.329,-4.329,-4.329,-4.3384,-4.3651,-4.4151,-4.4768,-4.5442,-4.6285,-4.703,-4.7521,-4.7836,-4.8001,-4.8001,-4.8001,-4.8001,-4.8001,-4.8001,-4.8001,-4.8001,-4.8001,-4.8001,-4.8001,-4.8001,-4.8001,-4.8001,-4.8001,-4.8001,-4.8001,-4.8001,-4.8001,-3.6357,-3.6058,-3.5744,-3.6252,-3.6432,0.0,-3.718,-3.8287,-3.92,0.0,-4.0187,-4.1108,-4.1145,-4.122,-4.1669,-4.2871,-4.321,-4.3973,-4.5933,-4.6711,-4.686,-4.6234,-4.5603,-4.4945,-4.4377,-4.3678,-4.329,-4.329,-4.323,-4.2686,-4.1497,-4.0407,-3.9807,-3.9768,-4.0121,-4.0312,-4.0312,-4.0312,-4.0121,-3.9753,-3.9126,-3.8523,-3.8,-3.7519,-3.7226,-3.7017,-3.7017,-3.6978,-3.6978,-3.6978,-3.6978,-3.6978,-3.6978,-3.6978,-3.7133,-3.8438,-3.8902,-3.9167,-4.0842,-4.1591,-4.1937,-4.2795,-4.3314,-4.3747,-4.4205,-4.4473,-4.461,-4.461,-4.461,-4.4511,-4.4089,-4.3988,-4.3871,-4.3409,-4.329,-4.329,-4.329,-4.329,-4.329,-4.329,-4.329,-4.329,-4.329,-4.329,-4.3384,-4.3675,-4.4351,-4.5036,-4.566,-4.6582,-4.7352,-4.7671,-4.7886,-4.8001,-4.8001,-4.8001,-4.8001,-4.8001,-4.8001,-4.8001,-4.8001,-4.8001,-4.8001,-4.8001,-4.8001,-4.8001,-4.8001,-4.8001,-4.8001,-4.8001,-4.8001,-4.8001,-3.6596,-3.6387,-3.6207,-3.5804,-3.6088,0.0,-3.6641,-3.7255,-3.7793,0.0,-3.8422,-3.914,-3.9694,-4.0232,-4.0846,-4.1639,-4.2246,-4.3279,-4.5214,-4.5603,-4.5633,-4.5514,-4.49,-4.4451,-4.4332,-4.3678,-4.329,-4.329,-4.2851,-4.2284,-4.1671,-4.0932,-4.0419,-4.0172,-4.0277,-4.0331,-4.047,-4.0331,-4.0277,-4.0156,-3.9394,-3.8907,-3.8598,-3.7863,-3.7419,-3.7226,-3.707,-3.6978,-3.6978,-3.6978,-3.6978,-3.6978,-3.6978,-3.6978,-3.7133,-3.8438,-3.8998,-3.9385,-4.0869,-4.1883,-4.2607,-4.3101,-4.3654,-4.4205,-4.4458,-4.4572,-4.461,-4.461,-4.461,-4.4511,-4.4089,-4.3988,-4.3871,-4.3409,-4.329,-4.329,-4.329,-4.329,-4.329,-4.329,-4.329,-4.329,-4.329,-4.329,-4.3463,-4.3871,-4.4427,-4.5073,-4.5841,-4.6668,-4.7352,-4.7671,-4.7886,-4.8001,-4.8001,-4.8001,-4.8001,-4.8001,-4.8001,-4.8001,-4.8001,-4.8001,-4.8001,-4.8001,-4.8001,-4.8001,-4.8001,-4.8001,-4.8001,-4.8001,-4.8001,-4.8001,-3.7434,-3.7195,-3.6866,-3.6537,-3.6462,0.0,0.0,-3.6731,-3.6941,-3.6941,-3.7464,-3.8003,-3.8347,-3.8691,-3.923,-4.0247,-4.0681,-4.1474,-4.3105,-4.4182,-4.493,-4.5259,-4.4721,-4.4317,-4.4317,-4.3678,-4.3125,-4.2682,-4.2269,-4.1806,-4.1234,-4.1092,-4.0786,-4.0327,-4.0366,-4.0436,-4.0489,-4.0436,-4.0366,-4.0312,-3.9803,-3.9322,-3.8943,-3.8315,-3.7839,-3.7419,-3.7226,-3.7109,-3.6978,-3.6978,-3.6978,-3.6978,-3.6978,-3.6978,-3.7172,-3.8519,-3.9187,-3.9601,-4.1435,-4.2404,-4.2955,-4.3591,-4.4035,-4.4358,-4.4549,-4.461,-4.461,-4.461,-4.4549,-4.4396,-4.4065,-4.391,-4.3754,-4.3369,-4.329,-4.329,-4.329,-4.329,-4.329,-4.329,-4.329,-4.329,-4.329,-4.329,-4.3488,-4.405,-4.4617,-4.5295,-4.6179,-4.6911,-4.747,-4.782,-4.7935,-4.8001,-4.8001,-4.8001,-4.8001,-4.8001,-4.8001,-4.8001,-4.8001,-4.8001,-4.8001,-4.8001,-4.8001,-4.8001,-4.8001,-4.8001,-4.8001,-4.8001,-4.8001,-4.8001,-3.8287,-3.8003,-3.7569,-3.7434,-3.6941,-3.6492,0.0,0.0,0.0,-3.6297,-3.6686,0.0,0.0,0.0,0.0,0.0,0.0,0.0,0.0,-4.2162,0.0,-4.4436,-4.4077,-4.3748,-4.3748,-4.3269,-4.2647,-4.2004,-4.1798,-4.1459,-4.0816,-4.1111,-4.1,-4.0362,-4.042,-4.0489,-4.0489,-4.0489,-4.047,-4.0347,-4.0137,-3.9768,-3.925,-3.8811,-3.8329,-3.7801,-3.7534,-3.7327,-3.7173,-3.7095,-3.707,-3.7109,-3.7017,-3.7017,-3.725,-3.872,-3.9415,-3.9989,-4.203,-4.2955,-4.3314,-4.4073,-4.432,-4.4396,-4.4549,-4.461,-4.4572,-4.4534,-4.4435,-4.4243,-4.4026,-4.3832,-4.3636,-4.3384,-4.329,-4.329,-4.329,-4.329,-4.329,-4.329,-4.329,-4.329,-4.329,-4.329,-4.3527,-4.4205,-4.4768,-4.5478,-4.6477,-4.7149,-4.7637,-4.7968,-4.8001,-4.8001,-4.8001,-4.8001,-4.8001,-4.8001,-4.8001,-4.8001,-4.8001,-4.8001,-4.8001,-4.8001,-4.8001,-4.8001,-4.8001,-4.8001,-4.8001,-4.8001,-4.8001,-4.8001,-3.8542,-3.8332,-3.8138,-3.7554,-3.6941,-3.6492,-3.6492,0.0,-3.5609,-3.5609,0.0,0.0,0.0,0.0,0.0,0.0,0.0,0.0,-3.8631,-3.8916,-3.9753,-4.1609,-4.1758,-4.1713,-4.1713,-4.1654,-4.1655,-4.1731,-4.1693,-4.1548,-4.1147,-4.1189,-4.099,-4.0486,-4.0489,-4.0489,-4.0489,-4.0489,-4.0489,-4.047,-4.0331,-4.0137,-3.9889,-3.9286,-3.8907,-3.8634,-3.8075,-3.781,-3.7772,-3.7404,-3.738,-3.7495,-3.7148,-3.7109,-3.7445,-3.8905,-3.9841,-4.0607,-4.2376,-4.3369,-4.3934,-4.4205,-4.4435,-4.4572,-4.4572,-4.461,-4.4572,-4.4396,-4.432,-4.4205,-4.3832,-4.3729,-4.3636,-4.3384,-4.329,-4.329,-4.329,-4.329,-4.329,-4.329,-4.329,-4.329,-4.329,-4.329,-4.3527,-4.4205,-4.4768,-4.5478,-4.6477,-4.7149,-4.7637,-4.7968,-4.8001,-4.8001,-4.8001,-4.8001,-4.8001,-4.8001,-4.8001,-4.8001,-4.8001,-4.8001,-4.8001,-4.8001,-4.8001,-4.8001,-4.8001,-4.8001,-4.8001,-4.8001,-4.8001,-4.8001,-3.9065,-3.899,-3.8916,-3.8646,-3.7793,-3.7015,-3.7015,-3.6237,-3.5609,-3.5998,0.0,0.0,0.0,0.0,0.0,0.0,-3.6881,0.0,0.0,0.0,-3.8571,0.0,0.0,0.0,-4.0964,-4.0995,-4.0875,-4.0606,-4.0753,-4.0777,-4.0689,-4.1163,-4.1142,-4.052,-4.0489,-4.0489,-4.0489,-4.0489,-4.0489,-4.0489,-4.0436,-4.0331,-4.0172,-3.9768,-3.9466,-3.9111,-3.8634,-3.8352,-3.824,-3.7938,-3.7863,-3.7938,-3.7901,-3.7787,-3.7854,-3.9615,-4.051,-4.1128,-4.2944,-4.3856,-4.4205,-4.4396,-4.4534,-4.461,-4.461,-4.4511,-4.4396,-4.432,-4.4127,-4.391,-4.3729,-4.3596,-4.3423,-4.3329,-4.329,-4.329,-4.329,-4.329,-4.329,-4.329,-4.329,-4.329,-4.329,-4.3423,-4.3738,-4.4396,-4.4955,-4.5624,-4.6652,-4.7217,-4.7637,-4.7968,-4.8001,-4.8001,-4.8001,-4.8001,-4.8001,-4.8001,-4.8001,-4.8001,-4.8001,-4.8001,-4.8001,-4.8001,-4.8001,-4.8001,-4.8001,-4.8001,-4.8001,-4.8001,-4.8001,-4.8001,-3.9388,-3.9388,-3.9388,-3.9388,-3.8407,-3.7464,-3.7644,-3.6686,-3.5953,-3.6611,-3.6357,0.0,0.0,0.0,-3.5923,-3.6417,0.0,-3.6372,0.0,-3.6881,0.0,0.0,0.0,0.0,0.0,-3.9792,-3.9691,-3.9466,-3.9721,-4.0021,-4.0347,-4.0962,-4.1063,-4.0505,-4.0489,-4.0489,-4.0489,-4.0489,-4.0489,-4.0489,-4.0489,-4.047,-4.0347,-4.0172,-3.991,-3.9631,-3.9235,-3.8943,-3.8811,-3.8538,-3.8501,-3.8523,-3.8686,-3.8612,-3.861,-4.0309,-4.1141,-4.161,-4.344,-4.4205,-4.4396,-4.4534,-4.461,-4.4572,-4.4534,-4.4435,-4.4281,-4.4181,-4.391,-4.369,-4.3596,-4.3463,-4.329,-4.329,-4.329,-4.329,-4.329,-4.329,-4.329,-4.329,-4.329,-4.329,-4.329,-4.3518,-4.391,-4.4511,-4.5067,-4.5769,-4.6772,-4.7251,-4.7637,-4.7968,-4.8001,-4.8001,-4.8001,-4.8001,-4.8001,-4.8001,-4.8001,-4.8001,-4.8001,-4.8001,-4.8001,-4.8001,-4.8001,-4.8001,-4.8001,-4.8001,-4.8001,-4.8001,-4.8001,-4.8001,-3.9388,-3.9388,-3.9388,-3.9388,-3.8407,-3.7584,-3.8212,-3.7375,-3.6626,-3.7255,-3.736,-3.736,-3.7375,-3.6881,-3.6462,-3.6492,-3.5953,0.0,0.0,0.0,0.0,0.0,0.0,0.0,0.0,-3.7524,-3.7792,0.0,-3.8868,-3.9455,-4.0459,-4.052,-4.052,-4.0489,-4.0489,-4.0489,-4.0489,-4.0489,-4.0489,-4.0489,-4.0489,-4.0489,-4.0489,-4.0331,-4.0277,-4.0242,-3.9839,-3.9661,-3.961,-3.925,-3.9199,-3.9364,-3.9379,-3.9487,-3.9775,-4.0965,-4.1633,-4.2173,-4.3731,-4.4435,-4.4572,-4.461,-4.461,-4.4572,-4.4358,-4.432,-4.4205,-4.3847,-4.3729,-4.3636,-4.3384,-4.329,-4.329,-4.329,-4.329,-4.329,-4.329,-4.329,-4.329,-4.329,-4.329,-4.329,-4.329,-4.3518,-4.391,-4.4511,-4.5067,-4.5769,-4.6772,-4.7251,-4.7637,-4.7968,-4.8001,-4.8001,-4.8001,-4.8001,-4.8001,-4.8001,-4.8001,-4.8001,-4.8001,-4.8001,-4.8001,-4.8001,-4.8001,-4.8001,-4.8001,-4.8001,-4.8001,-4.8001,-4.8001,-4.8001,0.0,0.0,-3.9388,-3.9388,-3.8736,-3.8123,-3.8347,-3.7719,-3.7285,-3.7928,-3.7719,-3.7539,-3.7973,-3.7195,-3.6492,-3.6492,-3.5938,-3.5504,0.0,0.0,0.0,0.0,0.0,0.0,0.0,0.0,0.0,0.0,-3.8538,0.0,-4.0409,-4.0489,-4.0489,-4.0489,-4.0489,-4.0489,-4.0489,-4.0489,-4.0489,-4.0489,-4.0489,-4.0489,-4.0489,-4.0455,-4.0436,-4.0436,-4.0191,-4.0086,-4.0086,-3.9803,-3.9732,-3.9803,-3.993,-4.0051,-4.0254,-4.152,-4.208,-4.2426,-4.3959,-4.4549,-4.461,-4.461,-4.4511,-4.4396,-4.432,-4.4089,-4.3871,-4.3729,-4.3557,-4.3423,-4.3329,-4.329,-4.329,-4.329,-4.329,-4.329,-4.329,-4.329,-4.329,-4.329,-4.329,-4.3384,-4.3518,-4.3871,-4.4243,-4.4655,-4.5442,-4.625,-4.6996,-4.742,-4.7721,-4.7968,-4.8001,-4.8001,-4.8001,-4.8001,-4.8001,-4.8001,-4.8001,-4.8001,-4.8001,-4.8001,-4.8001,-4.8001,-4.8001,-4.8001,-4.8001,-4.8001,-4.8001,-4.8001,-4.8001,-4.8001,-3.9388,-3.9388,0.0,-3.9388,-3.8901,0.0,-3.8691,-3.8242,-3.7943,-3.8616,-3.8422,-3.8257,-3.8676,-3.7689,-3.6806,-3.6806,-3.6073,-3.5504,0.0,-3.5504,0.0,0.0,0.0,0.0,0.0,0.0,-3.6847,-3.8103,-3.8092,0.0,0.0,-4.0439,-4.0489,-4.0489,-4.0489,-4.0489,-4.0489,-4.0489,-4.0489,-4.0489,-4.0489,-4.0489,-4.0489,-4.0489,-4.0489,-4.0505,-4.0401,-4.0366,-4.0366,-4.0226,-4.0172,-4.0191,-4.0331,-4.0366,-4.0535,-4.1899,-4.2695,-4.3254,-4.4242,-4.461,-4.461,-4.461,-4.4458,-4.4281,-4.4205,-4.3949,-4.369,-4.3596,-4.3423,-4.329,-4.329,-4.329,-4.329,-4.329,-4.329,-4.329,-4.329,-4.329,-4.329,-4.329,-4.329,-4.3384,-4.3651,-4.4127,-4.4594,-4.4918,-4.5713,-4.6512,-4.7098,-4.7504,-4.7787,-4.7968,-4.8001,-4.8001,-4.8001,-4.8001,-4.8001,-4.8001,-4.8001,-4.8001,-4.8001,-4.8001,-4.8001,-4.8001,-4.8001,-4.8001,-4.8001,-4.8001,-4.8001,-4.8001,-4.8001,-4.8001]}]]